Time,TemperatureF,DewpointF,PressureIn,WindDirection,WindDirectionDegrees,WindSpeedMPH,WindSpeedGustMPH,Humidity,HourlyPrecipIn,Conditions,Clouds,dailyrainin,SoftwareType,DateUTC
2013-11-24 00:00:00,60.2,60.2,29.81,NNE,15,2.0,4.0,100,0.00,,OVC012,0.00,VWS V14.01,2013-11-24 05:00:00,
2013-11-24 00:01:00,60.2,60.2,29.80,NNW,347,4.0,4.0,100,0.00,,OVC032,0.00,VWS V14.01,2013-11-24 05:01:00,
2013-11-24 00:02:00,60.2,60.2,29.80,NNW,337,8.0,8.0,100,0.00,,OVC012,0.00,VWS V14.01,2013-11-24 05:02:00,
2013-11-24 00:03:00,60.2,60.2,29.80,NNE,20,4.0,8.0,100,0.00,,OVC012,0.00,VWS V14.01,2013-11-24 05:03:00,
2013-11-24 00:04:00,60.2,60.2,29.80,NNW,344,4.0,5.0,100,0.00,,OVC012,0.00,VWS V14.01,2013-11-24 05:04:00,
2013-11-24 00:05:00,60.1,60.1,29.80,North,360,4.0,10.0,100,0.00,,OVC012,0.00,VWS V14.01,2013-11-24 05:05:00,
2013-11-24 00:06:00,60.1,60.1,29.67,NNE,22,4.0,6.0,100,0.00,,OVC032,0.00,VWS V14.01,2013-11-24 05:06:00,
2013-11-24 00:07:00,60.1,60.1,29.67,NNE,22,2.0,6.0,100,0.00,,OVC012,0.00,VWS V14.01,2013-11-24 05:07:00,
2013-11-24 00:08:00,60.1,60.1,29.72,NNE,24,2.0,3.0,100,0.00,,OVC012,0.00,VWS V14.01,2013-11-24 05:08:00,
2013-11-24 00:09:00,60.1,60.1,29.72,NNW,343,4.0,4.0,100,0.00,,OVC012,0.00,VWS V14.01,2013-11-24 05:09:00,
2013-11-24 00:10:00,60.1,60.1,29.72,North,351,3.0,5.0,100,0.00,,OVC012,0.00,VWS V14.01,2013-11-24 05:10:00,
2013-11-24 00:11:00,60.1,60.1,29.72,North,5,3.0,5.0,100,0.00,,OVC032,0.00,VWS V14.01,2013-11-24 05:11:00,
2013-11-24 00:12:00,60.1,60.1,29.72,NNW,335,4.0,5.0,100,0.00,,OVC012,0.00,VWS V14.01,2013-11-24 05:12:00,
2013-11-24 00:13:00,60.1,60.1,29.72,NNE,29,6.0,6.0,100,0.00,,OVC012,0.00,VWS V14.01,2013-11-24 05:13:00,
2013-11-24 00:14:00,60.1,60.1,29.72,NE,35,3.0,8.0,100,0.00,,OVC012,0.00,VWS V14.01,2013-11-24 05:14:00,
2013-11-24 00:15:00,60.1,60.1,29.72,North,9,2.0,6.0,100,0.00,,OVC012,0.00,VWS V14.01,2013-11-24 05:15:00,
2013-11-24 00:16:00,60.1,60.1,29.72,NNE,15,2.0,4.0,100,0.00,,OVC032,0.00,VWS V14.01,2013-11-24 05:16:00,
2013-11-24 00:17:00,60.1,60.1,29.61,NNE,15,2.0,4.0,100,0.00,,OVC012,0.00,VWS V14.01,2013-11-24 05:17:00,
2013-11-24 00:18:00,60.1,60.1,29.61,NNW,338,3.0,4.0,100,0.00,,OVC012,0.00,VWS V14.01,2013-11-24 05:18:00,
2013-11-24 00:19:00,60.1,60.1,29.61,NE,55,3.0,5.0,100,0.00,,OVC012,0.00,VWS V14.01,2013-11-24 05:19:00,
2013-11-24 00:20:00,60.1,60.1,29.61,NE,55,2.0,3.0,100,0.00,,OVC012,0.00,VWS V14.01,2013-11-24 05:20:00,
2013-11-24 00:21:00,60.1,60.1,29.61,North,360,3.0,5.0,100,0.00,,OVC032,0.00,VWS V14.01,2013-11-24 05:21:00,
2013-11-24 00:22:00,60.1,60.1,29.61,North,355,3.0,5.0,100,0.00,,OVC012,0.00,VWS V14.01,2013-11-24 05:22:00,
2013-11-24 00:23:00,59.9,59.9,29.61,North,355,3.0,10.0,100,0.00,,OVC012,0.00,VWS V14.01,2013-11-24 05:23:00,
2013-11-24 00:24:00,59.9,59.9,29.61,North,9,3.0,6.0,100,0.00,,OVC012,0.00,VWS V14.01,2013-11-24 05:24:00,
2013-11-24 00:25:00,59.9,59.9,29.78,North,11,5.0,5.0,100,0.00,,OVC012,0.00,VWS V14.01,2013-11-24 05:25:00,
2013-11-24 00:26:00,59.9,59.9,29.78,NE,34,2.0,9.0,100,0.00,,OVC032,0.00,VWS V14.01,2013-11-24 05:26:00,
2013-11-24 00:27:00,59.9,59.9,29.78,NNW,327,4.0,9.0,100,0.00,,OVC012,0.00,VWS V14.01,2013-11-24 05:27:00,
2013-11-24 00:28:00,59.9,59.9,29.74,NE,36,3.0,5.0,100,0.00,,OVC012,0.00,VWS V14.01,2013-11-24 05:28:00,
2013-11-24 00:29:00,59.9,59.9,29.74,NE,56,2.0,5.0,100,0.00,,OVC012,0.00,VWS V14.01,2013-11-24 05:29:00,
2013-11-24 00:30:00,59.9,59.9,29.74,NE,38,1.0,3.0,100,0.00,,OVC012,0.00,VWS V14.01,2013-11-24 05:30:00,
2013-11-24 00:31:00,59.9,59.9,29.74,NW,319,7.0,9.0,100,0.00,,OVC032,0.00,VWS V14.01,2013-11-24 05:31:00,
2013-11-24 00:32:00,59.8,59.8,29.74,NW,319,7.0,9.0,100,0.00,,OVC012,0.00,VWS V14.01,2013-11-24 05:32:00,
2013-11-24 00:33:00,59.8,59.8,29.74,NNW,338,5.0,7.0,100,0.00,,OVC012,0.00,VWS V14.01,2013-11-24 05:33:00,
2013-11-24 00:34:00,59.8,59.8,29.73,NE,35,2.0,5.0,100,0.00,,OVC012,0.00,VWS V14.01,2013-11-24 05:34:00,
2013-11-24 00:35:00,59.8,59.8,29.73,North,349,2.0,6.0,100,0.00,,OVC012,0.00,VWS V14.01,2013-11-24 05:35:00,
2013-11-24 00:36:00,59.8,59.8,29.73,NE,34,1.0,3.0,100,0.00,,OVC037,0.00,VWS V14.01,2013-11-24 05:36:00,
2013-11-24 00:37:00,59.8,59.8,29.73,NE,34,3.0,3.0,100,0.00,,OVC012,0.00,VWS V14.01,2013-11-24 05:37:00,
2013-11-24 00:38:00,59.8,59.8,29.73,NNW,347,3.0,9.0,100,0.00,,OVC012,0.00,VWS V14.01,2013-11-24 05:38:00,
2013-11-24 00:39:00,59.8,59.8,29.73,NNW,337,6.0,6.0,100,0.00,,OVC012,0.00,VWS V14.01,2013-11-24 05:39:00,
2013-11-24 00:40:00,59.9,59.9,29.73,NNE,19,2.0,7.0,100,0.00,,OVC012,0.00,VWS V14.01,2013-11-24 05:40:00,
2013-11-24 00:41:00,59.9,59.9,29.73,North,5,2.0,4.0,100,0.00,,OVC037,0.00,VWS V14.01,2013-11-24 05:41:00,
2013-11-24 00:42:00,59.9,59.9,29.73,NE,44,3.0,4.0,100,0.00,,OVC012,0.00,VWS V14.01,2013-11-24 05:42:00,
2013-11-24 00:43:00,59.9,59.9,29.79,NNW,348,4.0,4.0,100,0.00,,OVC012,0.00,VWS V14.01,2013-11-24 05:43:00,
2013-11-24 00:44:00,59.9,59.9,29.79,North,360,2.0,6.0,100,0.00,,OVC012,0.00,VWS V14.01,2013-11-24 05:44:00,
2013-11-24 00:45:00,59.9,59.9,29.79,WNW,286,10.0,10.0,100,0.00,,OVC012,0.00,VWS V14.01,2013-11-24 05:45:00,
2013-11-24 00:46:00,59.8,59.8,29.77,NW,319,4.0,4.0,100,0.00,,OVC037,0.00,VWS V14.01,2013-11-24 05:46:00,
2013-11-24 00:47:00,59.8,59.8,29.77,NNW,348,2.0,4.0,100,0.00,,OVC012,0.00,VWS V14.01,2013-11-24 05:47:00,
2013-11-24 00:48:00,59.9,59.9,29.77,NW,321,4.0,4.0,100,0.00,,OVC012,0.00,VWS V14.01,2013-11-24 05:48:00,
2013-11-24 00:49:00,59.8,59.8,29.76,NNE,30,2.0,5.0,100,0.00,,OVC012,0.00,VWS V14.01,2013-11-24 05:49:00,
2013-11-24 00:50:00,59.8,59.8,29.76,NNW,338,5.0,6.0,100,0.00,,OVC012,0.00,VWS V14.01,2013-11-24 05:50:00,
2013-11-24 00:51:00,59.8,59.8,29.76,NNW,334,2.0,5.0,100,0.00,,OVC037,0.00,VWS V14.01,2013-11-24 05:51:00,
2013-11-24 00:52:00,59.8,59.8,29.88,NW,309,9.0,9.0,100,0.00,,OVC012,0.00,VWS V14.01,2013-11-24 05:52:00,
2013-11-24 00:53:00,59.8,59.8,29.88,NNE,17,3.0,9.0,100,0.00,,OVC012,0.00,VWS V14.01,2013-11-24 05:53:00,
2013-11-24 00:54:00,59.8,59.8,29.88,North,355,4.0,5.0,100,0.00,,OVC012,0.00,VWS V14.01,2013-11-24 05:54:00,
2013-11-24 00:55:00,59.8,59.8,29.88,NNE,14,4.0,7.0,100,0.00,,OVC012,0.00,VWS V14.01,2013-11-24 05:55:00,
2013-11-24 00:56:00,59.8,59.8,29.88,North,355,4.0,6.0,100,0.00,,OVC037,0.00,VWS V14.01,2013-11-24 05:56:00,
2013-11-24 00:57:00,59.8,59.8,29.88,NNW,333,5.0,5.0,100,0.00,,OVC037,0.00,VWS V14.01,2013-11-24 05:57:00,
2013-11-24 00:58:00,59.8,59.8,29.88,NNW,333,5.0,5.0,100,0.00,,OVC012,0.00,VWS V14.01,2013-11-24 05:58:00,
2013-11-24 00:59:00,59.8,59.8,29.88,WNW,302,3.0,5.0,100,0.00,,OVC012,0.00,VWS V14.01,2013-11-24 05:59:00,
2013-11-24 01:00:00,59.9,59.9,29.88,NNE,17,2.0,6.0,100,0.00,,OVC012,0.00,VWS V14.01,2013-11-24 06:00:00,
2013-11-24 01:01:00,59.9,59.9,29.88,North,9,4.0,10.0,100,0.00,,OVC012,0.00,VWS V14.01,2013-11-24 06:01:00,
2013-11-24 01:02:00,59.8,59.8,29.88,North,5,2.0,9.0,100,0.00,,OVC037,0.00,VWS V14.01,2013-11-24 06:02:00,
2013-11-24 01:03:00,59.8,59.8,29.88,North,5,2.0,9.0,100,0.00,,OVC012,0.00,VWS V14.01,2013-11-24 06:03:00,
2013-11-24 01:04:00,59.8,59.8,29.88,North,5,6.0,6.0,100,0.00,,OVC012,0.00,VWS V14.01,2013-11-24 06:04:00,
2013-11-24 01:05:00,59.8,59.8,29.88,NNW,338,5.0,6.0,100,0.00,,OVC012,0.00,VWS V14.01,2013-11-24 06:05:00,
2013-11-24 01:06:00,59.8,59.8,29.88,North,355,5.0,5.0,100,0.00,,OVC012,0.00,VWS V14.01,2013-11-24 06:06:00,
2013-11-24 01:07:00,59.8,59.8,29.66,NNE,15,3.0,6.0,100,0.00,,OVC037,0.00,VWS V14.01,2013-11-24 06:07:00,
2013-11-24 01:08:00,59.8,59.8,29.66,NNE,15,3.0,6.0,100,0.00,,OVC012,0.00,VWS V14.01,2013-11-24 06:08:00,
2013-11-24 01:09:00,59.8,59.8,29.66,NNE,21,5.0,5.0,100,0.00,,OVC012,0.00,VWS V14.01,2013-11-24 06:09:00,
2013-11-24 01:10:00,59.8,59.8,29.66,NW,325,9.0,9.0,100,0.00,,OVC012,0.00,VWS V14.01,2013-11-24 06:10:00,
2013-11-24 01:11:00,59.8,59.8,29.66,NE,49,3.0,9.0,100,0.00,,OVC012,0.00,VWS V14.01,2013-11-24 06:11:00,
2013-11-24 01:12:00,59.8,59.8,29.66,NW,324,5.0,7.0,100,0.00,,OVC037,0.00,VWS V14.01,2013-11-24 06:12:00,
2013-11-24 01:13:00,59.8,59.8,29.66,NW,324,5.0,7.0,100,0.00,,OVC012,0.00,VWS V14.01,2013-11-24 06:13:00,
2013-11-24 01:14:00,59.8,59.8,29.66,NNW,336,7.0,7.0,100,0.00,,OVC012,0.00,VWS V14.01,2013-11-24 06:14:00,
2013-11-24 01:15:00,59.8,59.8,29.66,North,355,2.0,9.0,100,0.00,,OVC012,0.00,VWS V14.01,2013-11-24 06:15:00,
2013-11-24 01:16:00,59.8,59.8,29.66,NNE,15,5.0,7.0,100,0.00,,OVC012,0.00,VWS V14.01,2013-11-24 06:16:00,
2013-11-24 01:17:00,59.8,59.8,29.66,NNW,348,6.0,7.0,100,0.00,,OVC037,0.00,VWS V14.01,2013-11-24 06:17:00,
2013-11-24 01:18:00,59.8,59.8,29.66,NNW,348,6.0,7.0,100,0.00,,OVC012,0.00,VWS V14.01,2013-11-24 06:18:00,
2013-11-24 01:19:00,59.8,59.8,29.66,NNE,13,4.0,6.0,100,0.00,,OVC012,0.00,VWS V14.01,2013-11-24 06:19:00,
2013-11-24 01:20:00,59.8,59.8,29.66,NW,319,5.0,9.0,100,0.00,,OVC012,0.00,VWS V14.01,2013-11-24 06:20:00,
2013-11-24 01:21:00,59.8,59.8,29.66,NNE,17,2.0,5.0,100,0.00,,OVC012,0.00,VWS V14.01,2013-11-24 06:21:00,
2013-11-24 01:22:00,59.8,59.8,30.09,NNW,329,5.0,5.0,100,0.00,,OVC037,0.00,VWS V14.01,2013-11-24 06:22:00,
2013-11-24 01:23:00,59.8,59.8,30.09,NNW,329,5.0,5.0,100,0.00,,OVC012,0.00,VWS V14.01,2013-11-24 06:23:00,
2013-11-24 01:24:00,59.8,59.8,30.09,North,355,6.0,6.0,100,0.00,,OVC012,0.00,VWS V14.01,2013-11-24 06:24:00,
2013-11-24 01:25:00,59.8,59.8,30.09,North,355,3.0,6.0,100,0.00,,OVC012,0.00,VWS V14.01,2013-11-24 06:25:00,
2013-11-24 01:26:00,59.8,59.8,30.09,NNE,18,2.0,4.0,100,0.00,,OVC012,0.00,VWS V14.01,2013-11-24 06:26:00,
2013-11-24 01:27:00,59.8,59.8,30.09,NE,34,4.0,6.0,100,0.00,,OVC037,0.00,VWS V14.01,2013-11-24 06:27:00,
2013-11-24 01:28:00,59.8,59.8,30.09,NE,34,4.0,6.0,100,0.00,,OVC012,0.00,VWS V14.01,2013-11-24 06:28:00,
2013-11-24 01:29:00,59.8,59.8,30.09,North,9,2.0,7.0,100,0.00,,OVC012,0.00,VWS V14.01,2013-11-24 06:29:00,
2013-11-24 01:30:00,59.8,59.8,30.09,NE,50,3.0,7.0,100,0.00,,OVC012,0.00,VWS V14.01,2013-11-24 06:30:00,
2013-11-24 01:31:00,59.8,59.8,30.09,NNW,336,4.0,5.0,100,0.00,,OVC012,0.00,VWS V14.01,2013-11-24 06:31:00,
2013-11-24 01:32:00,59.8,59.8,30.09,NNE,15,3.0,4.0,100,0.00,,OVC037,0.00,VWS V14.01,2013-11-24 06:32:00,
2013-11-24 01:33:00,59.8,59.8,30.09,NNE,15,3.0,4.0,100,0.00,,OVC012,0.00,VWS V14.01,2013-11-24 06:33:00,
2013-11-24 01:34:00,59.8,59.8,30.09,WNW,292,9.0,9.0,100,0.00,,OVC012,0.00,VWS V14.01,2013-11-24 06:34:00,
2013-11-24 01:35:00,59.6,59.6,30.09,NNW,335,6.0,9.0,100,0.00,,OVC012,0.00,VWS V14.01,2013-11-24 06:35:00,
2013-11-24 01:36:00,59.6,59.6,30.09,NNW,329,6.0,11.0,100,0.00,,OVC012,0.00,VWS V14.01,2013-11-24 06:36:00,
2013-11-24 01:37:00,59.6,59.6,30.09,NNW,340,5.0,9.0,100,0.00,,OVC055,0.00,VWS V14.01,2013-11-24 06:37:00,
2013-11-24 01:38:00,59.6,59.6,30.09,NNW,340,5.0,9.0,100,0.00,,OVC012,0.00,VWS V14.01,2013-11-24 06:38:00,
2013-11-24 01:39:00,59.6,59.6,30.09,North,5,2.0,14.0,100,0.00,,OVC012,0.00,VWS V14.01,2013-11-24 06:39:00,
2013-11-24 01:40:00,59.6,59.6,29.81,NNW,329,10.0,10.0,100,0.00,,OVC012,0.00,VWS V14.01,2013-11-24 06:40:00,
2013-11-24 01:41:00,59.6,59.6,29.81,North,350,4.0,11.0,100,0.00,,OVC012,0.00,VWS V14.01,2013-11-24 06:41:00,
2013-11-24 01:42:00,59.5,59.5,29.78,NNW,347,4.0,9.0,100,0.00,,OVC055,0.00,VWS V14.01,2013-11-24 06:42:00,
2013-11-24 01:43:00,59.5,59.5,29.78,NNW,347,4.0,9.0,100,0.00,,OVC012,0.00,VWS V14.01,2013-11-24 06:43:00,
2013-11-24 01:44:00,59.5,59.5,29.78,NW,319,10.0,10.0,100,0.00,,OVC012,0.00,VWS V14.01,2013-11-24 06:44:00,
2013-11-24 01:45:00,59.3,59.3,29.78,NE,37,3.0,11.0,100,0.00,,OVC012,0.00,VWS V14.01,2013-11-24 06:45:00,
2013-11-24 01:46:00,59.3,59.3,29.78,North,355,4.0,11.0,100,0.00,,OVC012,0.00,VWS V14.01,2013-11-24 06:46:00,
2013-11-24 01:47:00,59.3,59.3,29.78,NNW,338,11.0,11.0,100,0.00,,OVC055,0.00,VWS V14.01,2013-11-24 06:47:00,
2013-11-24 01:48:00,59.3,59.3,29.78,NNW,338,11.0,11.0,100,0.00,,OVC012,0.00,VWS V14.01,2013-11-24 06:48:00,
2013-11-24 01:49:00,59.3,59.3,29.78,NE,45,3.0,11.0,100,0.00,,OVC012,0.00,VWS V14.01,2013-11-24 06:49:00,
2013-11-24 01:50:00,59.2,59.2,29.78,NNE,24,4.0,9.0,100,0.00,,OVC012,0.00,VWS V14.01,2013-11-24 06:50:00,
2013-11-24 01:51:00,59.2,59.2,30.01,NNW,328,10.0,11.0,100,0.00,,OVC012,0.00,VWS V14.01,2013-11-24 06:51:00,
2013-11-24 01:52:00,59.2,59.2,30.00,North,5,10.0,11.0,100,0.00,,OVC055,0.00,VWS V14.01,2013-11-24 06:52:00,
2013-11-24 01:53:00,59.2,59.2,30.00,North,5,10.0,11.0,100,0.00,,OVC012,0.00,VWS V14.01,2013-11-24 06:53:00,
2013-11-24 01:54:00,59.2,59.2,30.05,North,5,3.0,10.0,100,0.00,,OVC012,0.00,VWS V14.01,2013-11-24 06:54:00,
2013-11-24 01:55:00,59.2,59.2,30.05,North,349,4.0,6.0,100,0.00,,OVC012,0.00,VWS V14.01,2013-11-24 06:55:00,
2013-11-24 01:56:00,59.2,59.2,29.95,NNW,331,4.0,7.0,100,0.00,,OVC012,0.00,VWS V14.01,2013-11-24 06:56:00,
2013-11-24 01:57:00,59.2,59.2,29.95,NNW,341,2.0,5.0,100,0.00,,OVC055,0.00,VWS V14.01,2013-11-24 06:57:00,
2013-11-24 01:58:00,59.2,59.2,29.95,NNW,341,2.0,5.0,100,0.00,,OVC012,0.00,VWS V14.01,2013-11-24 06:58:00,
2013-11-24 01:59:00,59.2,59.2,29.95,NNW,344,2.0,4.0,100,0.00,,OVC012,0.00,VWS V14.01,2013-11-24 06:59:00,
2013-11-24 02:00:00,59.2,59.2,29.95,North,351,6.0,6.0,100,0.00,,OVC012,0.00,VWS V14.01,2013-11-24 07:00:00,
2013-11-24 02:01:00,59.2,59.2,29.95,North,355,3.0,6.0,100,0.00,,OVC012,0.00,VWS V14.01,2013-11-24 07:01:00,
2013-11-24 02:02:00,59.2,59.2,29.95,NW,311,7.0,12.0,100,0.00,,OVC055,0.00,VWS V14.01,2013-11-24 07:02:00,
2013-11-24 02:03:00,59.2,59.2,29.95,NW,311,7.0,12.0,100,0.00,,OVC012,0.00,VWS V14.01,2013-11-24 07:03:00,
2013-11-24 02:04:00,59.2,59.2,29.95,NNE,15,12.0,12.0,100,0.00,,OVC012,0.00,VWS V14.01,2013-11-24 07:04:00,
2013-11-24 02:05:00,59.0,59.0,29.95,NNE,13,4.0,12.0,100,0.00,,OVC012,0.00,VWS V14.01,2013-11-24 07:05:00,
2013-11-24 02:06:00,59.0,59.0,29.95,NE,53,5.0,10.0,100,0.00,,OVC012,0.00,VWS V14.01,2013-11-24 07:06:00,
2013-11-24 02:07:00,58.9,58.9,29.95,WNW,296,5.0,7.0,100,0.00,,OVC055,0.00,VWS V14.01,2013-11-24 07:07:00,
2013-11-24 02:08:00,58.9,58.9,29.95,WNW,296,5.0,7.0,100,0.00,,OVC012,0.00,VWS V14.01,2013-11-24 07:08:00,
2013-11-24 02:09:00,58.9,58.9,29.95,NNE,30,9.0,10.0,100,0.00,,OVC012,0.00,VWS V14.01,2013-11-24 07:09:00,
2013-11-24 02:10:00,58.9,58.9,29.95,NE,42,10.0,10.0,100,0.00,,OVC012,0.00,VWS V14.01,2013-11-24 07:10:00,
2013-11-24 02:11:00,58.7,58.7,29.95,NNW,343,4.0,10.0,100,0.00,,OVC012,0.00,VWS V14.01,2013-11-24 07:11:00,
2013-11-24 02:12:00,58.6,58.6,29.75,North,5,10.0,14.0,100,0.00,,OVC055,0.00,VWS V14.01,2013-11-24 07:12:00,
2013-11-24 02:13:00,58.6,58.6,29.75,North,5,10.0,14.0,100,0.00,,OVC012,0.00,VWS V14.01,2013-11-24 07:13:00,
2013-11-24 02:14:00,58.4,58.4,29.75,NNW,331,7.0,13.0,100,0.00,,OVC012,0.00,VWS V14.01,2013-11-24 07:14:00,
2013-11-24 02:15:00,58.3,58.3,29.75,North,351,9.0,10.0,100,0.00,,OVC012,0.00,VWS V14.01,2013-11-24 07:15:00,
2013-11-24 02:16:00,58.1,58.1,29.75,NNW,335,7.0,11.0,100,0.00,,OVC012,0.00,VWS V14.01,2013-11-24 07:16:00,
2013-11-24 02:17:00,57.2,57.2,29.75,North,10,10.0,15.0,100,0.00,,OVC055,0.00,VWS V14.01,2013-11-24 07:17:00,
2013-11-24 02:18:00,57.2,57.2,29.75,North,10,10.0,15.0,100,0.00,,OVC012,0.00,VWS V14.01,2013-11-24 07:18:00,
2013-11-24 02:19:00,57.0,57.0,29.75,North,10,6.0,11.0,100,0.00,,OVC012,0.00,VWS V14.01,2013-11-24 07:19:00,
2013-11-24 02:20:00,56.9,56.9,29.75,NNE,13,11.0,11.0,100,0.00,,OVC012,0.00,VWS V14.01,2013-11-24 07:20:00,
2013-11-24 02:21:00,56.7,56.7,29.75,NNW,327,4.0,13.0,100,0.00,,OVC012,0.00,VWS V14.01,2013-11-24 07:21:00,
2013-11-24 02:22:00,56.5,56.5,29.75,NNW,341,7.0,11.0,100,0.00,,OVC055,0.00,VWS V14.01,2013-11-24 07:22:00,
2013-11-24 02:23:00,56.5,56.5,29.75,NNW,341,7.0,11.0,100,0.00,,OVC012,0.00,VWS V14.01,2013-11-24 07:23:00,
2013-11-24 02:24:00,56.5,56.5,29.58,NNE,14,6.0,7.0,100,0.00,,OVC012,0.00,VWS V14.01,2013-11-24 07:24:00,
2013-11-24 02:25:00,56.3,56.3,29.58,ENE,60,5.0,7.0,100,0.00,,OVC012,0.00,VWS V14.01,2013-11-24 07:25:00,
2013-11-24 02:26:00,56.3,56.3,29.58,North,10,6.0,9.0,100,0.00,,OVC012,0.00,VWS V14.01,2013-11-24 07:26:00,
2013-11-24 02:27:00,56.3,56.3,29.58,NE,49,4.0,9.0,100,0.00,,OVC055,0.00,VWS V14.01,2013-11-24 07:27:00,
2013-11-24 02:28:00,56.3,56.3,29.58,NE,49,4.0,9.0,100,0.00,,OVC012,0.00,VWS V14.01,2013-11-24 07:28:00,
2013-11-24 02:29:00,56.3,56.3,29.58,NE,36,5.0,7.0,100,0.00,,OVC012,0.00,VWS V14.01,2013-11-24 07:29:00,
2013-11-24 02:30:00,56.3,56.3,29.58,NNE,18,9.0,13.0,100,0.00,,OVC012,0.00,VWS V14.01,2013-11-24 07:30:00,
2013-11-24 02:31:00,56.3,56.3,29.58,NNE,19,10.0,10.0,100,0.00,,OVC012,0.00,VWS V14.01,2013-11-24 07:31:00,
2013-11-24 02:32:00,56.2,56.2,29.58,NE,49,14.0,14.0,100,0.00,,OVC055,0.00,VWS V14.01,2013-11-24 07:32:00,
2013-11-24 02:33:00,56.2,56.2,29.58,NE,49,14.0,14.0,100,0.00,,OVC012,0.00,VWS V14.01,2013-11-24 07:33:00,
2013-11-24 02:34:00,56.2,56.2,29.58,North,360,4.0,14.0,100,0.00,,OVC012,0.00,VWS V14.01,2013-11-24 07:34:00,
2013-11-24 02:35:00,56.2,56.2,29.58,NNE,29,5.0,10.0,100,0.00,,OVC012,0.00,VWS V14.01,2013-11-24 07:35:00,
2013-11-24 02:36:00,56.2,56.2,29.58,NNE,13,10.0,10.0,100,0.00,,OVC012,0.00,VWS V14.01,2013-11-24 07:36:00,
2013-11-24 02:37:00,56.0,56.0,29.58,NE,37,13.0,13.0,100,0.00,,SCT055,0.00,VWS V14.01,2013-11-24 07:37:00,
2013-11-24 02:38:00,56.0,56.0,29.58,NE,37,13.0,13.0,100,0.00,,OVC012,0.00,VWS V14.01,2013-11-24 07:38:00,
2013-11-24 02:39:00,56.0,56.0,29.58,NNW,340,8.0,13.0,100,0.00,,OVC012,0.00,VWS V14.01,2013-11-24 07:39:00,
2013-11-24 02:40:00,56.0,56.0,29.58,NE,53,7.0,9.0,100,0.00,,OVC012,0.00,VWS V14.01,2013-11-24 07:40:00,
2013-11-24 02:41:00,55.9,55.9,29.58,ENE,62,6.0,11.0,100,0.00,,OVC012,0.00,VWS V14.01,2013-11-24 07:41:00,
2013-11-24 02:42:00,55.9,55.9,29.58,NNW,342,6.0,9.0,100,0.00,,SCT055,0.00,VWS V14.01,2013-11-24 07:42:00,
2013-11-24 02:43:00,55.9,55.9,29.58,NNW,342,6.0,9.0,100,0.00,,OVC012,0.00,VWS V14.01,2013-11-24 07:43:00,
2013-11-24 02:44:00,55.7,55.7,29.58,NNE,27,3.0,6.0,100,0.00,,OVC012,0.00,VWS V14.01,2013-11-24 07:44:00,
2013-11-24 02:45:00,55.7,55.7,29.58,West,279,10.0,10.0,100,0.00,,OVC012,0.00,VWS V14.01,2013-11-24 07:45:00,
2013-11-24 02:46:00,55.6,55.6,29.58,NE,41,13.0,15.0,100,0.00,,OVC012,0.00,VWS V14.01,2013-11-24 07:46:00,
2013-11-24 02:47:00,55.4,55.4,29.58,North,350,9.0,9.0,100,0.00,,SCT055,0.00,VWS V14.01,2013-11-24 07:47:00,
2013-11-24 02:48:00,55.4,55.4,29.58,North,350,9.0,9.0,100,0.00,,OVC012,0.00,VWS V14.01,2013-11-24 07:48:00,
2013-11-24 02:49:00,55.4,55.4,29.58,NNE,14,5.0,12.0,100,0.00,,OVC012,0.00,VWS V14.01,2013-11-24 07:49:00,
2013-11-24 02:50:00,55.4,55.4,30.01,North,5,9.0,9.0,100,0.00,,OVC012,0.00,VWS V14.01,2013-11-24 07:50:00,
2013-11-24 02:51:00,55.4,55.4,30.01,NNW,327,9.0,9.0,100,0.00,,OVC012,0.00,VWS V14.01,2013-11-24 07:51:00,
2013-11-24 02:52:00,55.3,55.3,30.05,NNE,13,4.0,9.0,100,0.00,,SCT055,0.00,VWS V14.01,2013-11-24 07:52:00,
2013-11-24 02:53:00,55.3,55.3,30.05,NNE,13,4.0,9.0,100,0.00,,OVC012,0.00,VWS V14.01,2013-11-24 07:53:00,
2013-11-24 02:54:00,55.3,55.3,30.05,NW,317,11.0,11.0,100,0.00,,OVC012,0.00,VWS V14.01,2013-11-24 07:54:00,
2013-11-24 02:55:00,55.3,55.3,30.05,NNE,28,10.0,11.0,100,0.00,,OVC012,0.00,VWS V14.01,2013-11-24 07:55:00,
2013-11-24 02:56:00,55.1,55.1,30.05,North,9,8.0,10.0,100,0.00,,OVC012,0.00,VWS V14.01,2013-11-24 07:56:00,
2013-11-24 02:57:00,55.1,55.1,30.05,NNW,342,7.0,15.0,100,0.00,,SCT055,0.00,VWS V14.01,2013-11-24 07:57:00,
2013-11-24 02:58:00,55.0,55.0,30.05,NE,52,9.0,15.0,100,0.00,,OVC012,0.00,VWS V14.01,2013-11-24 07:58:00,
2013-11-24 02:59:00,55.0,55.0,30.05,NNE,32,4.0,12.0,100,0.00,,OVC012,0.00,VWS V14.01,2013-11-24 07:59:00,
2013-11-24 03:00:00,55.0,55.0,30.05,WNW,300,8.0,13.0,100,0.00,,OVC012,0.00,VWS V14.01,2013-11-24 08:00:00,
2013-11-24 03:01:00,54.8,54.8,30.05,NW,319,15.0,15.0,100,0.00,,OVC012,0.00,VWS V14.01,2013-11-24 08:01:00,
2013-11-24 03:02:00,54.7,54.7,30.02,ENE,57,15.0,15.0,100,0.00,,SCT055,0.00,VWS V14.01,2013-11-24 08:02:00,
2013-11-24 03:03:00,54.7,54.7,30.02,North,355,9.0,15.0,100,0.00,,OVC012,0.00,VWS V14.01,2013-11-24 08:03:00,
2013-11-24 03:04:00,54.7,54.7,30.00,NE,37,4.0,9.0,100,0.00,,OVC012,0.00,VWS V14.01,2013-11-24 08:04:00,
2013-11-24 03:05:00,54.7,54.7,30.00,NE,36,6.0,10.0,100,0.00,,OVC012,0.00,VWS V14.01,2013-11-24 08:05:00,
2013-11-24 03:06:00,54.5,54.5,30.00,North,355,8.0,9.0,100,0.00,,OVC012,0.00,VWS V14.01,2013-11-24 08:06:00,
2013-11-24 03:07:00,54.5,54.5,30.00,North,355,10.0,10.0,100,0.00,,SCT055,0.00,VWS V14.01,2013-11-24 08:07:00,
2013-11-24 03:08:00,54.5,54.5,30.00,NE,38,5.0,10.0,100,0.00,,OVC012,0.00,VWS V14.01,2013-11-24 08:08:00,
2013-11-24 03:09:00,54.5,54.5,30.00,NE,34,3.0,5.0,100,0.00,,OVC012,0.00,VWS V14.01,2013-11-24 08:09:00,
2013-11-24 03:10:00,54.4,54.4,30.00,NE,53,4.0,9.0,100,0.00,,OVC012,0.00,VWS V14.01,2013-11-24 08:10:00,
2013-11-24 03:11:00,54.4,54.4,30.00,NE,50,10.0,10.0,100,0.00,,OVC012,0.00,VWS V14.01,2013-11-24 08:11:00,
2013-11-24 03:12:00,54.2,54.2,30.00,NNW,339,7.0,9.0,100,0.00,,SCT055,0.00,VWS V14.01,2013-11-24 08:12:00,
2013-11-24 03:13:00,54.2,54.2,30.00,NNE,20,5.0,9.0,100,0.00,,OVC012,0.00,VWS V14.01,2013-11-24 08:13:00,
2013-11-24 03:14:00,54.2,54.2,30.00,NE,42,6.0,6.0,100,0.00,,OVC012,0.00,VWS V14.01,2013-11-24 08:14:00,
2013-11-24 03:15:00,54.2,54.2,30.00,NE,40,10.0,11.0,100,0.00,,OVC012,0.00,VWS V14.01,2013-11-24 08:15:00,
2013-11-24 03:16:00,54.1,54.1,30.13,NE,40,2.0,10.0,100,0.00,,OVC012,0.00,VWS V14.01,2013-11-24 08:16:00,
2013-11-24 03:17:00,54.1,54.1,30.11,North,360,5.0,10.0,100,0.00,,SCT055,0.00,VWS V14.01,2013-11-24 08:17:00,
2013-11-24 03:18:00,54.1,54.1,30.11,North,360,5.0,10.0,100,0.00,,OVC012,0.00,VWS V14.01,2013-11-24 08:18:00,
2013-11-24 03:19:00,54.1,54.1,30.10,NNE,30,3.0,13.0,100,0.00,,OVC012,0.00,VWS V14.01,2013-11-24 08:19:00,
2013-11-24 03:20:00,53.9,53.9,30.10,North,360,2.0,13.0,100,0.00,,OVC012,0.00,VWS V14.01,2013-11-24 08:20:00,
2013-11-24 03:21:00,53.9,53.9,30.10,North,360,0.0,2.0,100,0.00,,OVC012,0.00,VWS V14.01,2013-11-24 08:21:00,
2013-11-24 03:22:00,53.8,53.8,30.07,NNE,19,10.0,11.0,100,0.00,,SCT055,0.00,VWS V14.01,2013-11-24 08:22:00,
2013-11-24 03:23:00,53.8,53.8,30.07,NNE,19,10.0,11.0,100,0.00,,OVC012,0.00,VWS V14.01,2013-11-24 08:23:00,
2013-11-24 03:24:00,53.8,53.8,30.07,NNE,33,4.0,10.0,100,0.00,,OVC012,0.00,VWS V14.01,2013-11-24 08:24:00,
2013-11-24 03:25:00,53.6,53.6,30.07,NE,38,5.0,10.0,100,0.00,,OVC012,0.00,VWS V14.01,2013-11-24 08:25:00,
2013-11-24 03:26:00,53.6,53.6,30.07,North,5,2.0,10.0,100,0.00,,OVC012,0.00,VWS V14.01,2013-11-24 08:26:00,
2013-11-24 03:27:00,53.5,53.5,30.07,NE,41,6.0,11.0,100,0.00,,SCT055,0.00,VWS V14.01,2013-11-24 08:27:00,
2013-11-24 03:28:00,53.5,53.5,30.07,NNE,29,5.0,11.0,100,0.00,,OVC012,0.00,VWS V14.01,2013-11-24 08:28:00,
2013-11-24 03:29:00,53.5,53.5,30.03,WNW,302,10.0,10.0,100,0.00,,OVC012,0.00,VWS V14.01,2013-11-24 08:29:00,
2013-11-24 03:30:00,53.5,53.5,30.06,North,5,9.0,10.0,100,0.00,,OVC012,0.00,VWS V14.01,2013-11-24 08:30:00,
2013-11-24 03:31:00,53.3,53.3,30.03,North,355,3.0,9.0,100,0.00,,OVC012,0.00,VWS V14.01,2013-11-24 08:31:00,
2013-11-24 03:32:00,53.3,53.3,30.03,NW,323,10.0,10.0,100,0.00,,SCT055,0.00,VWS V14.01,2013-11-24 08:32:00,
2013-11-24 03:33:00,53.3,53.3,30.03,NNW,347,10.0,10.0,100,0.00,,OVC012,0.00,VWS V14.01,2013-11-24 08:33:00,
2013-11-24 03:34:00,53.3,53.3,30.10,NNE,12,10.0,10.0,100,0.00,,OVC012,0.00,VWS V14.01,2013-11-24 08:34:00,
2013-11-24 03:35:00,53.3,53.3,30.10,NE,47,12.0,12.0,100,0.00,,OVC012,0.00,VWS V14.01,2013-11-24 08:35:00,
2013-11-24 03:36:00,53.2,53.2,30.10,NNW,344,14.0,14.0,100,0.00,,OVC012,0.00,VWS V14.01,2013-11-24 08:36:00,
2013-11-24 03:37:00,53.2,53.2,30.10,NNE,22,7.0,11.0,100,0.00,,BKN042,0.00,VWS V14.01,2013-11-24 08:37:00,
2013-11-24 03:38:00,53.2,53.2,30.10,NNW,332,10.0,11.0,100,0.00,,OVC012,0.00,VWS V14.01,2013-11-24 08:38:00,
2013-11-24 03:39:00,53.2,53.2,30.10,NNW,348,6.0,12.0,100,0.00,,OVC012,0.00,VWS V14.01,2013-11-24 08:39:00,
2013-11-24 03:40:00,53.2,53.2,30.10,NE,56,9.0,12.0,100,0.00,,OVC012,0.00,VWS V14.01,2013-11-24 08:40:00,
2013-11-24 03:41:00,53.2,53.2,30.10,NNW,340,9.0,17.0,100,0.00,,OVC012,0.00,VWS V14.01,2013-11-24 08:41:00,
2013-11-24 03:42:00,53.2,53.2,30.10,ESE,106,5.0,10.0,100,0.00,,BKN042,0.00,VWS V14.01,2013-11-24 08:42:00,
2013-11-24 03:43:00,53.2,53.2,30.10,ESE,106,5.0,10.0,100,0.00,,OVC012,0.00,VWS V14.01,2013-11-24 08:43:00,
2013-11-24 03:44:00,53.1,53.1,30.07,NNW,346,7.0,8.0,100,0.00,,OVC012,0.00,VWS V14.01,2013-11-24 08:44:00,
2013-11-24 03:45:00,53.1,53.1,30.07,NE,53,10.0,10.0,100,0.00,,OVC012,0.00,VWS V14.01,2013-11-24 08:45:00,
2013-11-24 03:46:00,53.1,53.1,30.07,NE,51,6.0,17.0,100,0.00,,OVC012,0.00,VWS V14.01,2013-11-24 08:46:00,
2013-11-24 03:47:00,52.9,52.9,30.07,North,5,4.0,9.0,100,0.00,,BKN042,0.00,VWS V14.01,2013-11-24 08:47:00,
2013-11-24 03:48:00,52.9,52.9,30.07,North,5,4.0,9.0,100,0.00,,OVC012,0.00,VWS V14.01,2013-11-24 08:48:00,
2013-11-24 03:49:00,52.9,52.9,30.07,NNW,338,10.0,10.0,100,0.00,,OVC012,0.00,VWS V14.01,2013-11-24 08:49:00,
2013-11-24 03:50:00,52.9,52.9,30.07,East,87,5.0,12.0,100,0.00,,OVC012,0.00,VWS V14.01,2013-11-24 08:50:00,
2013-11-24 03:51:00,52.9,52.9,30.07,NNE,26,6.0,11.0,100,0.00,,OVC012,0.00,VWS V14.01,2013-11-24 08:51:00,
2013-11-24 03:52:00,52.8,52.8,30.07,NNE,18,11.0,11.0,100,0.00,,BKN042,0.00,VWS V14.01,2013-11-24 08:52:00,
2013-11-24 03:53:00,52.8,52.8,30.07,NNE,18,11.0,11.0,100,0.00,,OVC012,0.00,VWS V14.01,2013-11-24 08:53:00,
2013-11-24 03:54:00,52.8,52.8,30.14,NW,316,6.0,11.0,100,0.00,,OVC012,0.00,VWS V14.01,2013-11-24 08:54:00,
2013-11-24 03:55:00,52.6,52.6,30.14,WNW,296,6.0,12.0,100,0.00,,OVC012,0.00,VWS V14.01,2013-11-24 08:55:00,
2013-11-24 03:56:00,52.6,52.6,30.07,ENE,61,10.0,12.0,100,0.00,,OVC012,0.00,VWS V14.01,2013-11-24 08:56:00,
2013-11-24 03:57:00,52.6,52.6,30.07,NNW,333,11.0,11.0,100,0.00,,BKN042,0.00,VWS V14.01,2013-11-24 08:57:00,
2013-11-24 03:58:00,52.6,52.6,30.07,NNW,333,11.0,11.0,100,0.00,,OVC012,0.00,VWS V14.01,2013-11-24 08:58:00,
2013-11-24 03:59:00,52.6,52.6,30.07,NNW,346,7.0,11.0,100,0.00,,OVC012,0.00,VWS V14.01,2013-11-24 08:59:00,
2013-11-24 04:00:00,52.5,52.5,30.07,NNW,330,5.0,7.0,100,0.00,,OVC012,0.00,VWS V14.01,2013-11-24 09:00:00,
2013-11-24 04:01:00,52.5,52.5,30.07,NNE,32,5.0,10.0,100,0.00,,OVC012,0.00,VWS V14.01,2013-11-24 09:01:00,
2013-11-24 04:02:00,52.5,52.5,30.07,ENE,65,4.0,6.0,100,0.00,,BKN042,0.00,VWS V14.01,2013-11-24 09:02:00,
2013-11-24 04:03:00,52.5,52.5,30.07,ENE,65,2.0,6.0,100,0.00,,OVC012,0.00,VWS V14.01,2013-11-24 09:03:00,
2013-11-24 04:04:00,52.3,52.3,29.97,NNW,327,5.0,12.0,100,0.00,,OVC012,0.00,VWS V14.01,2013-11-24 09:04:00,
2013-11-24 04:05:00,52.3,52.3,29.97,WNW,282,9.0,11.0,100,0.00,,OVC012,0.00,VWS V14.01,2013-11-24 09:05:00,
2013-11-24 04:06:00,52.2,52.2,29.97,NNW,341,6.0,14.0,100,0.00,,OVC012,0.00,VWS V14.01,2013-11-24 09:06:00,
2013-11-24 04:07:00,52.0,52.0,30.01,NE,50,7.0,7.0,100,0.00,,BKN042,0.00,VWS V14.01,2013-11-24 09:07:00,
2013-11-24 04:08:00,52.0,52.0,30.01,NW,320,7.0,7.0,100,0.00,,OVC012,0.00,VWS V14.01,2013-11-24 09:08:00,
2013-11-24 04:09:00,52.0,52.0,30.01,NNW,337,12.0,13.0,100,0.00,,OVC012,0.00,VWS V14.01,2013-11-24 09:09:00,
2013-11-24 04:10:00,51.9,51.9,30.05,NNW,335,7.0,12.0,100,0.00,,OVC012,0.00,VWS V14.01,2013-11-24 09:10:00,
2013-11-24 04:11:00,51.9,51.9,30.05,North,5,9.0,10.0,100,0.00,,OVC012,0.00,VWS V14.01,2013-11-24 09:11:00,
2013-11-24 04:12:00,51.9,51.9,30.12,NE,34,9.0,11.0,100,0.00,,BKN042,0.00,VWS V14.01,2013-11-24 09:12:00,
2013-11-24 04:13:00,51.7,51.7,30.12,NE,34,6.0,11.0,100,0.00,,OVC012,0.00,VWS V14.01,2013-11-24 09:13:00,
2013-11-24 04:14:00,51.7,51.7,30.12,ENE,62,5.0,11.0,100,0.00,,OVC012,0.00,VWS V14.01,2013-11-24 09:14:00,
2013-11-24 04:15:00,51.7,51.7,30.12,NNW,342,4.0,8.0,100,0.00,,OVC012,0.00,VWS V14.01,2013-11-24 09:15:00,
2013-11-24 04:16:00,51.7,51.7,30.07,NNW,338,8.0,11.0,100,0.00,,OVC012,0.00,VWS V14.01,2013-11-24 09:16:00,
2013-11-24 04:17:00,51.6,51.6,30.08,NNW,338,7.0,11.0,100,0.00,,BKN042,0.00,VWS V14.01,2013-11-24 09:17:00,
2013-11-24 04:18:00,51.6,51.6,30.08,North,355,4.0,11.0,100,0.00,,OVC012,0.00,VWS V14.01,2013-11-24 09:18:00,
2013-11-24 04:19:00,51.6,51.6,30.08,NE,42,4.0,9.0,100,0.00,,OVC012,0.00,VWS V14.01,2013-11-24 09:19:00,
2013-11-24 04:20:00,51.6,51.6,30.11,NE,38,12.0,12.0,100,0.00,,OVC012,0.00,VWS V14.01,2013-11-24 09:20:00,
2013-11-24 04:21:00,51.4,51.4,30.12,North,10,6.0,18.0,100,0.00,,OVC012,0.00,VWS V14.01,2013-11-24 09:21:00,
2013-11-24 04:22:00,51.4,51.4,30.12,North,355,4.0,6.0,100,0.00,,BKN042,0.00,VWS V14.01,2013-11-24 09:22:00,
2013-11-24 04:23:00,51.4,51.4,30.12,NNW,348,5.0,6.0,100,0.00,,OVC012,0.00,VWS V14.01,2013-11-24 09:23:00,
2013-11-24 04:24:00,51.4,51.4,30.12,NNE,13,9.0,12.0,100,0.00,,OVC012,0.00,VWS V14.01,2013-11-24 09:24:00,
2013-11-24 04:25:00,51.3,51.3,30.04,NE,48,8.0,10.0,100,0.00,,OVC012,0.00,VWS V14.01,2013-11-24 09:25:00,
2013-11-24 04:26:00,51.3,51.3,30.04,NE,53,3.0,8.0,100,0.00,,OVC012,0.00,VWS V14.01,2013-11-24 09:26:00,
2013-11-24 04:27:00,51.3,51.3,30.04,NW,306,13.0,13.0,100,0.00,,BKN042,0.00,VWS V14.01,2013-11-24 09:27:00,
2013-11-24 04:28:00,51.1,51.1,30.16,NNE,20,7.0,13.0,100,0.00,,OVC012,0.00,VWS V14.01,2013-11-24 09:28:00,
2013-11-24 04:29:00,51.1,51.1,30.16,North,5,2.0,7.0,100,0.00,,OVC012,0.00,VWS V14.01,2013-11-24 09:29:00,
2013-11-24 04:30:00,51.1,51.1,30.16,ENE,61,4.0,7.0,100,0.00,,OVC012,0.00,VWS V14.01,2013-11-24 09:30:00,
2013-11-24 04:31:00,51.0,51.0,30.14,NE,34,5.0,10.0,100,0.00,,OVC012,0.00,VWS V14.01,2013-11-24 09:31:00,
2013-11-24 04:32:00,51.0,51.0,30.14,NNW,340,6.0,6.0,100,0.00,,BKN042,0.00,VWS V14.01,2013-11-24 09:32:00,
2013-11-24 04:33:00,51.0,51.0,30.14,NNW,340,6.0,6.0,100,0.00,,OVC012,0.00,VWS V14.01,2013-11-24 09:33:00,
2013-11-24 04:34:00,50.8,50.8,30.16,NNE,13,7.0,10.0,100,0.00,,OVC012,0.00,VWS V14.01,2013-11-24 09:34:00,
2013-11-24 04:35:00,50.8,50.8,30.16,NNW,344,12.0,12.0,100,0.00,,OVC012,0.00,VWS V14.01,2013-11-24 09:35:00,
2013-11-24 04:36:00,50.8,50.8,30.16,NNW,331,6.0,12.0,100,0.00,,OVC012,0.00,VWS V14.01,2013-11-24 09:36:00,
2013-11-24 04:37:00,50.7,50.7,30.16,North,350,6.0,10.0,100,0.00,,CLR,0.00,VWS V14.01,2013-11-24 09:37:00,
2013-11-24 04:38:00,50.7,50.7,30.16,North,350,6.0,10.0,100,0.00,,OVC012,0.00,VWS V14.01,2013-11-24 09:38:00,
2013-11-24 04:39:00,50.7,50.7,30.16,NE,38,5.0,10.0,100,0.00,,OVC012,0.00,VWS V14.01,2013-11-24 09:39:00,
2013-11-24 04:40:00,50.7,50.7,29.98,NW,325,10.0,10.0,100,0.00,,OVC012,0.00,VWS V14.01,2013-11-24 09:40:00,
2013-11-24 04:41:00,50.5,50.5,29.98,NNE,31,6.0,12.0,100,0.00,,OVC012,0.00,VWS V14.01,2013-11-24 09:41:00,
2013-11-24 04:42:00,50.5,50.5,29.98,NE,53,4.0,12.0,100,0.00,,CLR,0.00,VWS V14.01,2013-11-24 09:42:00,
2013-11-24 04:43:00,50.5,50.5,29.98,NNE,24,2.0,12.0,100,0.00,,OVC012,0.00,VWS V14.01,2013-11-24 09:43:00,
2013-11-24 04:44:00,50.5,50.5,29.98,NE,35,2.0,6.0,100,0.00,,OVC012,0.00,VWS V14.01,2013-11-24 09:44:00,
2013-11-24 04:45:00,50.5,50.5,29.98,NNE,25,5.0,6.0,100,0.00,,OVC012,0.00,VWS V14.01,2013-11-24 09:45:00,
2013-11-24 04:46:00,50.5,50.5,29.98,NNE,17,5.0,9.0,100,0.00,,OVC012,0.00,VWS V14.01,2013-11-24 09:46:00,
2013-11-24 04:47:00,50.4,50.4,29.98,NE,34,5.0,7.0,100,0.00,,CLR,0.00,VWS V14.01,2013-11-24 09:47:00,
2013-11-24 04:48:00,50.4,50.4,29.98,North,360,6.0,7.0,100,0.00,,OVC012,0.00,VWS V14.01,2013-11-24 09:48:00,
2013-11-24 04:49:00,50.4,50.4,30.15,NE,49,4.0,7.0,100,0.00,,OVC012,0.00,VWS V14.01,2013-11-24 09:49:00,
2013-11-24 04:50:00,50.4,50.4,30.17,NE,34,4.0,10.0,100,0.00,,OVC012,0.00,VWS V14.01,2013-11-24 09:50:00,
2013-11-24 04:51:00,50.4,50.4,30.17,NNE,31,7.0,14.0,100,0.00,,OVC012,0.00,VWS V14.01,2013-11-24 09:51:00,
2013-11-24 04:52:00,50.2,50.2,30.17,NE,37,7.0,7.0,100,0.00,,CLR,0.00,VWS V14.01,2013-11-24 09:52:00,
2013-11-24 04:53:00,50.2,50.2,30.17,NNE,22,4.0,7.0,100,0.00,,OVC012,0.00,VWS V14.01,2013-11-24 09:53:00,
2013-11-24 04:54:00,50.2,50.2,30.17,NNE,13,4.0,5.0,100,0.00,,OVC012,0.00,VWS V14.01,2013-11-24 09:54:00,
2013-11-24 04:55:00,50.2,50.2,30.17,NW,315,6.0,6.0,100,0.00,,OVC012,0.00,VWS V14.01,2013-11-24 09:55:00,
2013-11-24 04:56:00,50.1,50.1,30.17,North,360,5.0,6.0,100,0.00,,OVC012,0.00,VWS V14.01,2013-11-24 09:56:00,
2013-11-24 04:57:00,49.9,49.9,30.11,North,360,5.0,6.0,100,0.00,,CLR,0.00,VWS V14.01,2013-11-24 09:57:00,
2013-11-24 04:58:00,49.9,49.9,30.11,NNW,327,10.0,10.0,100,0.00,,OVC012,0.00,VWS V14.01,2013-11-24 09:58:00,
2013-11-24 04:59:00,49.9,49.9,30.18,NNW,334,8.0,11.0,100,0.00,,OVC012,0.00,VWS V14.01,2013-11-24 09:59:00,
2013-11-24 05:00:00,49.8,49.8,30.18,North,355,12.0,12.0,100,0.00,,OVC012,0.00,VWS V14.01,2013-11-24 10:00:00,
2013-11-24 05:01:00,49.8,49.8,30.18,NNE,29,6.0,13.0,100,0.00,,OVC012,0.00,VWS V14.01,2013-11-24 10:01:00,
2013-11-24 05:02:00,49.6,49.6,30.18,NNW,331,9.0,15.0,100,0.00,,CLR,0.00,VWS V14.01,2013-11-24 10:02:00,
2013-11-24 05:03:00,49.6,49.6,30.18,North,355,5.0,15.0,100,0.00,,OVC012,0.00,VWS V14.01,2013-11-24 10:03:00,
2013-11-24 05:04:00,49.6,49.6,30.18,NNW,338,5.0,6.0,100,0.00,,OVC012,0.00,VWS V14.01,2013-11-24 10:04:00,
2013-11-24 05:05:00,49.5,49.5,30.18,NNW,333,11.0,15.0,100,0.00,,OVC012,0.00,VWS V14.01,2013-11-24 10:05:00,
2013-11-24 05:06:00,49.5,49.5,30.18,NNW,343,11.0,14.0,100,0.00,,OVC012,0.00,VWS V14.01,2013-11-24 10:06:00,
2013-11-24 05:07:00,49.2,49.2,30.18,NW,322,11.0,11.0,100,0.00,,CLR,0.00,VWS V14.01,2013-11-24 10:07:00,
2013-11-24 05:08:00,49.2,49.2,30.18,NW,322,11.0,11.0,100,0.00,,OVC012,0.00,VWS V14.01,2013-11-24 10:08:00,
2013-11-24 05:09:00,49.2,49.2,30.18,NW,307,13.0,13.0,100,0.00,,OVC012,0.00,VWS V14.01,2013-11-24 10:09:00,
2013-11-24 05:10:00,49.1,49.1,30.18,NNW,337,6.0,13.0,100,0.00,,OVC012,0.00,VWS V14.01,2013-11-24 10:10:00,
2013-11-24 05:11:00,49.1,49.1,30.14,NE,49,14.0,14.0,100,0.00,,OVC012,0.00,VWS V14.01,2013-11-24 10:11:00,
2013-11-24 05:12:00,48.9,48.9,30.14,NE,42,5.0,11.0,100,0.00,,CLR,0.00,VWS V14.01,2013-11-24 10:12:00,
2013-11-24 05:13:00,48.9,48.9,30.14,NNE,26,5.0,11.0,100,0.00,,OVC012,0.00,VWS V14.01,2013-11-24 10:13:00,
2013-11-24 05:14:00,48.9,48.9,30.14,NE,42,9.0,14.0,100,0.00,,OVC012,0.00,VWS V14.01,2013-11-24 10:14:00,
2013-11-24 05:15:00,48.8,48.8,30.04,NE,42,12.0,12.0,100,0.00,,OVC012,0.00,VWS V14.01,2013-11-24 10:15:00,
2013-11-24 05:16:00,48.8,48.8,30.04,North,355,5.0,16.0,100,0.00,,OVC012,0.00,VWS V14.01,2013-11-24 10:16:00,
2013-11-24 05:17:00,48.8,48.8,30.04,NNE,12,7.0,9.0,100,0.00,,CLR,0.00,VWS V14.01,2013-11-24 10:17:00,
2013-11-24 05:18:00,48.8,48.8,30.04,North,355,7.0,9.0,100,0.00,,OVC012,0.00,VWS V14.01,2013-11-24 10:18:00,
2013-11-24 05:19:00,48.6,48.6,30.04,NE,45,6.0,16.0,100,0.00,,OVC012,0.00,VWS V14.01,2013-11-24 10:19:00,
2013-11-24 05:20:00,48.6,48.6,30.04,NNE,22,5.0,11.0,100,0.00,,OVC012,0.00,VWS V14.01,2013-11-24 10:20:00,
2013-11-24 05:21:00,48.6,48.6,30.04,WNW,302,9.0,10.0,100,0.00,,OVC012,0.00,VWS V14.01,2013-11-24 10:21:00,
2013-11-24 05:22:00,48.5,48.5,30.19,NE,55,10.0,13.0,100,0.00,,CLR,0.00,VWS V14.01,2013-11-24 10:22:00,
2013-11-24 05:23:00,48.5,48.5,30.19,NNE,22,6.0,13.0,100,0.00,,OVC012,0.00,VWS V14.01,2013-11-24 10:23:00,
2013-11-24 05:24:00,48.5,48.5,30.19,NNE,26,7.0,7.0,100,0.00,,OVC012,0.00,VWS V14.01,2013-11-24 10:24:00,
2013-11-24 05:25:00,48.5,48.5,30.15,NE,52,5.0,16.0,100,0.00,,OVC012,0.00,VWS V14.01,2013-11-24 10:25:00,
2013-11-24 05:26:00,48.5,48.5,30.15,NNE,30,14.0,14.0,100,0.00,,OVC012,0.00,VWS V14.01,2013-11-24 10:26:00,
2013-11-24 05:27:00,48.3,48.3,30.20,NW,316,6.0,10.0,100,0.00,,CLR,0.00,VWS V14.01,2013-11-24 10:27:00,
2013-11-24 05:28:00,48.3,48.3,30.20,NW,324,6.0,10.0,100,0.00,,OVC012,0.00,VWS V14.01,2013-11-24 10:28:00,
2013-11-24 05:29:00,48.3,48.3,30.20,NNE,19,6.0,7.0,100,0.00,,OVC012,0.00,VWS V14.01,2013-11-24 10:29:00,
2013-11-24 05:30:00,48.2,48.2,30.20,NW,305,11.0,14.0,100,0.00,,OVC012,0.00,VWS V14.01,2013-11-24 10:30:00,
2013-11-24 05:31:00,48.2,48.2,30.20,North,355,15.0,15.0,100,0.00,,OVC012,0.00,VWS V14.01,2013-11-24 10:31:00,
2013-11-24 05:32:00,48.0,48.0,30.20,NNE,29,15.0,15.0,100,0.00,,CLR,0.00,VWS V14.01,2013-11-24 10:32:00,
2013-11-24 05:33:00,48.0,48.0,30.20,NNE,22,9.0,15.0,100,0.00,,OVC012,0.00,VWS V14.01,2013-11-24 10:33:00,
2013-11-24 05:34:00,48.0,48.0,30.21,NW,323,12.0,12.0,100,0.00,,OVC012,0.00,VWS V14.01,2013-11-24 10:34:00,
2013-11-24 05:35:00,47.9,47.9,30.21,NNE,26,11.0,15.0,100,0.00,,OVC012,0.00,VWS V14.01,2013-11-24 10:35:00,
2013-11-24 05:36:00,47.9,47.9,30.19,NE,51,8.0,16.0,100,0.00,,OVC012,0.00,VWS V14.01,2013-11-24 10:36:00,
2013-11-24 05:37:00,47.7,47.7,30.18,North,5,12.0,16.0,100,0.00,,CLR,0.00,VWS V14.01,2013-11-24 10:37:00,
2013-11-24 05:38:00,47.7,47.7,30.18,North,5,12.0,16.0,100,0.00,,OVC012,0.00,VWS V14.01,2013-11-24 10:38:00,
2013-11-24 05:39:00,47.7,47.7,30.18,North,355,6.0,12.0,100,0.00,,OVC012,0.00,VWS V14.01,2013-11-24 10:39:00,
2013-11-24 05:40:00,47.6,47.6,30.21,NW,321,10.0,10.0,100,0.00,,OVC012,0.00,VWS V14.01,2013-11-24 10:40:00,
2013-11-24 05:41:00,47.6,47.6,30.21,WNW,294,6.0,10.0,100,0.00,,OVC012,0.00,VWS V14.01,2013-11-24 10:41:00,
2013-11-24 05:42:00,47.4,47.4,30.21,NNE,31,5.0,16.0,100,0.00,,CLR,0.00,VWS V14.01,2013-11-24 10:42:00,
2013-11-24 05:43:00,47.4,47.4,30.21,NNE,31,5.0,16.0,100,0.00,,OVC012,0.00,VWS V14.01,2013-11-24 10:43:00,
2013-11-24 05:44:00,47.3,47.3,30.21,North,9,15.0,15.0,100,0.00,,OVC012,0.00,VWS V14.01,2013-11-24 10:44:00,
2013-11-24 05:45:00,47.3,47.3,30.21,North,5,17.0,17.0,100,0.00,,OVC012,0.00,VWS V14.01,2013-11-24 10:45:00,
2013-11-24 05:46:00,47.1,47.1,30.21,East,96,8.0,17.0,100,0.00,,OVC012,0.00,VWS V14.01,2013-11-24 10:46:00,
2013-11-24 05:47:00,47.1,47.1,30.21,NNE,15,11.0,11.0,100,0.00,,CLR,0.00,VWS V14.01,2013-11-24 10:47:00,
2013-11-24 05:48:00,47.1,47.1,30.21,ENE,63,10.0,11.0,100,0.00,,OVC012,0.00,VWS V14.01,2013-11-24 10:48:00,
2013-11-24 05:49:00,47.0,47.0,30.21,NNW,347,11.0,17.0,100,0.00,,OVC012,0.00,VWS V14.01,2013-11-24 10:49:00,
2013-11-24 05:50:00,47.0,47.0,30.09,NW,320,6.0,11.0,100,0.00,,OVC012,0.00,VWS V14.01,2013-11-24 10:50:00,
2013-11-24 05:51:00,47.0,47.0,30.09,NNE,28,11.0,11.0,100,0.00,,OVC012,0.00,VWS V14.01,2013-11-24 10:51:00,
2013-11-24 05:52:00,46.8,46.8,30.22,NNW,331,6.0,13.0,100,0.00,,CLR,0.00,VWS V14.01,2013-11-24 10:52:00,
2013-11-24 05:53:00,46.8,46.8,30.22,NE,40,11.0,13.0,100,0.00,,OVC012,0.00,VWS V14.01,2013-11-24 10:53:00,
2013-11-24 05:54:00,46.8,46.8,30.22,North,5,9.0,11.0,100,0.00,,OVC012,0.00,VWS V14.01,2013-11-24 10:54:00,
2013-11-24 05:55:00,46.8,46.8,30.22,NNW,343,5.0,13.0,100,0.00,,OVC012,0.00,VWS V14.01,2013-11-24 10:55:00,
2013-11-24 05:56:00,46.7,46.7,30.22,ENE,67,5.0,14.0,100,0.00,,OVC012,0.00,VWS V14.01,2013-11-24 10:56:00,
2013-11-24 05:57:00,46.7,46.7,30.22,NE,39,6.0,12.0,100,0.00,,CLR,0.00,VWS V14.01,2013-11-24 10:57:00,
2013-11-24 05:58:00,46.7,46.7,30.22,North,355,2.0,12.0,100,0.00,,OVC012,0.00,VWS V14.01,2013-11-24 10:58:00,
2013-11-24 05:59:00,46.7,46.7,30.22,North,360,13.0,13.0,100,0.00,,OVC012,0.00,VWS V14.01,2013-11-24 10:59:00,
2013-11-24 06:00:00,46.5,46.5,30.22,North,360,3.0,13.0,100,0.00,,OVC012,0.00,VWS V14.01,2013-11-24 11:00:00,
2013-11-24 06:01:00,46.5,46.5,30.22,NNW,328,11.0,11.0,100,0.00,,OVC012,0.00,VWS V14.01,2013-11-24 11:01:00,
2013-11-24 06:02:00,46.4,46.4,30.22,ENE,59,7.0,17.0,100,0.00,,CLR,0.00,VWS V14.01,2013-11-24 11:02:00,
2013-11-24 06:03:00,46.4,46.4,30.22,North,5,14.0,17.0,100,0.00,,OVC012,0.00,VWS V14.01,2013-11-24 11:03:00,
2013-11-24 06:04:00,46.4,46.4,30.22,NNE,31,10.0,14.0,100,0.00,,OVC012,0.00,VWS V14.01,2013-11-24 11:04:00,
2013-11-24 06:05:00,46.4,46.4,30.22,NW,309,12.0,14.0,100,0.00,,OVC012,0.00,VWS V14.01,2013-11-24 11:05:00,
2013-11-24 06:06:00,46.4,46.4,30.23,North,355,5.0,19.0,100,0.00,,OVC012,0.00,VWS V14.01,2013-11-24 11:06:00,
2013-11-24 06:07:00,46.4,46.4,30.23,ENE,76,6.0,14.0,100,0.00,,CLR,0.00,VWS V14.01,2013-11-24 11:07:00,
2013-11-24 06:08:00,46.4,46.4,30.23,NW,320,7.0,14.0,100,0.00,,OVC012,0.00,VWS V14.01,2013-11-24 11:08:00,
2013-11-24 06:09:00,46.4,46.4,30.23,NNE,16,14.0,14.0,100,0.00,,OVC012,0.00,VWS V14.01,2013-11-24 11:09:00,
2013-11-24 06:10:00,46.4,46.4,30.23,NE,49,10.0,14.0,100,0.00,,OVC012,0.00,VWS V14.01,2013-11-24 11:10:00,
2013-11-24 06:11:00,46.4,46.4,30.23,NW,315,9.0,14.0,100,0.00,,OVC012,0.00,VWS V14.01,2013-11-24 11:11:00,
2013-11-24 06:12:00,46.2,46.2,30.23,South,169,6.0,15.0,100,0.00,,CLR,0.00,VWS V14.01,2013-11-24 11:12:00,
2013-11-24 06:13:00,46.2,46.2,30.23,South,169,6.0,15.0,100,0.00,,OVC012,0.00,VWS V14.01,2013-11-24 11:13:00,
2013-11-24 06:14:00,46.2,46.2,30.23,NNE,12,15.0,15.0,100,0.00,,OVC012,0.00,VWS V14.01,2013-11-24 11:14:00,
2013-11-24 06:15:00,46.2,46.2,30.23,North,355,9.0,15.0,100,0.00,,OVC012,0.00,VWS V14.01,2013-11-24 11:15:00,
2013-11-24 06:16:00,46.2,46.2,30.23,NNW,344,10.0,15.0,100,0.00,,OVC012,0.00,VWS V14.01,2013-11-24 11:16:00,
2013-11-24 06:17:00,46.2,46.2,30.23,NE,50,8.0,14.0,100,0.00,,CLR,0.00,VWS V14.01,2013-11-24 11:17:00,
2013-11-24 06:18:00,46.2,46.2,30.23,NE,50,8.0,14.0,100,0.00,,OVC012,0.00,VWS V14.01,2013-11-24 11:18:00,
2013-11-24 06:19:00,46.2,46.2,30.23,NE,53,4.0,8.0,100,0.00,,OVC012,0.00,VWS V14.01,2013-11-24 11:19:00,
2013-11-24 06:20:00,46.2,46.2,30.23,NE,46,13.0,16.0,100,0.00,,OVC012,0.00,VWS V14.01,2013-11-24 11:20:00,
2013-11-24 06:21:00,46.1,46.1,30.23,ENE,61,15.0,15.0,100,0.00,,OVC012,0.00,VWS V14.01,2013-11-24 11:21:00,
2013-11-24 06:22:00,46.1,46.1,30.23,NNE,32,7.0,14.0,100,0.00,,CLR,0.00,VWS V14.01,2013-11-24 11:22:00,
2013-11-24 06:23:00,46.1,46.1,30.23,North,10,6.0,14.0,100,0.00,,OVC012,0.00,VWS V14.01,2013-11-24 11:23:00,
2013-11-24 06:24:00,46.1,46.1,30.23,NE,52,4.0,11.0,100,0.00,,OVC012,0.00,VWS V14.01,2013-11-24 11:24:00,
2013-11-24 06:25:00,46.1,46.1,30.24,NNW,348,17.0,17.0,100,0.00,,OVC012,0.00,VWS V14.01,2013-11-24 11:25:00,
2013-11-24 06:26:00,46.1,46.1,30.23,ENE,66,7.0,17.0,100,0.00,,OVC012,0.00,VWS V14.01,2013-11-24 11:26:00,
2013-11-24 06:27:00,46.1,46.1,30.23,NE,44,4.0,16.0,100,0.00,,CLR,0.00,VWS V14.01,2013-11-24 11:27:00,
2013-11-24 06:28:00,46.1,46.1,30.23,NNE,20,6.0,16.0,100,0.00,,OVC012,0.00,VWS V14.01,2013-11-24 11:28:00,
2013-11-24 06:29:00,46.1,46.1,30.24,NNE,28,10.0,12.0,100,0.00,,OVC012,0.00,VWS V14.01,2013-11-24 11:29:00,
2013-11-24 06:30:00,46.1,46.1,30.24,NNW,348,4.0,13.0,100,0.00,,OVC012,0.00,VWS V14.01,2013-11-24 11:30:00,
2013-11-24 06:31:00,46.1,46.1,30.24,NNW,341,6.0,6.0,100,0.00,,OVC012,0.00,VWS V14.01,2013-11-24 11:31:00,
2013-11-24 06:32:00,46.0,46.0,30.24,NW,320,9.0,13.0,100,0.00,,CLR,0.00,VWS V14.01,2013-11-24 11:32:00,
2013-11-24 06:33:00,46.0,46.0,30.24,ENE,65,9.0,13.0,100,0.00,,OVC012,0.00,VWS V14.01,2013-11-24 11:33:00,
2013-11-24 06:34:00,46.0,46.0,30.24,NW,322,6.0,15.0,100,0.00,,OVC012,0.00,VWS V14.01,2013-11-24 11:34:00,
2013-11-24 06:35:00,46.0,46.0,30.24,NE,49,12.0,19.0,100,0.00,,OVC012,0.00,VWS V14.01,2013-11-24 11:35:00,
2013-11-24 06:36:00,46.0,46.0,30.24,NNE,32,4.0,12.0,100,0.00,,OVC012,0.00,VWS V14.01,2013-11-24 11:36:00,
2013-11-24 06:37:00,45.8,45.8,30.24,NE,38,10.0,12.0,100,0.00,,CLR,0.00,VWS V14.01,2013-11-24 11:37:00,
2013-11-24 06:38:00,45.8,45.8,30.24,NNW,337,5.0,12.0,100,0.00,,OVC012,0.00,VWS V14.01,2013-11-24 11:38:00,
2013-11-24 06:39:00,45.8,45.8,30.24,NNW,337,10.0,10.0,100,0.00,,OVC012,0.00,VWS V14.01,2013-11-24 11:39:00,
2013-11-24 06:40:00,45.8,45.8,30.24,North,11,4.0,12.0,100,0.00,,OVC012,0.00,VWS V14.01,2013-11-24 11:40:00,
2013-11-24 06:41:00,45.8,45.8,30.24,NNE,24,10.0,12.0,100,0.00,,OVC012,0.00,VWS V14.01,2013-11-24 11:41:00,
2013-11-24 06:42:00,45.7,45.7,30.24,North,355,6.0,12.0,100,0.00,,CLR,0.00,VWS V14.01,2013-11-24 11:42:00,
2013-11-24 06:43:00,45.7,45.7,30.24,North,355,13.0,13.0,100,0.00,,OVC012,0.00,VWS V14.01,2013-11-24 11:43:00,
2013-11-24 06:44:00,45.7,45.7,30.24,NNE,22,5.0,13.0,100,0.00,,OVC012,0.00,VWS V14.01,2013-11-24 11:44:00,
2013-11-24 06:45:00,45.7,45.7,30.24,NNE,15,5.0,11.0,100,0.00,,OVC012,0.00,VWS V14.01,2013-11-24 11:45:00,
2013-11-24 06:46:00,45.7,45.7,30.24,NNW,336,5.0,5.0,100,0.00,,OVC012,0.00,VWS V14.01,2013-11-24 11:46:00,
2013-11-24 06:47:00,45.5,45.5,30.25,NE,40,4.0,5.0,100,0.00,,CLR,0.00,VWS V14.01,2013-11-24 11:47:00,
2013-11-24 06:48:00,45.5,45.5,30.25,North,355,6.0,6.0,100,0.00,,OVC012,0.00,VWS V14.01,2013-11-24 11:48:00,
2013-11-24 06:49:00,45.5,45.5,30.25,NW,322,7.0,10.0,100,0.00,,OVC012,0.00,VWS V14.01,2013-11-24 11:49:00,
2013-11-24 06:50:00,45.5,45.5,30.25,NE,41,11.0,11.0,100,0.00,,OVC012,0.00,VWS V14.01,2013-11-24 11:50:00,
2013-11-24 06:51:00,45.5,45.5,30.25,NNE,28,3.0,11.0,100,0.00,,OVC012,0.00,VWS V14.01,2013-11-24 11:51:00,
2013-11-24 06:52:00,45.4,45.4,30.25,NNW,327,6.0,7.0,100,0.00,,CLR,0.00,VWS V14.01,2013-11-24 11:52:00,
2013-11-24 06:53:00,45.4,45.4,30.25,North,11,6.0,7.0,100,0.00,,OVC012,0.00,VWS V14.01,2013-11-24 11:53:00,
2013-11-24 06:54:00,45.4,45.4,30.25,NNW,336,5.0,9.0,100,0.00,,OVC012,0.00,VWS V14.01,2013-11-24 11:54:00,
2013-11-24 06:55:00,45.4,45.4,30.25,NNE,19,9.0,13.0,100,0.00,,OVC012,0.00,VWS V14.01,2013-11-24 11:55:00,
2013-11-24 06:56:00,45.4,45.4,30.25,NNE,24,9.0,9.0,100,0.00,,OVC012,0.00,VWS V14.01,2013-11-24 11:56:00,
2013-11-24 06:57:00,45.4,45.4,30.25,NNE,30,6.0,12.0,100,0.00,,CLR,0.00,VWS V14.01,2013-11-24 11:57:00,
2013-11-24 06:58:00,45.2,45.2,30.25,NNW,342,7.0,12.0,100,0.00,,OVC012,0.00,VWS V14.01,2013-11-24 11:58:00,
2013-11-24 06:59:00,45.2,45.2,30.25,North,360,7.0,7.0,100,0.00,,OVC012,0.00,VWS V14.01,2013-11-24 11:59:00,
2013-11-24 07:00:00,45.2,45.2,30.26,East,88,4.0,7.0,100,0.00,,OVC013,0.00,VWS V14.01,2013-11-24 12:00:00,
2013-11-24 07:01:00,45.2,45.2,30.26,East,88,4.0,4.0,100,0.00,,OVC013,0.00,VWS V14.01,2013-11-24 12:01:00,
2013-11-24 07:02:00,45.2,45.2,30.26,North,355,8.0,8.0,100,0.00,,CLR,0.00,VWS V14.01,2013-11-24 12:02:00,
2013-11-24 07:03:00,45.2,45.2,30.26,ENE,69,12.0,12.0,100,0.00,,OVC012,0.00,VWS V14.01,2013-11-24 12:03:00,
2013-11-24 07:04:00,45.2,45.2,30.26,NNE,15,4.0,15.0,100,0.00,,OVC012,0.00,VWS V14.01,2013-11-24 12:04:00,
2013-11-24 07:05:00,45.2,45.2,30.26,NW,319,12.0,12.0,100,0.00,,OVC012,0.00,VWS V14.01,2013-11-24 12:05:00,
2013-11-24 07:06:00,45.2,45.2,30.26,NE,55,10.0,12.0,100,0.00,,OVC012,0.00,VWS V14.01,2013-11-24 12:06:00,
2013-11-24 07:07:00,45.1,45.1,30.26,North,11,5.0,11.0,100,0.00,,CLR,0.00,VWS V14.01,2013-11-24 12:07:00,
2013-11-24 07:08:00,45.1,45.1,30.26,NNE,31,3.0,11.0,100,0.00,,OVC012,0.00,VWS V14.01,2013-11-24 12:08:00,
2013-11-24 07:09:00,45.1,45.1,30.26,NE,51,9.0,11.0,100,0.00,,OVC012,0.00,VWS V14.01,2013-11-24 12:09:00,
2013-11-24 07:10:00,45.1,45.1,30.26,NNW,348,3.0,9.0,100,0.00,,OVC012,0.00,VWS V14.01,2013-11-24 12:10:00,
2013-11-24 07:11:00,45.1,45.1,30.26,NE,51,7.0,7.0,100,0.00,,OVC012,0.00,VWS V14.01,2013-11-24 12:11:00,
2013-11-24 07:12:00,45.1,45.1,30.26,North,9,5.0,7.0,100,0.00,,CLR,0.00,VWS V14.01,2013-11-24 12:12:00,
2013-11-24 07:13:00,45.1,45.1,30.26,NNE,24,9.0,9.0,100,0.00,,OVC012,0.00,VWS V14.01,2013-11-24 12:13:00,
2013-11-24 07:14:00,45.1,45.1,30.26,North,9,10.0,10.0,100,0.00,,OVC012,0.00,VWS V14.01,2013-11-24 12:14:00,
2013-11-24 07:15:00,45.1,45.1,30.26,NNE,17,11.0,14.0,100,0.00,,OVC012,0.00,VWS V14.01,2013-11-24 12:15:00,
2013-11-24 07:16:00,45.1,45.1,30.27,NE,53,5.0,11.0,100,0.00,,OVC012,0.00,VWS V14.01,2013-11-24 12:16:00,
2013-11-24 07:17:00,45.1,45.1,30.27,North,5,9.0,9.0,100,0.00,,CLR,0.00,VWS V14.01,2013-11-24 12:17:00,
2013-11-24 07:18:00,45.1,45.1,30.27,North,350,11.0,11.0,100,0.00,,OVC012,0.00,VWS V14.01,2013-11-24 12:18:00,
2013-11-24 07:19:00,45.1,45.1,30.27,NNW,338,6.0,15.0,100,0.00,,OVC012,0.00,VWS V14.01,2013-11-24 12:19:00,
2013-11-24 07:20:00,45.1,45.1,30.27,NNW,346,7.0,11.0,100,0.00,,OVC012,0.00,VWS V14.01,2013-11-24 12:20:00,
2013-11-24 07:21:00,45.1,45.1,30.27,ENE,73,4.0,12.0,100,0.00,,OVC012,0.00,VWS V14.01,2013-11-24 12:21:00,
2013-11-24 07:22:00,45.1,45.1,30.27,NNW,327,4.0,13.0,100,0.00,,CLR,0.00,VWS V14.01,2013-11-24 12:22:00,
2013-11-24 07:23:00,45.1,45.1,30.27,NNW,338,11.0,13.0,100,0.00,,OVC012,0.00,VWS V14.01,2013-11-24 12:23:00,
2013-11-24 07:24:00,45.1,45.1,30.27,NW,321,14.0,14.0,100,0.00,,OVC012,0.00,VWS V14.01,2013-11-24 12:24:00,
2013-11-24 07:25:00,45.2,45.2,30.27,North,5,10.0,14.0,100,0.00,,OVC012,0.00,VWS V14.01,2013-11-24 12:25:00,
2013-11-24 07:26:00,45.2,45.2,30.27,ENE,59,6.0,10.0,100,0.00,,OVC012,0.00,VWS V14.01,2013-11-24 12:26:00,
2013-11-24 07:27:00,45.2,45.2,30.27,East,80,10.0,12.0,100,0.00,,CLR,0.00,VWS V14.01,2013-11-24 12:27:00,
2013-11-24 07:28:00,45.2,45.2,30.27,NNE,33,7.0,12.0,100,0.00,,OVC012,0.00,VWS V14.01,2013-11-24 12:28:00,
2013-11-24 07:29:00,45.2,45.2,30.27,NNW,339,12.0,15.0,100,0.00,,OVC012,0.00,VWS V14.01,2013-11-24 12:29:00,
2013-11-24 07:30:00,45.2,45.2,30.27,NNW,333,13.0,13.0,100,0.00,,OVC012,0.00,VWS V14.01,2013-11-24 12:30:00,
2013-11-24 07:31:00,45.1,45.1,30.27,NNW,327,11.0,14.0,100,0.00,,OVC012,0.00,VWS V14.01,2013-11-24 12:31:00,
2013-11-24 07:32:00,45.1,45.1,30.27,NNW,338,13.0,13.0,100,0.00,,CLR,0.00,VWS V14.01,2013-11-24 12:32:00,
2013-11-24 07:33:00,45.1,45.1,30.27,NNE,13,9.0,14.0,100,0.00,,OVC012,0.00,VWS V14.01,2013-11-24 12:33:00,
2013-11-24 07:34:00,45.1,45.1,30.27,East,84,9.0,9.0,100,0.00,,OVC012,0.00,VWS V14.01,2013-11-24 12:34:00,
2013-11-24 07:35:00,45.1,45.1,30.27,NNW,327,14.0,14.0,100,0.00,,OVC012,0.00,VWS V14.01,2013-11-24 12:35:00,
2013-11-24 07:36:00,45.1,45.1,30.27,NNW,336,11.0,14.0,100,0.00,,OVC012,0.00,VWS V14.01,2013-11-24 12:36:00,
2013-11-24 07:37:00,45.1,45.1,30.27,ENE,60,10.0,13.0,100,0.00,,CLR,0.00,VWS V14.01,2013-11-24 12:37:00,
2013-11-24 07:38:00,44.9,44.9,30.27,NNE,29,6.0,13.0,100,0.00,,OVC012,0.00,VWS V14.01,2013-11-24 12:38:00,
2013-11-24 07:39:00,44.9,44.9,30.27,North,355,10.0,10.0,100,0.00,,OVC012,0.00,VWS V14.01,2013-11-24 12:39:00,
2013-11-24 07:40:00,44.9,44.9,30.28,NW,325,7.0,12.0,100,0.00,,OVC012,0.00,VWS V14.01,2013-11-24 12:40:00,
2013-11-24 07:41:00,44.9,44.9,30.28,NNW,335,5.0,10.0,100,0.00,,OVC012,0.00,VWS V14.01,2013-11-24 12:41:00,
2013-11-24 07:42:00,44.9,44.9,30.28,NE,46,6.0,11.0,100,0.00,,CLR,0.00,VWS V14.01,2013-11-24 12:42:00,
2013-11-24 07:43:00,44.9,44.9,30.28,NE,49,13.0,13.0,100,0.00,,OVC012,0.00,VWS V14.01,2013-11-24 12:43:00,
2013-11-24 07:44:00,44.9,44.9,30.28,NW,321,4.0,13.0,100,0.00,,OVC012,0.00,VWS V14.01,2013-11-24 12:44:00,
2013-11-24 07:45:00,44.9,44.9,30.28,NNE,20,4.0,11.0,100,0.00,,OVC012,0.00,VWS V14.01,2013-11-24 12:45:00,
2013-11-24 07:46:00,44.9,44.9,30.28,NNW,333,7.0,7.0,100,0.00,,OVC012,0.00,VWS V14.01,2013-11-24 12:46:00,
2013-11-24 07:47:00,44.9,44.9,30.28,North,355,5.0,9.0,100,0.00,,CLR,0.00,VWS V14.01,2013-11-24 12:47:00,
2013-11-24 07:48:00,44.9,44.9,30.28,NE,42,11.0,11.0,100,0.00,,OVC012,0.00,VWS V14.01,2013-11-24 12:48:00,
2013-11-24 07:49:00,44.9,44.9,30.28,North,350,7.0,11.0,100,0.00,,OVC012,0.00,VWS V14.01,2013-11-24 12:49:00,
2013-11-24 07:50:00,44.9,44.9,30.28,NE,48,6.0,13.0,100,0.00,,OVC012,0.00,VWS V14.01,2013-11-24 12:50:00,
2013-11-24 07:51:00,44.9,44.9,30.28,North,5,5.0,11.0,100,0.00,,OVC012,0.00,VWS V14.01,2013-11-24 12:51:00,
2013-11-24 07:52:00,44.8,44.8,30.28,NNE,21,14.0,14.0,100,0.00,,CLR,0.00,VWS V14.01,2013-11-24 12:52:00,
2013-11-24 07:53:00,44.8,44.8,30.28,NNW,328,20.0,20.0,100,0.00,,OVC012,0.00,VWS V14.01,2013-11-24 12:53:00,
2013-11-24 07:54:00,44.8,44.8,30.28,NNW,335,12.0,20.0,100,0.00,,OVC012,0.00,VWS V14.01,2013-11-24 12:54:00,
2013-11-24 07:55:00,44.6,44.6,30.28,NNW,343,6.0,12.0,100,0.00,,OVC012,0.00,VWS V14.01,2013-11-24 12:55:00,
2013-11-24 07:56:00,44.6,44.6,30.29,NNE,22,9.0,16.0,100,0.00,,OVC012,0.00,VWS V14.01,2013-11-24 12:56:00,
2013-11-24 07:57:00,44.6,44.6,30.29,NNW,332,15.0,15.0,100,0.00,,CLR,0.00,VWS V14.01,2013-11-24 12:57:00,
2013-11-24 07:58:00,44.6,44.6,30.29,NNE,16,15.0,15.0,100,0.00,,OVC012,0.00,VWS V14.01,2013-11-24 12:58:00,
2013-11-24 07:59:00,44.5,44.5,30.29,North,355,7.0,17.0,100,0.00,,OVC012,0.00,VWS V14.01,2013-11-24 12:59:00,
2013-11-24 08:00:00,44.5,44.5,30.29,NNW,333,12.0,12.0,100,0.00,,OVC012,0.00,VWS V14.01,2013-11-24 13:00:00,
2013-11-24 08:01:00,44.5,44.5,30.29,NW,317,6.0,15.0,100,0.00,,OVC012,0.00,VWS V14.01,2013-11-24 13:01:00,
2013-11-24 08:02:00,44.5,44.5,30.29,NE,50,16.0,16.0,100,0.00,,CLR,0.00,VWS V14.01,2013-11-24 13:02:00,
2013-11-24 08:03:00,44.5,44.5,30.29,NE,40,14.0,16.0,100,0.00,,OVC012,0.00,VWS V14.01,2013-11-24 13:03:00,
2013-11-24 08:04:00,44.5,44.5,30.29,NE,52,7.0,14.0,100,0.00,,OVC012,0.00,VWS V14.01,2013-11-24 13:04:00,
2013-11-24 08:05:00,44.3,44.3,30.29,ENE,64,9.0,13.0,100,0.00,,OVC012,0.00,VWS V14.01,2013-11-24 13:05:00,
2013-11-24 08:06:00,44.3,44.3,30.29,NE,56,12.0,14.0,100,0.00,,OVC012,0.00,VWS V14.01,2013-11-24 13:06:00,
2013-11-24 08:07:00,44.3,44.3,30.29,North,5,4.0,11.0,100,0.00,,CLR,0.00,VWS V14.01,2013-11-24 13:07:00,
2013-11-24 08:08:00,44.2,44.2,30.30,WNW,297,11.0,11.0,100,0.00,,OVC012,0.00,VWS V14.01,2013-11-24 13:08:00,
2013-11-24 08:09:00,44.2,44.2,30.30,NNE,27,6.0,13.0,100,0.00,,OVC013,0.00,VWS V14.01,2013-11-24 13:09:00,
2013-11-24 08:10:00,44.2,44.2,30.30,WNW,288,6.0,14.0,100,0.00,,OVC013,0.00,VWS V14.01,2013-11-24 13:10:00,
2013-11-24 08:11:00,44.2,44.2,30.30,NNE,15,9.0,9.0,100,0.00,,OVC012,0.00,VWS V14.01,2013-11-24 13:11:00,
2013-11-24 08:12:00,44.1,44.1,30.30,North,355,10.0,13.0,100,0.00,,CLR,0.00,VWS V14.01,2013-11-24 13:12:00,
2013-11-24 08:13:00,44.1,44.1,30.30,ENE,58,10.0,13.0,100,0.00,,OVC012,0.00,VWS V14.01,2013-11-24 13:13:00,
2013-11-24 08:14:00,44.1,44.1,30.30,NNE,13,6.0,16.0,100,0.00,,OVC012,0.00,VWS V14.01,2013-11-24 13:14:00,
2013-11-24 08:15:00,44.1,44.1,30.30,North,5,14.0,14.0,100,0.00,,OVC013,0.00,VWS V14.01,2013-11-24 13:15:00,
2013-11-24 08:16:00,43.9,43.9,30.30,NNE,31,10.0,14.0,100,0.00,,OVC012,0.00,VWS V14.01,2013-11-24 13:16:00,
2013-11-24 08:17:00,43.9,43.9,30.30,North,360,15.0,15.0,100,0.00,,CLR,0.00,VWS V14.01,2013-11-24 13:17:00,
2013-11-24 08:18:00,43.9,43.9,30.30,North,360,11.0,15.0,100,0.00,,OVC012,0.00,VWS V14.01,2013-11-24 13:18:00,
2013-11-24 08:19:00,43.9,43.9,30.30,NE,52,10.0,17.0,100,0.00,,OVC012,0.00,VWS V14.01,2013-11-24 13:19:00,
2013-11-24 08:20:00,43.9,43.9,30.30,ENE,62,13.0,13.0,100,0.00,,OVC012,0.00,VWS V14.01,2013-11-24 13:20:00,
2013-11-24 08:21:00,43.8,43.8,30.30,NE,50,6.0,13.0,100,0.00,,OVC012,0.00,VWS V14.01,2013-11-24 13:21:00,
2013-11-24 08:22:00,43.8,43.8,30.30,North,9,4.0,11.0,100,0.00,,CLR,0.00,VWS V14.01,2013-11-24 13:22:00,
2013-11-24 08:23:00,43.8,43.8,30.30,NE,54,11.0,11.0,100,0.00,,OVC013,0.00,VWS V14.01,2013-11-24 13:23:00,
2013-11-24 08:24:00,43.8,43.8,30.30,North,360,6.0,16.0,100,0.00,,OVC012,0.00,VWS V14.01,2013-11-24 13:24:00,
2013-11-24 08:25:00,43.8,43.8,30.30,NNW,341,9.0,9.0,100,0.00,,OVC012,0.00,VWS V14.01,2013-11-24 13:25:00,
2013-11-24 08:26:00,43.8,43.8,30.29,NE,40,6.0,12.0,100,0.00,,OVC013,0.00,VWS V14.01,2013-11-24 13:26:00,
2013-11-24 08:27:00,43.8,43.8,30.30,NW,323,5.0,12.0,100,0.00,,CLR,0.00,VWS V14.01,2013-11-24 13:27:00,
2013-11-24 08:28:00,43.8,43.8,30.30,North,11,6.0,12.0,100,0.00,,OVC012,0.00,VWS V14.01,2013-11-24 13:28:00,
2013-11-24 08:29:00,43.8,43.8,30.30,SE,128,9.0,10.0,100,0.00,,OVC012,0.00,VWS V14.01,2013-11-24 13:29:00,
2013-11-24 08:30:00,43.8,43.8,30.30,NW,322,13.0,13.0,100,0.00,,OVC012,0.00,VWS V14.01,2013-11-24 13:30:00,
2013-11-24 08:31:00,43.8,43.8,30.31,NE,39,6.0,13.0,100,0.00,,OVC013,0.00,VWS V14.01,2013-11-24 13:31:00,
2013-11-24 08:32:00,43.9,43.9,30.31,NW,307,10.0,10.0,100,0.00,,CLR,0.00,VWS V14.01,2013-11-24 13:32:00,
2013-11-24 08:33:00,43.9,43.9,30.31,North,360,3.0,10.0,100,0.00,,OVC012,0.00,VWS V14.01,2013-11-24 13:33:00,
2013-11-24 08:34:00,43.9,43.9,30.31,NW,311,4.0,12.0,100,0.00,,OVC012,0.00,VWS V14.01,2013-11-24 13:34:00,
2013-11-24 08:35:00,43.9,43.9,30.31,NW,325,11.0,17.0,100,0.00,,OVC012,0.00,VWS V14.01,2013-11-24 13:35:00,
2013-11-24 08:36:00,44.1,44.1,30.31,NW,325,7.0,11.0,100,0.00,,OVC012,0.00,VWS V14.01,2013-11-24 13:36:00,
2013-11-24 08:37:00,44.1,44.1,30.31,ENE,61,6.0,14.0,100,0.00,,CLR,0.00,VWS V14.01,2013-11-24 13:37:00,
2013-11-24 08:38:00,44.1,44.1,30.31,NNW,342,6.0,14.0,100,0.00,,OVC012,0.00,VWS V14.01,2013-11-24 13:38:00,
2013-11-24 08:39:00,44.1,44.1,30.31,North,355,9.0,12.0,100,0.00,,OVC012,0.00,VWS V14.01,2013-11-24 13:39:00,
2013-11-24 08:40:00,44.1,44.1,30.31,North,355,16.0,16.0,100,0.00,,OVC012,0.00,VWS V14.01,2013-11-24 13:40:00,
2013-11-24 08:41:00,44.1,44.1,30.31,North,360,11.0,16.0,100,0.00,,OVC012,0.00,VWS V14.01,2013-11-24 13:41:00,
2013-11-24 08:42:00,44.2,44.2,30.31,NNE,16,6.0,7.0,100,0.00,,CLR,0.00,VWS V14.01,2013-11-24 13:42:00,
2013-11-24 08:43:00,44.2,44.2,30.31,ENE,74,2.0,11.0,100,0.00,,OVC012,0.00,VWS V14.01,2013-11-24 13:43:00,
2013-11-24 08:44:00,44.3,44.3,30.31,North,360,18.0,18.0,100,0.00,,OVC012,0.00,VWS V14.01,2013-11-24 13:44:00,
2013-11-24 08:45:00,44.2,44.2,30.31,ENE,65,9.0,18.0,100,0.00,,OVC012,0.00,VWS V14.01,2013-11-24 13:45:00,
2013-11-24 08:46:00,44.3,44.3,30.31,NNE,24,13.0,13.0,100,0.00,,OVC012,0.00,VWS V14.01,2013-11-24 13:46:00,
2013-11-24 08:47:00,44.3,44.3,30.31,WNW,298,12.0,12.0,100,0.00,,CLR,0.00,VWS V14.01,2013-11-24 13:47:00,
2013-11-24 08:48:00,44.3,44.3,30.31,NE,38,11.0,12.0,100,0.00,,OVC012,0.00,VWS V14.01,2013-11-24 13:48:00,
2013-11-24 08:49:00,44.3,44.3,30.31,ENE,61,6.0,11.0,100,0.00,,OVC012,0.00,VWS V14.01,2013-11-24 13:49:00,
2013-11-24 08:50:00,44.3,44.3,30.31,North,355,6.0,12.0,100,0.00,,OVC012,0.00,VWS V14.01,2013-11-24 13:50:00,
2013-11-24 08:51:00,44.3,44.3,30.31,NNE,13,7.0,9.0,100,0.00,,OVC012,0.00,VWS V14.01,2013-11-24 13:51:00,
2013-11-24 08:52:00,44.5,44.5,30.31,NNE,15,6.0,7.0,100,0.00,,CLR,0.00,VWS V14.01,2013-11-24 13:52:00,
2013-11-24 08:53:00,44.5,44.5,30.31,NNW,340,11.0,11.0,100,0.00,,OVC012,0.00,VWS V14.01,2013-11-24 13:53:00,
2013-11-24 08:54:00,44.6,44.6,30.31,NNE,15,14.0,14.0,100,0.00,,OVC012,0.00,VWS V14.01,2013-11-24 13:54:00,
2013-11-24 08:55:00,44.6,44.6,30.31,WNW,298,12.0,14.0,100,0.00,,OVC012,0.00,VWS V14.01,2013-11-24 13:55:00,
2013-11-24 08:56:00,44.8,44.8,30.32,NNW,331,11.0,12.0,100,0.00,,OVC012,0.00,VWS V14.01,2013-11-24 13:56:00,
2013-11-24 08:57:00,44.8,44.8,30.31,North,355,8.0,9.0,100,0.00,,CLR,0.00,VWS V14.01,2013-11-24 13:57:00,
2013-11-24 08:58:00,44.9,44.9,30.32,NE,45,7.0,9.0,100,0.00,,OVC012,0.00,VWS V14.01,2013-11-24 13:58:00,
2013-11-24 08:59:00,44.9,44.9,30.32,NE,48,5.0,9.0,100,0.00,,OVC012,0.00,VWS V14.01,2013-11-24 13:59:00,
2013-11-24 09:00:00,45.1,45.1,30.32,North,5,9.0,10.0,100,0.00,,OVC012,0.00,VWS V14.01,2013-11-24 14:00:00,
2013-11-24 09:01:00,45.1,45.1,30.32,NE,56,14.0,14.0,100,0.00,,OVC012,0.00,VWS V14.01,2013-11-24 14:01:00,
2013-11-24 09:02:00,45.2,45.2,30.32,NW,312,7.0,14.0,100,0.00,,CLR,0.00,VWS V14.01,2013-11-24 14:02:00,
2013-11-24 09:03:00,45.2,45.2,30.32,North,355,4.0,14.0,100,0.00,,OVC012,0.00,VWS V14.01,2013-11-24 14:03:00,
2013-11-24 09:04:00,45.2,45.2,30.32,NNE,25,14.0,14.0,100,0.00,,OVC012,0.00,VWS V14.01,2013-11-24 14:04:00,
2013-11-24 09:05:00,45.2,45.2,30.32,NNW,348,5.0,16.0,100,0.00,,OVC012,0.00,VWS V14.01,2013-11-24 14:05:00,
2013-11-24 09:06:00,45.2,45.2,30.32,ENE,65,10.0,14.0,100,0.00,,OVC012,0.00,VWS V14.01,2013-11-24 14:06:00,
2013-11-24 09:07:00,45.2,45.2,30.32,North,350,4.0,14.0,100,0.00,,CLR,0.00,VWS V14.01,2013-11-24 14:07:00,
2013-11-24 09:08:00,45.2,45.2,30.32,NW,323,11.0,14.0,100,0.00,,OVC012,0.00,VWS V14.01,2013-11-24 14:08:00,
2013-11-24 09:09:00,45.2,45.2,30.32,NNE,24,12.0,12.0,100,0.00,,OVC012,0.00,VWS V14.01,2013-11-24 14:09:00,
2013-11-24 09:10:00,45.2,45.2,30.32,NNW,336,6.0,12.0,100,0.00,,OVC012,0.00,VWS V14.01,2013-11-24 14:10:00,
2013-11-24 09:11:00,45.2,45.2,30.32,NNE,30,5.0,11.0,100,0.00,,OVC012,0.00,VWS V14.01,2013-11-24 14:11:00,
2013-11-24 09:12:00,45.2,45.2,30.32,NNE,33,12.0,18.0,100,0.00,,CLR,0.00,VWS V14.01,2013-11-24 14:12:00,
2013-11-24 09:13:00,45.2,45.2,30.32,NNW,338,15.0,18.0,100,0.00,,OVC012,0.00,VWS V14.01,2013-11-24 14:13:00,
2013-11-24 09:14:00,45.2,45.2,30.32,NNW,342,5.0,15.0,100,0.00,,OVC012,0.00,VWS V14.01,2013-11-24 14:14:00,
2013-11-24 09:15:00,45.2,45.2,30.32,NNW,330,11.0,12.0,100,0.00,,OVC012,0.00,VWS V14.01,2013-11-24 14:15:00,
2013-11-24 09:16:00,45.2,45.2,30.32,NW,323,13.0,13.0,100,0.00,,OVC012,0.00,VWS V14.01,2013-11-24 14:16:00,
2013-11-24 09:17:00,45.1,45.1,30.32,East,84,9.0,11.0,100,0.00,,CLR,0.00,VWS V14.01,2013-11-24 14:17:00,
2013-11-24 09:18:00,45.1,45.1,30.32,NNE,18,12.0,12.0,100,0.00,,OVC012,0.00,VWS V14.01,2013-11-24 14:18:00,
2013-11-24 09:19:00,45.1,45.1,30.32,ENE,57,9.0,14.0,100,0.00,,OVC012,0.00,VWS V14.01,2013-11-24 14:19:00,
2013-11-24 09:20:00,45.1,45.1,30.32,East,96,3.0,17.0,100,0.00,,OVC012,0.00,VWS V14.01,2013-11-24 14:20:00,
2013-11-24 09:21:00,45.1,45.1,30.32,North,5,10.0,14.0,100,0.00,,OVC012,0.00,VWS V14.01,2013-11-24 14:21:00,
2013-11-24 09:22:00,45.1,45.1,30.33,NNW,332,6.0,14.0,100,0.00,,CLR,0.00,VWS V14.01,2013-11-24 14:22:00,
2013-11-24 09:23:00,45.1,45.1,30.33,NNE,19,6.0,14.0,100,0.00,,OVC012,0.00,VWS V14.01,2013-11-24 14:23:00,
2013-11-24 09:24:00,45.1,45.1,30.33,NNW,334,13.0,14.0,100,0.00,,OVC012,0.00,VWS V14.01,2013-11-24 14:24:00,
2013-11-24 09:25:00,45.1,45.1,30.33,NE,53,6.0,13.0,100,0.00,,OVC012,0.00,VWS V14.01,2013-11-24 14:25:00,
2013-11-24 09:26:00,45.1,45.1,30.33,NE,34,6.0,18.0,100,0.00,,OVC012,0.00,VWS V14.01,2013-11-24 14:26:00,
2013-11-24 09:27:00,45.1,45.1,30.33,North,360,17.0,17.0,100,0.00,,CLR,0.00,VWS V14.01,2013-11-24 14:27:00,
2013-11-24 09:28:00,45.1,45.1,30.33,NNW,341,7.0,17.0,100,0.00,,OVC012,0.00,VWS V14.01,2013-11-24 14:28:00,
2013-11-24 09:29:00,45.1,45.1,30.33,NNW,338,10.0,21.0,100,0.00,,OVC012,0.00,VWS V14.01,2013-11-24 14:29:00,
2013-11-24 09:30:00,45.1,45.1,30.33,NNW,344,10.0,12.0,100,0.00,,OVC012,0.00,VWS V14.01,2013-11-24 14:30:00,
2013-11-24 09:31:00,45.1,45.1,30.33,NW,322,12.0,12.0,100,0.00,,OVC012,0.00,VWS V14.01,2013-11-24 14:31:00,
2013-11-24 09:32:00,44.9,44.9,30.33,North,360,9.0,10.0,100,0.00,,CLR,0.00,VWS V14.01,2013-11-24 14:32:00,
2013-11-24 09:33:00,45.1,45.1,30.33,North,355,12.0,12.0,100,0.00,,OVC012,0.00,VWS V14.01,2013-11-24 14:33:00,
2013-11-24 09:34:00,45.1,45.1,30.33,NNE,13,14.0,14.0,100,0.00,,OVC012,0.00,VWS V14.01,2013-11-24 14:34:00,
2013-11-24 09:35:00,45.1,45.1,30.34,NW,306,4.0,14.0,100,0.00,,OVC012,0.00,VWS V14.01,2013-11-24 14:35:00,
2013-11-24 09:36:00,45.1,45.1,30.34,NW,324,7.0,13.0,100,0.00,,OVC012,0.00,VWS V14.01,2013-11-24 14:36:00,
2013-11-24 09:37:00,44.9,44.9,30.34,NW,315,12.0,12.0,100,0.00,,CLR,0.00,VWS V14.01,2013-11-24 14:37:00,
2013-11-24 09:38:00,44.9,44.9,30.34,WNW,299,4.0,12.0,100,0.00,,OVC012,0.00,VWS V14.01,2013-11-24 14:38:00,
2013-11-24 09:39:00,44.9,44.9,30.34,NE,47,9.0,15.0,100,0.00,,OVC012,0.00,VWS V14.01,2013-11-24 14:39:00,
2013-11-24 09:40:00,44.9,44.9,30.34,NNW,348,12.0,13.0,100,0.00,,OVC012,0.00,VWS V14.01,2013-11-24 14:40:00,
2013-11-24 09:41:00,44.9,44.9,30.34,North,5,9.0,14.0,100,0.00,,OVC012,0.00,VWS V14.01,2013-11-24 14:41:00,
2013-11-24 09:42:00,44.8,44.8,30.34,NNW,340,7.0,9.0,100,0.00,,CLR,0.00,VWS V14.01,2013-11-24 14:42:00,
2013-11-24 09:43:00,44.8,44.8,30.34,NW,313,21.0,21.0,100,0.00,,OVC012,0.00,VWS V14.01,2013-11-24 14:43:00,
2013-11-24 09:44:00,44.6,44.6,30.34,NNE,22,5.0,21.0,100,0.00,,OVC012,0.00,VWS V14.01,2013-11-24 14:44:00,
2013-11-24 09:45:00,44.6,44.6,30.34,ENE,70,7.0,9.0,100,0.00,,OVC012,0.00,VWS V14.01,2013-11-24 14:45:00,
2013-11-24 09:46:00,44.5,44.5,30.34,NNE,25,3.0,17.0,100,0.00,,OVC012,0.00,VWS V14.01,2013-11-24 14:46:00,
2013-11-24 09:47:00,44.5,44.5,30.34,NW,322,16.0,16.0,100,0.00,,CLR,0.00,VWS V14.01,2013-11-24 14:47:00,
2013-11-24 09:48:00,44.5,44.5,30.34,North,360,10.0,16.0,100,0.00,,OVC012,0.00,VWS V14.01,2013-11-24 14:48:00,
2013-11-24 09:49:00,44.5,44.5,30.34,North,5,4.0,10.0,100,0.00,,OVC012,0.00,VWS V14.01,2013-11-24 14:49:00,
2013-11-24 09:50:00,44.6,44.6,30.34,North,9,14.0,14.0,100,0.00,,OVC012,0.00,VWS V14.01,2013-11-24 14:50:00,
2013-11-24 09:51:00,44.6,44.6,30.34,NNW,343,13.0,21.0,100,0.00,,OVC012,0.00,VWS V14.01,2013-11-24 14:51:00,
2013-11-24 09:52:00,44.6,44.6,30.34,NE,53,7.0,13.0,100,0.00,,CLR,0.00,VWS V14.01,2013-11-24 14:52:00,
2013-11-24 09:53:00,44.6,44.6,30.34,NNW,329,14.0,14.0,100,0.00,,OVC012,0.00,VWS V14.01,2013-11-24 14:53:00,
2013-11-24 09:54:00,44.8,44.8,30.34,NNW,340,9.0,17.0,100,0.00,,OVC012,0.00,VWS V14.01,2013-11-24 14:54:00,
2013-11-24 09:55:00,44.8,44.8,30.34,ENE,61,12.0,12.0,100,0.00,,OVC012,0.00,VWS V14.01,2013-11-24 14:55:00,
2013-11-24 09:56:00,44.8,44.8,30.34,NE,42,12.0,20.0,100,0.00,,OVC012,0.00,VWS V14.01,2013-11-24 14:56:00,
2013-11-24 09:57:00,44.9,44.9,30.34,NNW,340,6.0,11.0,100,0.00,,CLR,0.00,VWS V14.01,2013-11-24 14:57:00,
2013-11-24 09:58:00,44.9,44.9,30.34,NW,313,7.0,22.0,100,0.00,,OVC012,0.00,VWS V14.01,2013-11-24 14:58:00,
2013-11-24 09:59:00,44.9,44.9,30.34,North,5,5.0,9.0,100,0.00,,OVC012,0.00,VWS V14.01,2013-11-24 14:59:00,
2013-11-24 10:00:00,44.9,44.9,30.34,NNW,346,7.0,10.0,100,0.00,,OVC012,0.00,VWS V14.01,2013-11-24 15:00:00,
2013-11-24 10:01:00,44.9,44.9,30.34,NE,40,11.0,20.0,100,0.00,,OVC012,0.00,VWS V14.01,2013-11-24 15:01:00,
2013-11-24 10:02:00,44.9,44.9,30.34,NNE,22,6.0,16.0,100,0.00,,CLR,0.00,VWS V14.01,2013-11-24 15:02:00,
2013-11-24 10:03:00,44.9,44.9,30.34,NNW,329,14.0,16.0,100,0.00,,OVC012,0.00,VWS V14.01,2013-11-24 15:03:00,
2013-11-24 10:04:00,44.8,44.8,30.34,North,11,4.0,14.0,100,0.00,,OVC012,0.00,VWS V14.01,2013-11-24 15:04:00,
2013-11-24 10:05:00,44.8,44.8,30.34,NNW,342,14.0,14.0,100,0.00,,OVC012,0.00,VWS V14.01,2013-11-24 15:05:00,
2013-11-24 10:06:00,44.8,44.8,30.34,NW,319,9.0,17.0,100,0.00,,OVC012,0.00,VWS V14.01,2013-11-24 15:06:00,
2013-11-24 10:07:00,44.8,44.8,30.35,NE,52,7.0,7.0,100,0.00,,CLR,0.00,VWS V14.01,2013-11-24 15:07:00,
2013-11-24 10:08:00,44.8,44.8,30.35,NNW,333,14.0,14.0,100,0.00,,OVC012,0.00,VWS V14.01,2013-11-24 15:08:00,
2013-11-24 10:09:00,44.8,44.8,30.34,NE,38,13.0,14.0,100,0.00,,OVC012,0.00,VWS V14.01,2013-11-24 15:09:00,
2013-11-24 10:10:00,44.8,44.8,30.35,North,360,15.0,15.0,100,0.00,,OVC012,0.00,VWS V14.01,2013-11-24 15:10:00,
2013-11-24 10:11:00,44.6,44.6,30.35,NNW,329,14.0,16.0,100,0.00,,OVC012,0.00,VWS V14.01,2013-11-24 15:11:00,
2013-11-24 10:12:00,44.6,44.6,30.35,NW,305,13.0,16.0,100,0.00,,CLR,0.00,VWS V14.01,2013-11-24 15:12:00,
2013-11-24 10:13:00,44.6,44.6,30.35,North,355,5.0,16.0,100,0.00,,OVC012,0.00,VWS V14.01,2013-11-24 15:13:00,
2013-11-24 10:14:00,44.8,44.8,30.35,NNW,327,5.0,14.0,100,0.00,,OVC012,0.00,VWS V14.01,2013-11-24 15:14:00,
2013-11-24 10:15:00,44.8,44.8,30.35,ENE,60,9.0,9.0,100,0.00,,OVC012,0.00,VWS V14.01,2013-11-24 15:15:00,
2013-11-24 10:16:00,44.9,44.9,30.35,NNW,329,13.0,19.0,100,0.00,,OVC012,0.00,VWS V14.01,2013-11-24 15:16:00,
2013-11-24 10:17:00,44.9,44.9,30.36,NNW,336,4.0,14.0,100,0.00,,CLR,0.00,VWS V14.01,2013-11-24 15:17:00,
2013-11-24 10:18:00,44.9,44.9,30.36,NE,51,12.0,14.0,100,0.00,,OVC012,0.00,VWS V14.01,2013-11-24 15:18:00,
2013-11-24 10:19:00,44.9,44.9,30.35,NNE,23,14.0,14.0,100,0.00,,OVC012,0.00,VWS V14.01,2013-11-24 15:19:00,
2013-11-24 10:20:00,45.1,45.1,30.36,NNW,348,17.0,17.0,100,0.00,,OVC012,0.00,VWS V14.01,2013-11-24 15:20:00,
2013-11-24 10:21:00,45.1,45.1,30.36,NW,312,10.0,17.0,100,0.00,,OVC012,0.00,VWS V14.01,2013-11-24 15:21:00,
2013-11-24 10:22:00,45.2,45.2,30.36,NW,326,8.0,12.0,100,0.00,,CLR,0.00,VWS V14.01,2013-11-24 15:22:00,
2013-11-24 10:23:00,45.2,45.2,30.36,NNW,340,13.0,13.0,100,0.00,,OVC012,0.00,VWS V14.01,2013-11-24 15:23:00,
2013-11-24 10:24:00,45.2,45.2,30.35,NNW,347,7.0,13.0,100,0.00,,OVC012,0.00,VWS V14.01,2013-11-24 15:24:00,
2013-11-24 10:25:00,45.2,45.2,30.36,NW,323,12.0,12.0,100,0.00,,OVC012,0.00,VWS V14.01,2013-11-24 15:25:00,
2013-11-24 10:26:00,45.2,45.2,30.36,West,278,10.0,22.0,100,0.00,,OVC012,0.00,VWS V14.01,2013-11-24 15:26:00,
2013-11-24 10:27:00,45.2,45.2,30.36,NE,38,6.0,15.0,100,0.00,,CLR,0.00,VWS V14.01,2013-11-24 15:27:00,
2013-11-24 10:28:00,45.2,45.2,30.36,NNE,22,11.0,15.0,100,0.00,,OVC012,0.00,VWS V14.01,2013-11-24 15:28:00,
2013-11-24 10:29:00,45.2,45.2,30.36,NNE,19,10.0,11.0,100,0.00,,OVC012,0.00,VWS V14.01,2013-11-24 15:29:00,
2013-11-24 10:30:00,45.2,45.2,30.35,NW,318,16.0,17.0,100,0.00,,OVC012,0.00,VWS V14.01,2013-11-24 15:30:00,
2013-11-24 10:31:00,45.4,45.4,30.36,North,355,4.0,16.0,100,0.00,,OVC012,0.00,VWS V14.01,2013-11-24 15:31:00,
2013-11-24 10:32:00,45.4,45.4,30.36,NNW,327,9.0,12.0,100,0.00,,CLR,0.00,VWS V14.01,2013-11-24 15:32:00,
2013-11-24 10:33:00,45.5,45.5,30.36,NNE,21,12.0,12.0,100,0.00,,OVC012,0.00,VWS V14.01,2013-11-24 15:33:00,
2013-11-24 10:34:00,45.5,45.5,30.36,WNW,292,9.0,20.0,100,0.00,,OVC012,0.00,VWS V14.01,2013-11-24 15:34:00,
2013-11-24 10:35:00,45.5,45.5,30.36,North,5,10.0,17.0,100,0.00,,OVC012,0.00,VWS V14.01,2013-11-24 15:35:00,
2013-11-24 10:36:00,45.4,45.4,30.36,NNE,13,13.0,16.0,100,0.00,,OVC012,0.00,VWS V14.01,2013-11-24 15:36:00,
2013-11-24 10:37:00,45.4,45.4,30.36,NNW,346,12.0,12.0,100,0.00,,FEW002,0.00,VWS V14.01,2013-11-24 15:37:00,
2013-11-24 10:38:00,45.5,45.5,30.36,NE,36,5.0,12.0,100,0.00,,OVC012,0.00,VWS V14.01,2013-11-24 15:38:00,
2013-11-24 10:39:00,45.5,45.5,30.36,NNE,27,12.0,12.0,100,0.00,,OVC012,0.00,VWS V14.01,2013-11-24 15:39:00,
2013-11-24 10:40:00,45.5,45.5,30.36,NNE,14,6.0,18.0,100,0.00,,OVC012,0.00,VWS V14.01,2013-11-24 15:40:00,
2013-11-24 10:41:00,45.5,45.5,30.36,North,5,12.0,12.0,100,0.00,,OVC012,0.00,VWS V14.01,2013-11-24 15:41:00,
2013-11-24 10:42:00,45.7,45.7,30.36,North,355,5.0,12.0,100,0.00,,FEW002,0.00,VWS V14.01,2013-11-24 15:42:00,
2013-11-24 10:43:00,45.7,45.7,30.36,NW,318,10.0,14.0,100,0.00,,OVC012,0.00,VWS V14.01,2013-11-24 15:43:00,
2013-11-24 10:44:00,45.7,45.7,30.36,NNE,30,13.0,15.0,100,0.00,,OVC012,0.00,VWS V14.01,2013-11-24 15:44:00,
2013-11-24 10:45:00,45.8,45.8,30.36,NNW,335,7.0,13.0,100,0.00,,OVC012,0.00,VWS V14.01,2013-11-24 15:45:00,
2013-11-24 10:46:00,45.8,45.8,30.36,North,360,6.0,9.0,100,0.00,,OVC012,0.00,VWS V14.01,2013-11-24 15:46:00,
2013-11-24 10:47:00,45.8,45.8,30.36,North,355,19.0,19.0,100,0.00,,FEW002,0.00,VWS V14.01,2013-11-24 15:47:00,
2013-11-24 10:48:00,45.8,45.8,30.36,WNW,291,13.0,19.0,100,0.00,,OVC012,0.00,VWS V14.01,2013-11-24 15:48:00,
2013-11-24 10:49:00,45.8,45.8,30.36,NNW,331,9.0,17.0,100,0.00,,OVC012,0.00,VWS V14.01,2013-11-24 15:49:00,
2013-11-24 10:50:00,45.8,45.8,30.36,NW,315,20.0,20.0,100,0.00,,OVC012,0.00,VWS V14.01,2013-11-24 15:50:00,
2013-11-24 10:51:00,45.8,45.8,30.36,North,355,11.0,20.0,100,0.00,,OVC012,0.00,VWS V14.01,2013-11-24 15:51:00,
2013-11-24 10:52:00,45.8,45.8,30.37,North,350,24.0,24.0,100,0.00,,FEW002,0.00,VWS V14.01,2013-11-24 15:52:00,
2013-11-24 10:53:00,45.8,45.8,30.37,NW,318,9.0,24.0,100,0.00,,OVC012,0.00,VWS V14.01,2013-11-24 15:53:00,
2013-11-24 10:54:00,45.8,45.8,30.37,NNE,24,10.0,14.0,100,0.00,,OVC012,0.00,VWS V14.01,2013-11-24 15:54:00,
2013-11-24 10:55:00,45.8,45.8,30.36,NW,320,10.0,15.0,100,0.00,,OVC012,0.00,VWS V14.01,2013-11-24 15:55:00,
2013-11-24 10:56:00,45.8,45.8,30.36,North,349,11.0,17.0,100,0.00,,OVC012,0.00,VWS V14.01,2013-11-24 15:56:00,
2013-11-24 10:57:00,45.8,45.8,30.36,WNW,283,5.0,5.0,100,0.00,,FEW002,0.00,VWS V14.01,2013-11-24 15:57:00,
2013-11-24 10:58:00,45.8,45.8,30.36,NNW,348,10.0,10.0,100,0.00,,OVC012,0.00,VWS V14.01,2013-11-24 15:58:00,
2013-11-24 10:59:00,45.8,45.8,30.37,NNE,22,13.0,13.0,100,0.00,,OVC012,0.00,VWS V14.01,2013-11-24 15:59:00,
2013-11-24 11:00:00,45.8,45.8,30.37,ENE,70,8.0,13.0,100,0.00,,OVC012,0.00,VWS V14.01,2013-11-24 16:00:00,
2013-11-24 11:01:00,45.8,45.8,30.36,North,5,6.0,13.0,100,0.00,,OVC012,0.00,VWS V14.01,2013-11-24 16:01:00,
2013-11-24 11:02:00,46.0,46.0,30.37,North,5,9.0,16.0,100,0.00,,FEW002,0.00,VWS V14.01,2013-11-24 16:02:00,
2013-11-24 11:03:00,46.0,46.0,30.37,NE,53,15.0,16.0,100,0.00,,OVC012,0.00,VWS V14.01,2013-11-24 16:03:00,
2013-11-24 11:04:00,46.0,46.0,30.36,NNE,19,6.0,15.0,100,0.00,,OVC012,0.00,VWS V14.01,2013-11-24 16:04:00,
2013-11-24 11:05:00,46.0,46.0,30.37,NW,310,13.0,15.0,100,0.00,,OVC012,0.00,VWS V14.01,2013-11-24 16:05:00,
2013-11-24 11:06:00,46.1,46.1,30.36,ENE,68,11.0,13.0,100,0.00,,OVC012,0.00,VWS V14.01,2013-11-24 16:06:00,
2013-11-24 11:07:00,46.1,46.1,30.36,NNW,329,18.0,18.0,100,0.00,,FEW002,0.00,VWS V14.01,2013-11-24 16:07:00,
2013-11-24 11:08:00,46.1,46.1,30.36,NE,50,3.0,18.0,100,0.00,,OVC012,0.00,VWS V14.01,2013-11-24 16:08:00,
2013-11-24 11:09:00,46.2,46.2,30.36,WNW,300,15.0,15.0,100,0.00,,OVC012,0.00,VWS V14.01,2013-11-24 16:09:00,
2013-11-24 11:10:00,46.2,46.2,30.36,NW,325,12.0,15.0,100,0.00,,OVC012,0.00,VWS V14.01,2013-11-24 16:10:00,
2013-11-24 11:11:00,46.2,46.2,30.36,NNE,16,9.0,25.0,100,0.00,,OVC012,0.00,VWS V14.01,2013-11-24 16:11:00,
2013-11-24 11:12:00,46.2,46.2,30.36,NNE,21,5.0,11.0,100,0.00,,FEW002,0.00,VWS V14.01,2013-11-24 16:12:00,
2013-11-24 11:13:00,46.2,46.2,30.36,NNW,342,5.0,21.0,100,0.00,,OVC012,0.00,VWS V14.01,2013-11-24 16:13:00,
2013-11-24 11:14:00,46.2,46.2,30.36,WNW,295,13.0,16.0,100,0.00,,OVC012,0.00,VWS V14.01,2013-11-24 16:14:00,
2013-11-24 11:15:00,46.2,46.2,30.36,NE,43,17.0,17.0,100,0.00,,OVC012,0.00,VWS V14.01,2013-11-24 16:15:00,
2013-11-24 11:16:00,46.2,46.2,30.36,NNW,342,14.0,17.0,100,0.00,,OVC012,0.00,VWS V14.01,2013-11-24 16:16:00,
2013-11-24 11:17:00,46.4,46.4,30.36,NNW,332,13.0,13.0,100,0.00,,FEW002,0.00,VWS V14.01,2013-11-24 16:17:00,
2013-11-24 11:18:00,46.4,46.4,30.36,NE,54,10.0,18.0,100,0.00,,OVC012,0.00,VWS V14.01,2013-11-24 16:18:00,
2013-11-24 11:19:00,46.5,46.5,30.36,NNW,345,15.0,15.0,100,0.00,,OVC012,0.00,VWS V14.01,2013-11-24 16:19:00,
2013-11-24 11:20:00,46.5,46.5,30.36,North,5,14.0,15.0,100,0.00,,OVC012,0.00,VWS V14.01,2013-11-24 16:20:00,
2013-11-24 11:21:00,46.5,46.5,30.36,NW,306,18.0,18.0,100,0.00,,OVC012,0.00,VWS V14.01,2013-11-24 16:21:00,
2013-11-24 11:22:00,46.5,46.5,30.36,NW,304,11.0,13.0,100,0.00,,FEW002,0.00,VWS V14.01,2013-11-24 16:22:00,
2013-11-24 11:23:00,46.7,46.7,30.36,ENE,64,6.0,13.0,100,0.00,,OVC012,0.00,VWS V14.01,2013-11-24 16:23:00,
2013-11-24 11:24:00,46.7,46.7,30.36,NNE,32,6.0,11.0,100,0.00,,OVC012,0.00,VWS V14.01,2013-11-24 16:24:00,
2013-11-24 11:25:00,46.8,46.8,30.36,NW,325,13.0,13.0,100,0.00,,OVC012,0.00,VWS V14.01,2013-11-24 16:25:00,
2013-11-24 11:26:00,46.8,46.8,30.36,NE,53,10.0,13.0,100,0.00,,OVC012,0.00,VWS V14.01,2013-11-24 16:26:00,
2013-11-24 11:27:00,46.8,46.8,30.36,ENE,71,7.0,12.0,100,0.00,,FEW002,0.00,VWS V14.01,2013-11-24 16:27:00,
2013-11-24 11:28:00,46.8,46.8,30.36,North,350,10.0,12.0,100,0.00,,OVC012,0.00,VWS V14.01,2013-11-24 16:28:00,
2013-11-24 11:29:00,46.8,46.8,30.36,NW,318,12.0,14.0,100,0.00,,OVC012,0.00,VWS V14.01,2013-11-24 16:29:00,
2013-11-24 11:30:00,46.8,46.8,30.36,NE,45,9.0,12.0,100,0.00,,OVC012,0.00,VWS V14.01,2013-11-24 16:30:00,
2013-11-24 11:31:00,46.8,46.8,30.36,NW,311,15.0,15.0,100,0.00,,OVC012,0.00,VWS V14.01,2013-11-24 16:31:00,
2013-11-24 11:32:00,46.7,46.7,30.36,NNW,336,10.0,16.0,100,0.00,,FEW002,0.00,VWS V14.01,2013-11-24 16:32:00,
2013-11-24 11:33:00,46.7,46.7,30.36,North,355,14.0,16.0,100,0.00,,OVC012,0.00,VWS V14.01,2013-11-24 16:33:00,
2013-11-24 11:34:00,46.7,46.7,30.36,North,5,6.0,14.0,100,0.00,,OVC012,0.00,VWS V14.01,2013-11-24 16:34:00,
2013-11-24 11:35:00,46.7,46.7,30.36,NE,35,4.0,10.0,100,0.00,,OVC012,0.00,VWS V14.01,2013-11-24 16:35:00,
2013-11-24 11:36:00,46.7,46.7,30.36,NW,320,19.0,20.0,100,0.00,,OVC012,0.00,VWS V14.01,2013-11-24 16:36:00,
2013-11-24 11:37:00,46.5,46.5,30.36,NE,45,11.0,11.0,100,0.00,,CLR,0.00,VWS V14.01,2013-11-24 16:37:00,
2013-11-24 11:38:00,46.5,46.5,30.36,NNW,348,14.0,14.0,100,0.00,,OVC012,0.00,VWS V14.01,2013-11-24 16:38:00,
2013-11-24 11:39:00,46.7,46.7,30.36,NNW,346,6.0,17.0,100,0.00,,OVC012,0.00,VWS V14.01,2013-11-24 16:39:00,
2013-11-24 11:40:00,46.7,46.7,30.36,North,5,10.0,11.0,100,0.00,,OVC012,0.00,VWS V14.01,2013-11-24 16:40:00,
2013-11-24 11:41:00,46.7,46.7,30.36,NNW,332,7.0,11.0,100,0.00,,OVC012,0.00,VWS V14.01,2013-11-24 16:41:00,
2013-11-24 11:42:00,46.8,46.8,30.36,North,351,3.0,14.0,100,0.00,,CLR,0.00,VWS V14.01,2013-11-24 16:42:00,
2013-11-24 11:43:00,46.8,46.8,30.36,NNW,334,4.0,14.0,100,0.00,,OVC012,0.00,VWS V14.01,2013-11-24 16:43:00,
2013-11-24 11:44:00,46.8,46.8,30.36,NNW,343,11.0,15.0,100,0.00,,OVC012,0.00,VWS V14.01,2013-11-24 16:44:00,
2013-11-24 11:45:00,46.8,46.8,30.36,NE,34,11.0,17.0,100,0.00,,OVC012,0.00,VWS V14.01,2013-11-24 16:45:00,
2013-11-24 11:46:00,47.0,47.0,30.36,North,360,9.0,14.0,100,0.00,,OVC012,0.00,VWS V14.01,2013-11-24 16:46:00,
2013-11-24 11:47:00,47.0,47.0,30.36,NW,326,7.0,10.0,100,0.00,,CLR,0.00,VWS V14.01,2013-11-24 16:47:00,
2013-11-24 11:48:00,47.1,47.1,30.36,NW,315,7.0,10.0,100,0.00,,OVC012,0.00,VWS V14.01,2013-11-24 16:48:00,
2013-11-24 11:49:00,47.3,47.3,30.36,NW,325,5.0,12.0,100,0.00,,OVC012,0.00,VWS V14.01,2013-11-24 16:49:00,
2013-11-24 11:50:00,47.3,47.3,30.36,North,350,10.0,22.0,100,0.00,,OVC012,0.00,VWS V14.01,2013-11-24 16:50:00,
2013-11-24 11:51:00,47.4,47.4,30.36,NW,322,12.0,19.0,100,0.00,,OVC012,0.00,VWS V14.01,2013-11-24 16:51:00,
2013-11-24 11:52:00,47.4,47.4,30.36,NNW,331,7.0,12.0,100,0.00,,CLR,0.00,VWS V14.01,2013-11-24 16:52:00,
2013-11-24 11:53:00,47.4,47.4,30.36,NNW,338,16.0,18.0,100,0.00,,OVC012,0.00,VWS V14.01,2013-11-24 16:53:00,
2013-11-24 11:54:00,47.4,47.4,30.36,North,5,6.0,16.0,100,0.00,,OVC012,0.00,VWS V14.01,2013-11-24 16:54:00,
2013-11-24 11:55:00,47.4,47.4,30.36,NNE,19,11.0,11.0,100,0.00,,OVC012,0.00,VWS V14.01,2013-11-24 16:55:00,
2013-11-24 11:56:00,47.6,47.6,30.36,NNE,22,11.0,11.0,100,0.00,,OVC012,0.00,VWS V14.01,2013-11-24 16:56:00,
2013-11-24 11:57:00,47.6,47.6,30.36,North,5,11.0,11.0,100,0.00,,CLR,0.00,VWS V14.01,2013-11-24 16:57:00,
2013-11-24 11:58:00,47.7,47.7,30.36,NNE,30,5.0,11.0,100,0.00,,OVC012,0.00,VWS V14.01,2013-11-24 16:58:00,
2013-11-24 11:59:00,47.9,47.9,30.36,NW,317,4.0,11.0,100,0.00,,OVC012,0.00,VWS V14.01,2013-11-24 16:59:00,
2013-11-24 12:00:00,48.0,48.0,30.35,NW,312,5.0,9.0,100,0.00,,OVC012,0.00,VWS V14.01,2013-11-24 17:00:00,
2013-11-24 12:01:00,48.0,48.0,30.36,North,5,10.0,10.0,100,0.00,,OVC012,0.00,VWS V14.01,2013-11-24 17:01:00,
2013-11-24 12:02:00,48.2,48.2,30.35,NE,48,10.0,10.0,100,0.00,,CLR,0.00,VWS V14.01,2013-11-24 17:02:00,
2013-11-24 12:03:00,48.2,48.2,30.35,WNW,299,4.0,10.0,100,0.00,,OVC012,0.00,VWS V14.01,2013-11-24 17:03:00,
2013-11-24 12:04:00,48.2,48.2,30.35,North,5,13.0,15.0,100,0.00,,OVC012,0.00,VWS V14.01,2013-11-24 17:04:00,
2013-11-24 12:05:00,48.2,48.2,30.35,ENE,74,2.0,13.0,100,0.00,,OVC012,0.00,VWS V14.01,2013-11-24 17:05:00,
2013-11-24 12:06:00,48.2,48.2,30.35,North,350,8.0,10.0,100,0.00,,OVC012,0.00,VWS V14.01,2013-11-24 17:06:00,
2013-11-24 12:07:00,48.2,48.2,30.35,East,101,5.0,7.0,100,0.00,,CLR,0.00,VWS V14.01,2013-11-24 17:07:00,
2013-11-24 12:08:00,48.2,48.2,30.35,NNW,342,14.0,17.0,100,0.00,,OVC012,0.00,VWS V14.01,2013-11-24 17:08:00,
2013-11-24 12:09:00,48.2,48.2,30.35,NE,36,14.0,14.0,100,0.00,,OVC012,0.00,VWS V14.01,2013-11-24 17:09:00,
2013-11-24 12:10:00,48.2,48.2,30.35,NNE,29,13.0,14.0,100,0.00,,OVC012,0.00,VWS V14.01,2013-11-24 17:10:00,
2013-11-24 12:11:00,48.0,48.0,30.35,North,355,9.0,13.0,100,0.00,,OVC012,0.00,VWS V14.01,2013-11-24 17:11:00,
2013-11-24 12:12:00,48.0,48.0,30.35,North,355,5.0,5.0,100,0.00,,CLR,0.00,VWS V14.01,2013-11-24 17:12:00,
2013-11-24 12:13:00,48.2,48.2,30.35,NW,318,7.0,9.0,100,0.00,,OVC012,0.00,VWS V14.01,2013-11-24 17:13:00,
2013-11-24 12:14:00,48.2,48.2,30.36,North,5,10.0,15.0,100,0.00,,OVC012,0.00,VWS V14.01,2013-11-24 17:14:00,
2013-11-24 12:15:00,48.0,48.0,30.36,NNE,23,9.0,15.0,100,0.00,,OVC012,0.00,VWS V14.01,2013-11-24 17:15:00,
2013-11-24 12:16:00,47.9,47.9,30.36,NNE,15,7.0,12.0,100,0.00,,OVC012,0.00,VWS V14.01,2013-11-24 17:16:00,
2013-11-24 12:17:00,47.7,47.7,30.36,North,5,4.0,6.0,100,0.00,,CLR,0.00,VWS V14.01,2013-11-24 17:17:00,
2013-11-24 12:18:00,47.7,47.7,30.36,North,350,7.0,9.0,100,0.00,,OVC012,0.00,VWS V14.01,2013-11-24 17:18:00,
2013-11-24 12:19:00,47.7,47.7,30.35,North,9,9.0,11.0,100,0.00,,OVC012,0.00,VWS V14.01,2013-11-24 17:19:00,
2013-11-24 12:20:00,47.7,47.7,30.35,NNE,31,7.0,9.0,100,0.00,,OVC012,0.00,VWS V14.01,2013-11-24 17:20:00,
2013-11-24 12:21:00,47.7,47.7,30.35,NNW,344,11.0,11.0,100,0.00,,OVC012,0.00,VWS V14.01,2013-11-24 17:21:00,
2013-11-24 12:22:00,47.7,47.7,30.35,North,360,11.0,11.0,100,0.00,,CLR,0.00,VWS V14.01,2013-11-24 17:22:00,
2013-11-24 12:23:00,47.7,47.7,30.35,NNE,13,15.0,15.0,100,0.00,,OVC012,0.00,VWS V14.01,2013-11-24 17:23:00,
2013-11-24 12:24:00,47.7,47.7,30.35,NW,322,11.0,15.0,100,0.00,,OVC012,0.00,VWS V14.01,2013-11-24 17:24:00,
2013-11-24 12:25:00,47.7,47.7,30.35,ENE,63,4.0,11.0,100,0.00,,OVC012,0.00,VWS V14.01,2013-11-24 17:25:00,
2013-11-24 12:26:00,47.9,47.9,30.35,NNW,329,7.0,7.0,100,0.00,,OVC012,0.00,VWS V14.01,2013-11-24 17:26:00,
2013-11-24 12:27:00,48.0,48.0,30.35,NNE,28,6.0,6.0,100,0.00,,CLR,0.00,VWS V14.01,2013-11-24 17:27:00,
2013-11-24 12:28:00,48.0,48.0,30.35,NNE,32,10.0,10.0,100,0.00,,OVC012,0.00,VWS V14.01,2013-11-24 17:28:00,
2013-11-24 12:29:00,48.0,48.0,30.35,NW,307,7.0,10.0,100,0.00,,OVC012,0.00,VWS V14.01,2013-11-24 17:29:00,
2013-11-24 12:30:00,48.0,48.0,30.35,NNW,345,11.0,17.0,100,0.00,,OVC012,0.00,VWS V14.01,2013-11-24 17:30:00,
2013-11-24 12:31:00,48.0,48.0,30.36,NNE,32,2.0,12.0,100,0.00,,OVC012,0.00,VWS V14.01,2013-11-24 17:31:00,
2013-11-24 12:32:00,48.0,48.0,30.35,NW,326,10.0,16.0,100,0.00,,CLR,0.00,VWS V14.01,2013-11-24 17:32:00,
2013-11-24 12:33:00,48.0,48.0,30.35,ENE,71,5.0,16.0,100,0.00,,OVC012,0.00,VWS V14.01,2013-11-24 17:33:00,
2013-11-24 12:34:00,48.0,48.0,30.35,NNW,328,9.0,9.0,100,0.00,,OVC012,0.00,VWS V14.01,2013-11-24 17:34:00,
2013-11-24 12:35:00,48.0,48.0,30.35,NNW,340,5.0,12.0,100,0.00,,OVC012,0.00,VWS V14.01,2013-11-24 17:35:00,
2013-11-24 12:36:00,48.0,48.0,30.35,NW,319,5.0,15.0,100,0.00,,OVC012,0.00,VWS V14.01,2013-11-24 17:36:00,
2013-11-24 12:37:00,48.0,48.0,30.35,NW,319,10.0,10.0,100,0.00,,CLR,0.00,VWS V14.01,2013-11-24 17:37:00,
2013-11-24 12:38:00,48.0,48.0,30.35,NNE,27,8.0,10.0,100,0.00,,OVC012,0.00,VWS V14.01,2013-11-24 17:38:00,
2013-11-24 12:39:00,48.2,48.2,30.35,NNW,343,9.0,12.0,100,0.00,,OVC012,0.00,VWS V14.01,2013-11-24 17:39:00,
2013-11-24 12:40:00,48.0,48.0,30.35,NNW,346,5.0,10.0,100,0.00,,OVC012,0.00,VWS V14.01,2013-11-24 17:40:00,
2013-11-24 12:41:00,48.2,48.2,30.35,NW,317,6.0,9.0,100,0.00,,OVC012,0.00,VWS V14.01,2013-11-24 17:41:00,
2013-11-24 12:42:00,48.2,48.2,30.35,NNE,31,7.0,10.0,100,0.00,,CLR,0.00,VWS V14.01,2013-11-24 17:42:00,
2013-11-24 12:43:00,48.2,48.2,30.35,NNW,333,14.0,14.0,100,0.00,,OVC012,0.00,VWS V14.01,2013-11-24 17:43:00,
2013-11-24 12:44:00,48.2,48.2,30.35,NNW,329,4.0,14.0,100,0.00,,OVC012,0.00,VWS V14.01,2013-11-24 17:44:00,
2013-11-24 12:45:00,48.2,48.2,30.35,ENE,64,10.0,10.0,100,0.00,,OVC012,0.00,VWS V14.01,2013-11-24 17:45:00,
2013-11-24 12:46:00,48.3,48.3,30.35,NW,326,16.0,16.0,100,0.00,,OVC012,0.00,VWS V14.01,2013-11-24 17:46:00,
2013-11-24 12:47:00,48.3,48.3,30.35,NNE,24,3.0,5.0,100,0.00,,CLR,0.00,VWS V14.01,2013-11-24 17:47:00,
2013-11-24 12:48:00,48.3,48.3,30.35,NNW,336,10.0,10.0,100,0.00,,OVC012,0.00,VWS V14.01,2013-11-24 17:48:00,
2013-11-24 12:49:00,48.3,48.3,30.34,NW,323,5.0,10.0,100,0.00,,OVC012,0.00,VWS V14.01,2013-11-24 17:49:00,
2013-11-24 12:50:00,48.3,48.3,30.34,NNW,332,5.0,7.0,100,0.00,,OVC012,0.00,VWS V14.01,2013-11-24 17:50:00,
2013-11-24 12:51:00,48.3,48.3,30.34,NNE,32,6.0,11.0,100,0.00,,OVC012,0.00,VWS V14.01,2013-11-24 17:51:00,
2013-11-24 12:52:00,48.3,48.3,30.34,NW,309,10.0,11.0,100,0.00,,CLR,0.00,VWS V14.01,2013-11-24 17:52:00,
2013-11-24 12:53:00,48.3,48.3,30.34,North,360,19.0,19.0,100,0.00,,OVC012,0.00,VWS V14.01,2013-11-24 17:53:00,
2013-11-24 12:54:00,48.3,48.3,30.34,NNE,32,15.0,19.0,100,0.00,,OVC012,0.00,VWS V14.01,2013-11-24 17:54:00,
2013-11-24 12:55:00,48.3,48.3,30.34,NNW,342,5.0,15.0,100,0.00,,OVC012,0.00,VWS V14.01,2013-11-24 17:55:00,
2013-11-24 12:56:00,48.2,48.2,30.35,NE,47,9.0,9.0,100,0.00,,OVC012,0.00,VWS V14.01,2013-11-24 17:56:00,
2013-11-24 12:57:00,48.2,48.2,30.34,NE,34,6.0,23.0,100,0.00,,CLR,0.00,VWS V14.01,2013-11-24 17:57:00,
2013-11-24 12:58:00,48.2,48.2,30.34,NE,47,5.0,23.0,100,0.00,,OVC012,0.00,VWS V14.01,2013-11-24 17:58:00,
2013-11-24 12:59:00,48.2,48.2,30.34,NE,44,11.0,13.0,100,0.00,,OVC012,0.00,VWS V14.01,2013-11-24 17:59:00,
2013-11-24 13:00:00,48.0,48.0,30.34,WNW,290,11.0,11.0,100,0.00,,OVC012,0.00,VWS V14.01,2013-11-24 18:00:00,
2013-11-24 13:01:00,48.0,48.0,30.34,North,355,5.0,11.0,100,0.00,,OVC012,0.00,VWS V14.01,2013-11-24 18:01:00,
2013-11-24 13:02:00,48.0,48.0,30.34,NNE,12,12.0,16.0,100,0.00,,CLR,0.00,VWS V14.01,2013-11-24 18:02:00,
2013-11-24 13:03:00,48.0,48.0,30.34,NE,35,2.0,16.0,100,0.00,,OVC012,0.00,VWS V14.01,2013-11-24 18:03:00,
2013-11-24 13:04:00,48.0,48.0,30.34,North,9,7.0,9.0,100,0.00,,OVC012,0.00,VWS V14.01,2013-11-24 18:04:00,
2013-11-24 13:05:00,48.0,48.0,30.34,NE,34,8.0,9.0,100,0.00,,OVC012,0.00,VWS V14.01,2013-11-24 18:05:00,
2013-11-24 13:06:00,47.9,47.9,30.34,ESE,109,3.0,12.0,100,0.00,,OVC012,0.00,VWS V14.01,2013-11-24 18:06:00,
2013-11-24 13:07:00,48.0,48.0,30.34,North,5,8.0,8.0,100,0.00,,CLR,0.00,VWS V14.01,2013-11-24 18:07:00,
2013-11-24 13:08:00,48.0,48.0,30.34,North,5,3.0,8.0,100,0.00,,OVC012,0.00,VWS V14.01,2013-11-24 18:08:00,
2013-11-24 13:09:00,48.0,48.0,30.34,NE,53,12.0,12.0,100,0.00,,OVC012,0.00,VWS V14.01,2013-11-24 18:09:00,
2013-11-24 13:10:00,48.0,48.0,30.34,NE,42,5.0,12.0,100,0.00,,OVC012,0.00,VWS V14.01,2013-11-24 18:10:00,
2013-11-24 13:11:00,47.9,47.9,30.34,NNW,342,6.0,12.0,100,0.00,,OVC012,0.00,VWS V14.01,2013-11-24 18:11:00,
2013-11-24 13:12:00,47.9,47.9,30.34,NW,323,6.0,9.0,100,0.00,,CLR,0.00,VWS V14.01,2013-11-24 18:12:00,
2013-11-24 13:13:00,47.7,47.7,30.34,ENE,65,9.0,9.0,100,0.00,,OVC012,0.00,VWS V14.01,2013-11-24 18:13:00,
2013-11-24 13:14:00,47.7,47.7,30.34,North,10,12.0,12.0,100,0.00,,OVC012,0.00,VWS V14.01,2013-11-24 18:14:00,
2013-11-24 13:15:00,47.7,47.7,30.34,East,94,6.0,12.0,100,0.00,,OVC012,0.00,VWS V14.01,2013-11-24 18:15:00,
2013-11-24 13:16:00,47.6,47.6,30.34,NNE,12,13.0,13.0,100,0.00,,OVC012,0.00,VWS V14.01,2013-11-24 18:16:00,
2013-11-24 13:17:00,47.6,47.6,30.34,NNW,336,8.0,11.0,100,0.00,,CLR,0.00,VWS V14.01,2013-11-24 18:17:00,
2013-11-24 13:18:00,47.6,47.6,30.34,NNE,26,11.0,11.0,100,0.00,,OVC012,0.00,VWS V14.01,2013-11-24 18:18:00,
2013-11-24 13:19:00,47.4,47.4,30.34,NE,49,11.0,19.0,100,0.00,,OVC012,0.00,VWS V14.01,2013-11-24 18:19:00,
2013-11-24 13:20:00,47.6,47.6,30.34,NNW,332,9.0,11.0,100,0.00,,OVC012,0.00,VWS V14.01,2013-11-24 18:20:00,
2013-11-24 13:21:00,47.6,47.6,30.34,NNE,30,12.0,16.0,100,0.00,,OVC012,0.00,VWS V14.01,2013-11-24 18:21:00,
2013-11-24 13:22:00,47.6,47.6,30.34,North,355,12.0,12.0,100,0.00,,CLR,0.00,VWS V14.01,2013-11-24 18:22:00,
2013-11-24 13:23:00,47.6,47.6,30.34,NNW,346,5.0,12.0,100,0.00,,OVC012,0.00,VWS V14.01,2013-11-24 18:23:00,
2013-11-24 13:24:00,47.6,47.6,30.34,ENE,76,8.0,8.0,100,0.00,,OVC012,0.00,VWS V14.01,2013-11-24 18:24:00,
2013-11-24 13:25:00,47.6,47.6,30.34,NNE,21,6.0,8.0,100,0.00,,OVC012,0.00,VWS V14.01,2013-11-24 18:25:00,
2013-11-24 13:26:00,47.6,47.6,30.34,NNE,26,5.0,6.0,100,0.00,,OVC012,0.00,VWS V14.01,2013-11-24 18:26:00,
2013-11-24 13:27:00,47.7,47.7,30.34,ENE,57,4.0,6.0,100,0.00,,CLR,0.00,VWS V14.01,2013-11-24 18:27:00,
2013-11-24 13:28:00,47.7,47.7,30.34,NW,322,10.0,10.0,100,0.00,,OVC012,0.00,VWS V14.01,2013-11-24 18:28:00,
2013-11-24 13:29:00,47.7,47.7,30.33,NNE,19,5.0,10.0,100,0.00,,OVC012,0.00,VWS V14.01,2013-11-24 18:29:00,
2013-11-24 13:30:00,47.9,47.9,30.33,NE,47,5.0,5.0,100,0.00,,OVC012,0.00,VWS V14.01,2013-11-24 18:30:00,
2013-11-24 13:31:00,48.0,48.0,30.33,ENE,65,5.0,6.0,100,0.00,,OVC012,0.00,VWS V14.01,2013-11-24 18:31:00,
2013-11-24 13:32:00,48.2,48.2,30.33,North,351,5.0,10.0,100,0.00,,CLR,0.00,VWS V14.01,2013-11-24 18:32:00,
2013-11-24 13:33:00,48.2,48.2,30.33,NW,325,10.0,10.0,100,0.00,,OVC012,0.00,VWS V14.01,2013-11-24 18:33:00,
2013-11-24 13:34:00,48.2,48.2,30.33,WNW,298,7.0,10.0,100,0.00,,OVC012,0.00,VWS V14.01,2013-11-24 18:34:00,
2013-11-24 13:35:00,48.2,48.2,30.33,NNW,329,14.0,15.0,100,0.00,,OVC012,0.00,VWS V14.01,2013-11-24 18:35:00,
2013-11-24 13:36:00,48.2,48.2,30.33,NNW,327,14.0,14.0,100,0.00,,OVC012,0.00,VWS V14.01,2013-11-24 18:36:00,
2013-11-24 13:37:00,48.2,48.2,30.33,WNW,298,11.0,14.0,100,0.00,,CLR,0.00,VWS V14.01,2013-11-24 18:37:00,
2013-11-24 13:38:00,48.2,48.2,30.33,NNW,348,6.0,14.0,100,0.00,,OVC012,0.00,VWS V14.01,2013-11-24 18:38:00,
2013-11-24 13:39:00,48.2,48.2,30.33,ENE,65,3.0,6.0,100,0.00,,OVC012,0.00,VWS V14.01,2013-11-24 18:39:00,
2013-11-24 13:40:00,48.2,48.2,30.33,North,360,5.0,14.0,100,0.00,,OVC012,0.00,VWS V14.01,2013-11-24 18:40:00,
2013-11-24 13:41:00,48.2,48.2,30.33,NE,47,13.0,13.0,100,0.00,,OVC012,0.00,VWS V14.01,2013-11-24 18:41:00,
2013-11-24 13:42:00,48.3,48.3,30.33,NNW,331,8.0,11.0,100,0.00,,CLR,0.00,VWS V14.01,2013-11-24 18:42:00,
2013-11-24 13:43:00,48.3,48.3,30.33,NW,319,15.0,15.0,100,0.00,,OVC012,0.00,VWS V14.01,2013-11-24 18:43:00,
2013-11-24 13:44:00,48.5,48.5,30.33,NW,323,6.0,15.0,100,0.00,,OVC012,0.00,VWS V14.01,2013-11-24 18:44:00,
2013-11-24 13:45:00,48.5,48.5,30.33,ENE,57,6.0,8.0,100,0.00,,OVC012,0.00,VWS V14.01,2013-11-24 18:45:00,
2013-11-24 13:46:00,48.5,48.5,30.33,NW,312,7.0,17.0,100,0.00,,OVC012,0.00,VWS V14.01,2013-11-24 18:46:00,
2013-11-24 13:47:00,48.3,48.3,30.33,NW,326,12.0,14.0,100,0.00,,CLR,0.00,VWS V14.01,2013-11-24 18:47:00,
2013-11-24 13:48:00,48.3,48.3,30.33,NE,39,10.0,14.0,100,0.00,,OVC012,0.00,VWS V14.01,2013-11-24 18:48:00,
2013-11-24 13:49:00,48.2,48.2,30.33,NNW,342,11.0,11.0,100,0.00,,OVC012,0.00,VWS V14.01,2013-11-24 18:49:00,
2013-11-24 13:50:00,48.2,48.2,30.33,NNW,347,10.0,11.0,100,0.00,,OVC012,0.00,VWS V14.01,2013-11-24 18:50:00,
2013-11-24 13:51:00,48.2,48.2,30.33,North,360,8.0,11.0,100,0.00,,OVC012,0.00,VWS V14.01,2013-11-24 18:51:00,
2013-11-24 13:52:00,48.2,48.2,30.33,NE,46,3.0,6.0,100,0.00,,CLR,0.00,VWS V14.01,2013-11-24 18:52:00,
2013-11-24 13:53:00,48.3,48.3,30.33,NW,326,4.0,6.0,100,0.00,,OVC012,0.00,VWS V14.01,2013-11-24 18:53:00,
2013-11-24 13:54:00,48.3,48.3,30.33,NNW,329,8.0,8.0,100,0.00,,OVC012,0.00,VWS V14.01,2013-11-24 18:54:00,
2013-11-24 13:55:00,48.5,48.5,30.33,East,98,7.0,11.0,100,0.00,,OVC012,0.00,VWS V14.01,2013-11-24 18:55:00,
2013-11-24 13:56:00,48.5,48.5,30.33,North,9,2.0,7.0,100,0.00,,OVC012,0.00,VWS V14.01,2013-11-24 18:56:00,
2013-11-24 13:57:00,48.6,48.6,30.33,NNE,32,5.0,10.0,100,0.00,,CLR,0.00,VWS V14.01,2013-11-24 18:57:00,
2013-11-24 13:58:00,48.8,48.8,30.33,NE,50,7.0,12.0,100,0.00,,OVC012,0.00,VWS V14.01,2013-11-24 18:58:00,
2013-11-24 13:59:00,48.8,48.8,30.33,NE,34,6.0,9.0,100,0.00,,OVC012,0.00,VWS V14.01,2013-11-24 18:59:00,
2013-11-24 14:00:00,48.9,48.9,30.33,NW,311,10.0,11.0,100,0.00,,OVC012,0.00,VWS V14.01,2013-11-24 19:00:00,
2013-11-24 14:01:00,48.9,48.9,30.33,NNW,340,6.0,11.0,100,0.00,,OVC012,0.00,VWS V14.01,2013-11-24 19:01:00,
2013-11-24 14:02:00,48.9,48.9,30.33,NW,322,6.0,11.0,100,0.00,,CLR,0.00,VWS V14.01,2013-11-24 19:02:00,
2013-11-24 14:03:00,48.9,48.9,30.33,North,355,4.0,11.0,100,0.00,,OVC012,0.00,VWS V14.01,2013-11-24 19:03:00,
2013-11-24 14:04:00,48.9,48.9,30.33,North,355,14.0,15.0,100,0.00,,OVC012,0.00,VWS V14.01,2013-11-24 19:04:00,
2013-11-24 14:05:00,48.9,48.9,30.33,NE,34,9.0,14.0,100,0.00,,OVC012,0.00,VWS V14.01,2013-11-24 19:05:00,
2013-11-24 14:06:00,48.9,48.9,30.33,North,355,10.0,10.0,100,0.00,,OVC012,0.00,VWS V14.01,2013-11-24 19:06:00,
2013-11-24 14:07:00,48.8,48.8,30.33,ENE,72,4.0,9.0,100,0.00,,CLR,0.00,VWS V14.01,2013-11-24 19:07:00,
2013-11-24 14:08:00,48.8,48.8,30.33,NW,315,6.0,9.0,100,0.00,,OVC012,0.00,VWS V14.01,2013-11-24 19:08:00,
2013-11-24 14:09:00,48.9,48.9,30.33,NNW,339,4.0,6.0,100,0.00,,OVC012,0.00,VWS V14.01,2013-11-24 19:09:00,
2013-11-24 14:10:00,48.9,48.9,30.33,NNW,342,6.0,9.0,100,0.00,,OVC012,0.00,VWS V14.01,2013-11-24 19:10:00,
2013-11-24 14:11:00,48.9,48.9,30.33,North,355,10.0,10.0,100,0.00,,OVC012,0.00,VWS V14.01,2013-11-24 19:11:00,
2013-11-24 14:12:00,48.8,48.8,30.33,ENE,63,6.0,10.0,100,0.00,,CLR,0.00,VWS V14.01,2013-11-24 19:12:00,
2013-11-24 14:13:00,48.6,48.6,30.33,NNW,343,12.0,12.0,100,0.00,,OVC012,0.00,VWS V14.01,2013-11-24 19:13:00,
2013-11-24 14:14:00,48.6,48.6,30.33,ENE,69,7.0,12.0,100,0.00,,OVC012,0.00,VWS V14.01,2013-11-24 19:14:00,
2013-11-24 14:15:00,48.6,48.6,30.33,NE,55,7.0,10.0,100,0.00,,OVC012,0.00,VWS V14.01,2013-11-24 19:15:00,
2013-11-24 14:16:00,48.6,48.6,30.33,NNW,347,7.0,7.0,100,0.00,,OVC012,0.00,VWS V14.01,2013-11-24 19:16:00,
2013-11-24 14:17:00,48.6,48.6,30.33,NW,326,5.0,5.0,100,0.00,,CLR,0.00,VWS V14.01,2013-11-24 19:17:00,
2013-11-24 14:18:00,48.6,48.6,30.33,NNE,12,13.0,13.0,100,0.00,,OVC012,0.00,VWS V14.01,2013-11-24 19:18:00,
2013-11-24 14:19:00,48.8,48.8,30.33,NE,55,5.0,13.0,100,0.00,,OVC012,0.00,VWS V14.01,2013-11-24 19:19:00,
2013-11-24 14:20:00,48.8,48.8,30.33,NNE,21,12.0,12.0,100,0.00,,OVC012,0.00,VWS V14.01,2013-11-24 19:20:00,
2013-11-24 14:21:00,48.8,48.8,30.33,NNW,347,6.0,12.0,100,0.00,,OVC012,0.00,VWS V14.01,2013-11-24 19:21:00,
2013-11-24 14:22:00,48.9,48.9,30.33,NE,50,6.0,14.0,100,0.00,,CLR,0.00,VWS V14.01,2013-11-24 19:22:00,
2013-11-24 14:23:00,48.9,48.9,30.33,NE,38,4.0,14.0,100,0.00,,OVC012,0.00,VWS V14.01,2013-11-24 19:23:00,
2013-11-24 14:24:00,48.9,48.9,30.33,North,349,6.0,6.0,100,0.00,,OVC012,0.00,VWS V14.01,2013-11-24 19:24:00,
2013-11-24 14:25:00,48.9,48.9,30.33,NE,36,2.0,10.0,100,0.00,,OVC012,0.00,VWS V14.01,2013-11-24 19:25:00,
2013-11-24 14:26:00,49.1,49.1,30.33,NNE,18,3.0,11.0,100,0.00,,OVC012,0.00,VWS V14.01,2013-11-24 19:26:00,
2013-11-24 14:27:00,49.1,49.1,30.32,NE,40,5.0,7.0,100,0.00,,CLR,0.00,VWS V14.01,2013-11-24 19:27:00,
2013-11-24 14:28:00,49.1,49.1,30.32,NE,54,11.0,11.0,100,0.00,,OVC012,0.00,VWS V14.01,2013-11-24 19:28:00,
2013-11-24 14:29:00,49.1,49.1,30.32,NE,36,5.0,11.0,100,0.00,,OVC012,0.00,VWS V14.01,2013-11-24 19:29:00,
2013-11-24 14:30:00,49.1,49.1,30.33,NW,311,10.0,10.0,100,0.00,,OVC012,0.00,VWS V14.01,2013-11-24 19:30:00,
2013-11-24 14:31:00,49.1,49.1,30.32,WNW,287,9.0,10.0,100,0.00,,OVC012,0.00,VWS V14.01,2013-11-24 19:31:00,
2013-11-24 14:32:00,49.1,49.1,30.32,North,360,4.0,9.0,100,0.00,,CLR,0.00,VWS V14.01,2013-11-24 19:32:00,
2013-11-24 14:33:00,49.1,49.1,30.32,NE,44,6.0,9.0,100,0.00,,OVC012,0.00,VWS V14.01,2013-11-24 19:33:00,
2013-11-24 14:34:00,49.1,49.1,30.33,NNE,15,8.0,11.0,100,0.00,,OVC012,0.00,VWS V14.01,2013-11-24 19:34:00,
2013-11-24 14:35:00,49.1,49.1,30.33,NW,314,6.0,11.0,100,0.00,,OVC012,0.00,VWS V14.01,2013-11-24 19:35:00,
2013-11-24 14:36:00,49.1,49.1,30.32,North,5,6.0,10.0,100,0.00,,OVC012,0.00,VWS V14.01,2013-11-24 19:36:00,
2013-11-24 14:37:00,49.1,49.1,30.32,NNE,23,4.0,9.0,100,0.00,,CLR,0.00,VWS V14.01,2013-11-24 19:37:00,
2013-11-24 14:38:00,49.1,49.1,30.32,NNE,27,10.0,10.0,100,0.00,,OVC012,0.00,VWS V14.01,2013-11-24 19:38:00,
2013-11-24 14:39:00,49.1,49.1,30.32,NNE,19,5.0,10.0,100,0.00,,OVC012,0.00,VWS V14.01,2013-11-24 19:39:00,
2013-11-24 14:40:00,48.9,48.9,30.33,NE,42,5.0,11.0,100,0.00,,OVC012,0.00,VWS V14.01,2013-11-24 19:40:00,
2013-11-24 14:41:00,48.9,48.9,30.33,NE,55,3.0,11.0,100,0.00,,OVC012,0.00,VWS V14.01,2013-11-24 19:41:00,
2013-11-24 14:42:00,48.8,48.8,30.33,ENE,63,4.0,7.0,100,0.00,,CLR,0.00,VWS V14.01,2013-11-24 19:42:00,
2013-11-24 14:43:00,48.8,48.8,30.33,NNE,20,9.0,9.0,100,0.00,,OVC012,0.00,VWS V14.01,2013-11-24 19:43:00,
2013-11-24 14:44:00,48.8,48.8,30.32,ENE,61,5.0,10.0,100,0.00,,OVC012,0.00,VWS V14.01,2013-11-24 19:44:00,
2013-11-24 14:45:00,48.8,48.8,30.31,NE,35,7.0,11.0,100,0.00,,OVC012,0.00,VWS V14.01,2013-11-24 19:45:00,
2013-11-24 14:46:00,48.8,48.8,30.32,NNE,32,4.0,7.0,100,0.00,,OVC012,0.00,VWS V14.01,2013-11-24 19:46:00,
2013-11-24 14:47:00,48.8,48.8,30.33,NE,41,7.0,7.0,100,0.00,,CLR,0.00,VWS V14.01,2013-11-24 19:47:00,
2013-11-24 14:48:00,48.8,48.8,30.33,NE,37,6.0,7.0,100,0.00,,OVC012,0.00,VWS V14.01,2013-11-24 19:48:00,
2013-11-24 14:49:00,48.8,48.8,30.32,NE,40,10.0,10.0,100,0.00,,OVC012,0.00,VWS V14.01,2013-11-24 19:49:00,
2013-11-24 14:50:00,48.8,48.8,30.32,NE,51,10.0,13.0,100,0.00,,OVC012,0.00,VWS V14.01,2013-11-24 19:50:00,
2013-11-24 14:51:00,48.8,48.8,30.32,NNE,16,8.0,10.0,100,0.00,,OVC012,0.00,VWS V14.01,2013-11-24 19:51:00,
2013-11-24 14:52:00,48.9,48.9,30.33,NW,317,11.0,11.0,100,0.00,,CLR,0.00,VWS V14.01,2013-11-24 19:52:00,
2013-11-24 14:53:00,48.9,48.9,30.33,NE,44,17.0,17.0,100,0.00,,OVC012,0.00,VWS V14.01,2013-11-24 19:53:00,
2013-11-24 14:54:00,48.9,48.9,30.33,NE,43,13.0,17.0,100,0.00,,OVC012,0.00,VWS V14.01,2013-11-24 19:54:00,
2013-11-24 14:55:00,48.8,48.8,30.33,NE,49,7.0,13.0,100,0.00,,OVC012,0.00,VWS V14.01,2013-11-24 19:55:00,
2013-11-24 14:56:00,48.8,48.8,30.33,NE,45,5.0,11.0,100,0.00,,OVC012,0.00,VWS V14.01,2013-11-24 19:56:00,
2013-11-24 14:57:00,48.8,48.8,30.33,NNE,19,9.0,9.0,100,0.00,,CLR,0.00,VWS V14.01,2013-11-24 19:57:00,
2013-11-24 14:58:00,48.8,48.8,30.33,NE,46,6.0,9.0,100,0.00,,OVC012,0.00,VWS V14.01,2013-11-24 19:58:00,
2013-11-24 14:59:00,48.8,48.8,30.33,NNE,30,3.0,8.0,100,0.00,,OVC012,0.00,VWS V14.01,2013-11-24 19:59:00,
2013-11-24 15:00:00,48.8,48.8,30.33,NNE,15,3.0,13.0,100,0.00,,OVC012,0.00,VWS V14.01,2013-11-24 20:00:00,
2013-11-24 15:01:00,48.8,48.8,30.33,NE,50,5.0,5.0,100,0.00,,OVC012,0.00,VWS V14.01,2013-11-24 20:01:00,
2013-11-24 15:02:00,48.9,48.9,30.33,NNE,26,3.0,7.0,100,0.00,,CLR,0.00,VWS V14.01,2013-11-24 20:02:00,
2013-11-24 15:03:00,48.9,48.9,30.33,North,355,6.0,7.0,100,0.00,,OVC012,0.00,VWS V14.01,2013-11-24 20:03:00,
2013-11-24 15:04:00,49.1,49.1,30.33,NNE,20,3.0,6.0,100,0.00,,OVC012,0.00,VWS V14.01,2013-11-24 20:04:00,
2013-11-24 15:05:00,49.1,49.1,30.33,NNE,27,2.0,5.0,100,0.00,,OVC012,0.00,VWS V14.01,2013-11-24 20:05:00,
2013-11-24 15:06:00,49.2,49.2,30.33,ENE,61,1.0,5.0,100,0.00,,OVC012,0.00,VWS V14.01,2013-11-24 20:06:00,
2013-11-24 15:07:00,49.2,49.2,30.33,NE,56,3.0,5.0,100,0.00,,CLR,0.00,VWS V14.01,2013-11-24 20:07:00,
2013-11-24 15:08:00,49.2,49.2,30.33,NE,56,2.0,5.0,100,0.00,,OVC012,0.00,VWS V14.01,2013-11-24 20:08:00,
2013-11-24 15:09:00,49.2,49.2,30.33,NE,48,5.0,7.0,100,0.00,,OVC012,0.00,VWS V14.01,2013-11-24 20:09:00,
2013-11-24 15:10:00,49.2,49.2,30.34,North,9,5.0,5.0,100,0.00,,OVC012,0.00,VWS V14.01,2013-11-24 20:10:00,
2013-11-24 15:11:00,49.4,49.4,30.33,NNE,12,6.0,9.0,100,0.00,,OVC012,0.00,VWS V14.01,2013-11-24 20:11:00,
2013-11-24 15:12:00,49.4,49.4,30.34,NNE,23,3.0,6.0,100,0.00,,CLR,0.00,VWS V14.01,2013-11-24 20:12:00,
2013-11-24 15:13:00,49.4,49.4,30.34,NNE,14,10.0,10.0,100,0.00,,OVC012,0.00,VWS V14.01,2013-11-24 20:13:00,
2013-11-24 15:14:00,49.4,49.4,30.26,NNE,22,3.0,10.0,100,0.00,,OVC012,0.00,VWS V14.01,2013-11-24 20:14:00,
2013-11-24 15:15:00,49.4,49.4,30.26,NE,55,6.0,8.0,100,0.00,,OVC012,0.00,VWS V14.01,2013-11-24 20:15:00,
2013-11-24 15:16:00,49.4,49.4,30.26,North,360,6.0,9.0,100,0.00,,OVC012,0.00,VWS V14.01,2013-11-24 20:16:00,
2013-11-24 15:17:00,49.2,49.2,30.30,NNE,28,4.0,13.0,100,0.00,,CLR,0.00,VWS V14.01,2013-11-24 20:17:00,
2013-11-24 15:18:00,49.2,49.2,30.30,ENE,69,11.0,13.0,100,0.00,,OVC012,0.00,VWS V14.01,2013-11-24 20:18:00,
2013-11-24 15:19:00,49.1,49.1,30.30,North,360,5.0,15.0,100,0.00,,OVC012,0.00,VWS V14.01,2013-11-24 20:19:00,
2013-11-24 15:20:00,48.9,48.9,30.30,ENE,65,4.0,11.0,100,0.00,,OVC012,0.00,VWS V14.01,2013-11-24 20:20:00,
2013-11-24 15:21:00,48.9,48.9,30.30,NNE,28,6.0,7.0,100,0.00,,OVC012,0.00,VWS V14.01,2013-11-24 20:21:00,
2013-11-24 15:22:00,48.9,48.9,30.30,NNE,26,4.0,6.0,100,0.00,,CLR,0.00,VWS V14.01,2013-11-24 20:22:00,
2013-11-24 15:23:00,48.9,48.9,30.30,NE,38,3.0,6.0,100,0.00,,OVC012,0.00,VWS V14.01,2013-11-24 20:23:00,
2013-11-24 15:24:00,48.9,48.9,30.30,NNW,330,9.0,9.0,100,0.00,,OVC012,0.00,VWS V14.01,2013-11-24 20:24:00,
2013-11-24 15:25:00,48.9,48.9,30.30,ENE,65,4.0,9.0,100,0.00,,OVC012,0.00,VWS V14.01,2013-11-24 20:25:00,
2013-11-24 15:26:00,48.9,48.9,30.30,NNW,335,3.0,9.0,100,0.00,,OVC012,0.00,VWS V14.01,2013-11-24 20:26:00,
2013-11-24 15:27:00,48.9,48.9,30.30,ENE,71,4.0,5.0,100,0.00,,CLR,0.00,VWS V14.01,2013-11-24 20:27:00,
2013-11-24 15:28:00,48.9,48.9,30.30,NNE,19,14.0,14.0,100,0.00,,OVC012,0.00,VWS V14.01,2013-11-24 20:28:00,
2013-11-24 15:29:00,48.9,48.9,30.30,NNW,333,10.0,14.0,100,0.00,,OVC012,0.00,VWS V14.01,2013-11-24 20:29:00,
2013-11-24 15:30:00,48.8,48.8,30.30,NE,42,7.0,12.0,100,0.00,,OVC012,0.00,VWS V14.01,2013-11-24 20:30:00,
2013-11-24 15:31:00,48.8,48.8,30.30,NW,319,10.0,10.0,100,0.00,,OVC012,0.00,VWS V14.01,2013-11-24 20:31:00,
2013-11-24 15:32:00,48.8,48.8,30.25,NNE,23,6.0,9.0,100,0.00,,CLR,0.00,VWS V14.01,2013-11-24 20:32:00,
2013-11-24 15:33:00,48.8,48.8,30.25,NNE,20,3.0,9.0,100,0.00,,OVC012,0.00,VWS V14.01,2013-11-24 20:33:00,
2013-11-24 15:34:00,48.8,48.8,30.30,North,351,7.0,9.0,100,0.00,,OVC012,0.00,VWS V14.01,2013-11-24 20:34:00,
2013-11-24 15:35:00,48.8,48.8,30.30,NNW,345,13.0,13.0,100,0.00,,OVC012,0.00,VWS V14.01,2013-11-24 20:35:00,
2013-11-24 15:36:00,48.6,48.6,30.30,NNW,340,4.0,13.0,100,0.00,,OVC012,0.00,VWS V14.01,2013-11-24 20:36:00,
2013-11-24 15:37:00,48.6,48.6,30.30,NW,312,13.0,13.0,100,0.00,,FEW200,0.00,VWS V14.01,2013-11-24 20:37:00,
2013-11-24 15:38:00,48.6,48.6,30.30,NNE,19,6.0,13.0,100,0.00,,OVC012,0.00,VWS V14.01,2013-11-24 20:38:00,
2013-11-24 15:39:00,48.6,48.6,30.30,NE,34,5.0,9.0,100,0.00,,OVC012,0.00,VWS V14.01,2013-11-24 20:39:00,
2013-11-24 15:40:00,48.6,48.6,30.30,NE,40,7.0,7.0,100,0.00,,OVC012,0.00,VWS V14.01,2013-11-24 20:40:00,
2013-11-24 15:41:00,48.6,48.6,30.30,NNW,342,13.0,14.0,100,0.00,,OVC012,0.00,VWS V14.01,2013-11-24 20:41:00,
2013-11-24 15:42:00,48.5,48.5,30.34,East,101,6.0,7.0,100,0.00,,FEW200,0.00,VWS V14.01,2013-11-24 20:42:00,
2013-11-24 15:43:00,48.5,48.5,30.34,NNE,22,10.0,10.0,100,0.00,,OVC012,0.00,VWS V14.01,2013-11-24 20:43:00,
2013-11-24 15:44:00,48.3,48.3,30.34,NNW,336,6.0,10.0,100,0.00,,OVC012,0.00,VWS V14.01,2013-11-24 20:44:00,
2013-11-24 15:45:00,48.3,48.3,30.34,North,9,3.0,7.0,100,0.00,,OVC012,0.00,VWS V14.01,2013-11-24 20:45:00,
2013-11-24 15:46:00,48.5,48.5,30.34,NE,39,9.0,9.0,100,0.00,,OVC012,0.00,VWS V14.01,2013-11-24 20:46:00,
2013-11-24 15:47:00,48.3,48.3,30.33,NE,52,6.0,7.0,100,0.00,,FEW200,0.00,VWS V14.01,2013-11-24 20:47:00,
2013-11-24 15:48:00,48.3,48.3,30.33,NE,38,6.0,7.0,100,0.00,,OVC012,0.00,VWS V14.01,2013-11-24 20:48:00,
2013-11-24 15:49:00,48.3,48.3,30.33,ENE,76,5.0,16.0,100,0.00,,OVC012,0.00,VWS V14.01,2013-11-24 20:49:00,
2013-11-24 15:50:00,48.3,48.3,30.33,NNW,344,10.0,11.0,100,0.00,,OVC012,0.00,VWS V14.01,2013-11-24 20:50:00,
2013-11-24 15:51:00,48.2,48.2,30.33,NNW,328,9.0,10.0,100,0.00,,OVC012,0.00,VWS V14.01,2013-11-24 20:51:00,
2013-11-24 15:52:00,48.2,48.2,30.22,ENE,69,5.0,10.0,100,0.00,,FEW200,0.00,VWS V14.01,2013-11-24 20:52:00,
2013-11-24 15:53:00,48.2,48.2,30.22,WNW,293,7.0,10.0,100,0.00,,OVC012,0.00,VWS V14.01,2013-11-24 20:53:00,
2013-11-24 15:54:00,48.2,48.2,30.22,North,355,6.0,11.0,100,0.00,,OVC012,0.00,VWS V14.01,2013-11-24 20:54:00,
2013-11-24 15:55:00,48.0,48.0,30.22,North,5,3.0,6.0,100,0.00,,OVC012,0.00,VWS V14.01,2013-11-24 20:55:00,
2013-11-24 15:56:00,48.0,48.0,30.22,NNW,332,5.0,12.0,100,0.00,,OVC012,0.00,VWS V14.01,2013-11-24 20:56:00,
2013-11-24 15:57:00,48.0,48.0,30.22,North,351,7.0,11.0,100,0.00,,FEW200,0.00,VWS V14.01,2013-11-24 20:57:00,
2013-11-24 15:58:00,47.9,47.9,30.22,NE,34,9.0,11.0,100,0.00,,OVC012,0.00,VWS V14.01,2013-11-24 20:58:00,
2013-11-24 15:59:00,47.9,47.9,30.09,NNW,339,10.0,13.0,100,0.00,,OVC012,0.00,VWS V14.01,2013-11-24 20:59:00,
2013-11-24 16:00:00,47.7,47.7,30.09,NNW,336,12.0,12.0,100,0.00,,OVC012,0.00,VWS V14.01,2013-11-24 21:00:00,
2013-11-24 16:01:00,47.7,47.7,30.11,NNW,330,10.0,12.0,100,0.00,,OVC012,0.00,VWS V14.01,2013-11-24 21:01:00,
2013-11-24 16:02:00,47.7,47.7,30.11,NNW,341,12.0,12.0,100,0.00,,FEW200,0.00,VWS V14.01,2013-11-24 21:02:00,
2013-11-24 16:03:00,47.6,47.6,30.11,NNW,343,5.0,12.0,100,0.00,,OVC012,0.00,VWS V14.01,2013-11-24 21:03:00,
2013-11-24 16:04:00,47.6,47.6,30.11,NNE,26,6.0,9.0,100,0.00,,OVC012,0.00,VWS V14.01,2013-11-24 21:04:00,
2013-11-24 16:05:00,47.6,47.6,30.11,NNE,32,2.0,9.0,100,0.00,,OVC012,0.00,VWS V14.01,2013-11-24 21:05:00,
2013-11-24 16:06:00,47.6,47.6,30.11,NNW,338,5.0,9.0,100,0.00,,OVC012,0.00,VWS V14.01,2013-11-24 21:06:00,
2013-11-24 16:07:00,47.6,47.6,30.15,NNW,338,5.0,5.0,100,0.00,,FEW200,0.00,VWS V14.01,2013-11-24 21:07:00,
2013-11-24 16:08:00,47.6,47.6,30.15,NE,36,4.0,13.0,100,0.00,,OVC012,0.00,VWS V14.01,2013-11-24 21:08:00,
2013-11-24 16:09:00,47.4,47.4,30.12,NE,53,5.0,8.0,100,0.00,,OVC012,0.00,VWS V14.01,2013-11-24 21:09:00,
2013-11-24 16:10:00,47.4,47.4,30.12,North,351,11.0,11.0,100,0.00,,OVC012,0.00,VWS V14.01,2013-11-24 21:10:00,
2013-11-24 16:11:00,47.4,47.4,30.12,NNE,31,8.0,13.0,100,0.00,,OVC012,0.00,VWS V14.01,2013-11-24 21:11:00,
2013-11-24 16:12:00,47.4,47.4,30.24,NE,36,7.0,9.0,100,0.00,,FEW200,0.00,VWS V14.01,2013-11-24 21:12:00,
2013-11-24 16:13:00,47.4,47.4,30.24,NNE,30,7.0,9.0,100,0.00,,OVC012,0.00,VWS V14.01,2013-11-24 21:13:00,
2013-11-24 16:14:00,47.3,47.3,30.24,NNW,343,6.0,7.0,100,0.00,,OVC012,0.00,VWS V14.01,2013-11-24 21:14:00,
2013-11-24 16:15:00,47.3,47.3,30.24,NE,43,6.0,10.0,100,0.00,,OVC012,0.00,VWS V14.01,2013-11-24 21:15:00,
2013-11-24 16:16:00,47.3,47.3,30.24,North,5,7.0,8.0,100,0.00,,OVC012,0.00,VWS V14.01,2013-11-24 21:16:00,
2013-11-24 16:17:00,47.1,47.1,30.24,NE,34,10.0,10.0,100,0.00,,FEW200,0.00,VWS V14.01,2013-11-24 21:17:00,
2013-11-24 16:18:00,47.1,47.1,30.24,NNE,30,11.0,11.0,100,0.00,,OVC012,0.00,VWS V14.01,2013-11-24 21:18:00,
2013-11-24 16:19:00,47.1,47.1,30.24,North,355,7.0,11.0,100,0.00,,OVC012,0.00,VWS V14.01,2013-11-24 21:19:00,
2013-11-24 16:20:00,47.0,47.0,30.08,North,5,6.0,10.0,100,0.00,,OVC012,0.00,VWS V14.01,2013-11-24 21:20:00,
2013-11-24 16:21:00,47.0,47.0,30.08,North,5,9.0,9.0,100,0.00,,OVC012,0.00,VWS V14.01,2013-11-24 21:21:00,
2013-11-24 16:22:00,47.0,47.0,30.08,NE,43,4.0,4.0,100,0.00,,FEW200,0.00,VWS V14.01,2013-11-24 21:22:00,
2013-11-24 16:23:00,47.0,47.0,30.08,NNW,334,6.0,6.0,100,0.00,,OVC012,0.00,VWS V14.01,2013-11-24 21:23:00,
2013-11-24 16:24:00,47.0,47.0,30.08,NNE,19,5.0,6.0,100,0.00,,OVC012,0.00,VWS V14.01,2013-11-24 21:24:00,
2013-11-24 16:25:00,46.8,46.8,30.08,North,360,12.0,12.0,100,0.00,,OVC012,0.00,VWS V14.01,2013-11-24 21:25:00,
2013-11-24 16:26:00,46.8,46.8,30.08,NE,43,11.0,12.0,100,0.00,,OVC012,0.00,VWS V14.01,2013-11-24 21:26:00,
2013-11-24 16:27:00,46.8,46.8,30.08,NNW,337,16.0,16.0,100,0.00,,FEW200,0.00,VWS V14.01,2013-11-24 21:27:00,
2013-11-24 16:28:00,46.7,46.7,30.08,NW,325,10.0,16.0,100,0.00,,OVC012,0.00,VWS V14.01,2013-11-24 21:28:00,
2013-11-24 16:29:00,46.7,46.7,30.08,NE,46,2.0,10.0,100,0.00,,OVC012,0.00,VWS V14.01,2013-11-24 21:29:00,
2013-11-24 16:30:00,46.7,46.7,30.08,NNW,348,6.0,6.0,100,0.00,,OVC012,0.00,VWS V14.01,2013-11-24 21:30:00,
2013-11-24 16:31:00,46.7,46.7,30.08,NE,38,7.0,7.0,100,0.00,,OVC012,0.00,VWS V14.01,2013-11-24 21:31:00,
2013-11-24 16:32:00,46.5,46.5,30.08,NE,46,5.0,9.0,100,0.00,,FEW200,0.00,VWS V14.01,2013-11-24 21:32:00,
2013-11-24 16:33:00,46.5,46.5,30.08,North,355,10.0,10.0,100,0.00,,OVC012,0.00,VWS V14.01,2013-11-24 21:33:00,
2013-11-24 16:34:00,46.5,46.5,30.08,North,351,10.0,10.0,100,0.00,,OVC012,0.00,VWS V14.01,2013-11-24 21:34:00,
2013-11-24 16:35:00,46.5,46.5,30.17,ENE,58,5.0,10.0,100,0.00,,OVC012,0.00,VWS V14.01,2013-11-24 21:35:00,
2013-11-24 16:36:00,46.5,46.5,30.17,NE,39,3.0,6.0,100,0.00,,OVC012,0.00,VWS V14.01,2013-11-24 21:36:00,
2013-11-24 16:37:00,46.4,46.4,30.12,North,355,4.0,4.0,100,0.00,,FEW200,0.00,VWS V14.01,2013-11-24 21:37:00,
2013-11-24 16:38:00,46.4,46.4,30.12,NE,45,4.0,7.0,100,0.00,,OVC012,0.00,VWS V14.01,2013-11-24 21:38:00,
2013-11-24 16:39:00,46.4,46.4,30.12,NE,50,4.0,7.0,100,0.00,,OVC012,0.00,VWS V14.01,2013-11-24 21:39:00,
2013-11-24 16:40:00,46.4,46.4,30.12,NE,49,4.0,4.0,100,0.00,,OVC012,0.00,VWS V14.01,2013-11-24 21:40:00,
2013-11-24 16:41:00,46.2,46.2,30.12,NNW,336,4.0,7.0,100,0.00,,OVC012,0.00,VWS V14.01,2013-11-24 21:41:00,
2013-11-24 16:42:00,46.2,46.2,30.12,NNW,329,9.0,9.0,100,0.00,,FEW200,0.00,VWS V14.01,2013-11-24 21:42:00,
2013-11-24 16:43:00,46.2,46.2,30.23,NNE,29,3.0,9.0,100,0.00,,OVC012,0.00,VWS V14.01,2013-11-24 21:43:00,
2013-11-24 16:44:00,46.1,46.1,30.23,NNE,28,5.0,15.0,100,0.00,,OVC012,0.00,VWS V14.01,2013-11-24 21:44:00,
2013-11-24 16:45:00,46.1,46.1,30.24,North,351,3.0,6.0,100,0.00,,OVC012,0.00,VWS V14.01,2013-11-24 21:45:00,
2013-11-24 16:46:00,46.1,46.1,30.24,ENE,59,5.0,5.0,100,0.00,,OVC012,0.00,VWS V14.01,2013-11-24 21:46:00,
2013-11-24 16:47:00,46.0,46.0,30.24,ENE,69,0.0,3.0,100,0.00,,FEW200,0.00,VWS V14.01,2013-11-24 21:47:00,
2013-11-24 16:48:00,46.0,46.0,30.24,NW,318,4.0,5.0,100,0.00,,OVC012,0.00,VWS V14.01,2013-11-24 21:48:00,
2013-11-24 16:49:00,46.0,46.0,30.24,NE,44,9.0,9.0,100,0.00,,OVC012,0.00,VWS V14.01,2013-11-24 21:49:00,
2013-11-24 16:50:00,45.8,45.8,30.24,NE,53,4.0,9.0,100,0.00,,OVC012,0.00,VWS V14.01,2013-11-24 21:50:00,
2013-11-24 16:51:00,45.8,45.8,30.18,NW,321,12.0,12.0,100,0.00,,OVC012,0.00,VWS V14.01,2013-11-24 21:51:00,
2013-11-24 16:52:00,45.7,45.7,30.18,NNE,15,4.0,6.0,100,0.00,,FEW200,0.00,VWS V14.01,2013-11-24 21:52:00,
2013-11-24 16:53:00,45.7,45.7,30.18,ENE,59,4.0,6.0,100,0.00,,OVC012,0.00,VWS V14.01,2013-11-24 21:53:00,
2013-11-24 16:54:00,45.7,45.7,30.18,NNW,341,5.0,9.0,100,0.00,,OVC012,0.00,VWS V14.01,2013-11-24 21:54:00,
2013-11-24 16:55:00,45.5,45.5,30.18,NNE,32,4.0,12.0,100,0.00,,OVC012,0.00,VWS V14.01,2013-11-24 21:55:00,
2013-11-24 16:56:00,45.5,45.5,30.18,NE,36,4.0,6.0,100,0.00,,OVC012,0.00,VWS V14.01,2013-11-24 21:56:00,
2013-11-24 16:57:00,45.5,45.5,30.37,NE,44,6.0,6.0,100,0.00,,FEW200,0.00,VWS V14.01,2013-11-24 21:57:00,
2013-11-24 16:58:00,45.4,45.4,30.37,NNE,26,2.0,6.0,100,0.00,,OVC012,0.00,VWS V14.01,2013-11-24 21:58:00,
2013-11-24 16:59:00,45.4,45.4,30.37,NE,36,12.0,12.0,100,0.00,,OVC012,0.00,VWS V14.01,2013-11-24 21:59:00,
2013-11-24 17:00:00,45.4,45.4,30.36,ENE,57,6.0,12.0,100,0.00,,OVC012,0.00,VWS V14.01,2013-11-24 22:00:00,
2013-11-24 17:01:00,45.2,45.2,30.36,ENE,63,13.0,13.0,100,0.00,,OVC012,0.00,VWS V14.01,2013-11-24 22:01:00,
2013-11-24 17:02:00,45.2,45.2,30.29,NE,39,4.0,9.0,100,0.00,,FEW200,0.00,VWS V14.01,2013-11-24 22:02:00,
2013-11-24 17:03:00,45.1,45.1,30.29,NNE,28,3.0,9.0,100,0.00,,OVC012,0.00,VWS V14.01,2013-11-24 22:03:00,
2013-11-24 17:04:00,45.1,45.1,30.29,North,5,2.0,12.0,100,0.00,,OVC012,0.00,VWS V14.01,2013-11-24 22:04:00,
2013-11-24 17:05:00,45.1,45.1,30.37,NNE,22,3.0,7.0,100,0.00,,OVC012,0.00,VWS V14.01,2013-11-24 22:05:00,
2013-11-24 17:06:00,44.9,44.9,30.37,NE,34,2.0,9.0,100,0.00,,OVC012,0.00,VWS V14.01,2013-11-24 22:06:00,
2013-11-24 17:07:00,44.9,44.9,30.37,NE,36,2.0,4.0,100,0.00,,FEW200,0.00,VWS V14.01,2013-11-24 22:07:00,
2013-11-24 17:08:00,44.8,44.8,30.37,NNE,32,7.0,7.0,100,0.00,,OVC012,0.00,VWS V14.01,2013-11-24 22:08:00,
2013-11-24 17:09:00,44.8,44.8,30.37,NE,52,2.0,7.0,100,0.00,,OVC012,0.00,VWS V14.01,2013-11-24 22:09:00,
2013-11-24 17:10:00,44.6,44.6,30.37,NW,316,3.0,6.0,100,0.00,,OVC012,0.00,VWS V14.01,2013-11-24 22:10:00,
2013-11-24 17:11:00,44.6,44.6,30.37,NNW,344,5.0,8.0,100,0.00,,OVC012,0.00,VWS V14.01,2013-11-24 22:11:00,
2013-11-24 17:12:00,44.5,44.5,30.37,North,355,5.0,5.0,100,0.00,,FEW200,0.00,VWS V14.01,2013-11-24 22:12:00,
2013-11-24 17:13:00,44.5,44.5,30.37,NE,39,5.0,6.0,100,0.00,,OVC012,0.00,VWS V14.01,2013-11-24 22:13:00,
2013-11-24 17:14:00,44.5,44.5,30.38,ENE,57,3.0,5.0,100,0.00,,OVC012,0.00,VWS V14.01,2013-11-24 22:14:00,
2013-11-24 17:15:00,44.3,44.3,30.38,NE,39,5.0,7.0,100,0.00,,OVC012,0.00,VWS V14.01,2013-11-24 22:15:00,
2013-11-24 17:16:00,44.3,44.3,30.38,NE,39,5.0,5.0,100,0.00,,OVC012,0.00,VWS V14.01,2013-11-24 22:16:00,
2013-11-24 17:17:00,44.3,44.3,30.38,NE,39,5.0,5.0,100,0.00,,FEW200,0.00,VWS V14.01,2013-11-24 22:17:00,
2013-11-24 17:18:00,44.3,44.3,30.38,NE,39,5.0,5.0,100,0.00,,OVC012,0.00,VWS V14.01,2013-11-24 22:18:00,
2013-11-24 17:19:00,44.3,44.3,30.35,NE,39,5.0,5.0,100,0.00,,OVC012,0.00,VWS V14.01,2013-11-24 22:19:00,
2013-11-24 17:20:00,44.3,44.3,30.35,NE,39,5.0,5.0,100,0.00,,OVC012,0.00,VWS V14.01,2013-11-24 22:20:00,
2013-11-24 17:21:00,44.3,44.3,30.35,NE,39,5.0,5.0,100,0.00,,OVC012,0.00,VWS V14.01,2013-11-24 22:21:00,
2013-11-24 17:22:00,44.3,44.3,30.32,NE,39,5.0,5.0,100,0.00,,FEW200,0.00,VWS V14.01,2013-11-24 22:22:00,
2013-11-24 17:23:00,44.3,44.3,30.32,NE,39,5.0,5.0,100,0.00,,OVC012,0.00,VWS V14.01,2013-11-24 22:23:00,
2013-11-24 17:24:00,44.3,44.3,30.38,NE,39,5.0,5.0,100,0.00,,OVC012,0.00,VWS V14.01,2013-11-24 22:24:00,
2013-11-24 17:25:00,44.3,44.3,30.38,NE,39,5.0,5.0,100,0.00,,OVC012,0.00,VWS V14.01,2013-11-24 22:25:00,
2013-11-24 17:26:00,44.3,44.3,30.38,NE,39,5.0,5.0,100,0.00,,OVC012,0.00,VWS V14.01,2013-11-24 22:26:00,
2013-11-24 17:27:00,44.3,44.3,30.39,NE,39,5.0,5.0,100,0.00,,FEW200,0.00,VWS V14.01,2013-11-24 22:27:00,
2013-11-24 17:28:00,44.3,44.3,30.39,NE,39,5.0,5.0,100,0.00,,OVC012,0.00,VWS V14.01,2013-11-24 22:28:00,
2013-11-24 17:29:00,44.3,44.3,30.39,NE,39,5.0,5.0,100,0.00,,OVC012,0.00,VWS V14.01,2013-11-24 22:29:00,
2013-11-24 17:30:00,44.3,44.3,30.39,NE,39,5.0,5.0,100,0.00,,OVC012,0.00,VWS V14.01,2013-11-24 22:30:00,
2013-11-24 17:31:00,44.3,44.3,30.39,NE,39,5.0,5.0,100,0.00,,OVC012,0.00,VWS V14.01,2013-11-24 22:31:00,
2013-11-24 17:32:00,44.3,44.3,30.39,NE,39,5.0,5.0,100,0.00,,FEW200,0.00,VWS V14.01,2013-11-24 22:32:00,
2013-11-24 17:33:00,44.3,44.3,30.39,NE,39,5.0,5.0,100,0.00,,OVC012,0.00,VWS V14.01,2013-11-24 22:33:00,
2013-11-24 17:34:00,44.3,44.3,30.39,NE,39,5.0,5.0,100,0.00,,OVC012,0.00,VWS V14.01,2013-11-24 22:34:00,
2013-11-24 17:35:00,44.3,44.3,30.39,NE,39,5.0,5.0,100,0.00,,OVC012,0.00,VWS V14.01,2013-11-24 22:35:00,
2013-11-24 17:36:00,44.3,44.3,30.39,NE,39,5.0,5.0,100,0.00,,OVC012,0.00,VWS V14.01,2013-11-24 22:36:00,
2013-11-24 17:37:00,44.3,44.3,30.39,NE,39,5.0,5.0,100,0.00,,SCT200,0.00,VWS V14.01,2013-11-24 22:37:00,
2013-11-24 17:38:00,44.3,44.3,30.39,NE,39,5.0,5.0,100,0.00,,OVC012,0.00,VWS V14.01,2013-11-24 22:38:00,
2013-11-24 17:39:00,44.3,44.3,30.39,NE,39,5.0,5.0,100,0.00,,OVC012,0.00,VWS V14.01,2013-11-24 22:39:00,
2013-11-24 17:40:00,44.3,44.3,30.39,NE,39,5.0,5.0,100,0.00,,OVC012,0.00,VWS V14.01,2013-11-24 22:40:00,
2013-11-24 17:41:00,44.3,44.3,30.39,NE,39,5.0,5.0,100,0.00,,OVC012,0.00,VWS V14.01,2013-11-24 22:41:00,
2013-11-24 17:42:00,44.3,44.3,30.40,NE,39,5.0,5.0,100,0.00,,SCT200,0.00,VWS V14.01,2013-11-24 22:42:00,
2013-11-24 17:43:00,44.3,44.3,30.40,NE,39,5.0,5.0,100,0.00,,OVC012,0.00,VWS V14.01,2013-11-24 22:43:00,
2013-11-24 17:44:00,44.3,44.3,30.40,NE,39,5.0,5.0,100,0.00,,OVC012,0.00,VWS V14.01,2013-11-24 22:44:00,
2013-11-24 17:45:00,44.3,44.3,30.40,NE,39,5.0,5.0,100,0.00,,OVC012,0.00,VWS V14.01,2013-11-24 22:45:00,
2013-11-24 17:46:00,44.3,44.3,30.40,NE,39,5.0,5.0,100,0.00,,OVC012,0.00,VWS V14.01,2013-11-24 22:46:00,
2013-11-24 17:47:00,44.3,44.3,30.40,NE,39,5.0,5.0,100,0.00,,SCT200,0.00,VWS V14.01,2013-11-24 22:47:00,
2013-11-24 17:48:00,44.3,44.3,30.40,NE,39,5.0,5.0,100,0.00,,OVC012,0.00,VWS V14.01,2013-11-24 22:48:00,
2013-11-24 17:49:00,44.3,44.3,30.40,NE,39,5.0,5.0,100,0.00,,OVC012,0.00,VWS V14.01,2013-11-24 22:49:00,
2013-11-24 17:50:00,44.3,44.3,30.40,NE,39,5.0,5.0,100,0.00,,OVC012,0.00,VWS V14.01,2013-11-24 22:50:00,
2013-11-24 17:51:00,44.3,44.3,30.40,NE,39,5.0,5.0,100,0.00,,OVC012,0.00,VWS V14.01,2013-11-24 22:51:00,
2013-11-24 17:52:00,44.3,44.3,30.40,NE,39,5.0,5.0,100,0.00,,SCT200,0.00,VWS V14.01,2013-11-24 22:52:00,
2013-11-24 17:53:00,44.3,44.3,30.40,NE,39,5.0,5.0,100,0.00,,OVC012,0.00,VWS V14.01,2013-11-24 22:53:00,
2013-11-24 17:54:00,44.3,44.3,30.40,NE,39,5.0,5.0,100,0.00,,OVC012,0.00,VWS V14.01,2013-11-24 22:54:00,
2013-11-24 17:55:00,44.3,44.3,30.40,NE,39,5.0,5.0,100,0.00,,OVC012,0.00,VWS V14.01,2013-11-24 22:55:00,
2013-11-24 17:56:00,44.3,44.3,30.40,NE,39,5.0,5.0,100,0.00,,OVC012,0.00,VWS V14.01,2013-11-24 22:56:00,
2013-11-24 17:57:00,44.3,44.3,30.40,NE,39,5.0,5.0,100,0.00,,SCT200,0.00,VWS V14.01,2013-11-24 22:57:00,
2013-11-24 17:58:00,44.3,44.3,30.40,NE,39,5.0,5.0,100,0.00,,OVC012,0.00,VWS V14.01,2013-11-24 22:58:00,
2013-11-24 17:59:00,44.3,44.3,30.40,NE,39,5.0,5.0,100,0.00,,OVC012,0.00,VWS V14.01,2013-11-24 22:59:00,
2013-11-24 18:00:00,44.3,44.3,30.40,NE,39,5.0,5.0,100,0.00,,OVC012,0.00,VWS V14.01,2013-11-24 23:00:00,
2013-11-24 18:01:00,44.3,44.3,30.40,NE,39,5.0,5.0,100,0.00,,OVC012,0.00,VWS V14.01,2013-11-24 23:01:00,
2013-11-24 18:02:00,44.3,44.3,30.40,NE,39,5.0,5.0,100,0.00,,SCT200,0.00,VWS V14.01,2013-11-24 23:02:00,
2013-11-24 18:03:00,44.3,44.3,30.40,NE,39,5.0,5.0,100,0.00,,OVC012,0.00,VWS V14.01,2013-11-24 23:03:00,
2013-11-24 18:04:00,44.3,44.3,30.40,NE,39,5.0,5.0,100,0.00,,OVC012,0.00,VWS V14.01,2013-11-24 23:04:00,
2013-11-24 18:05:00,44.3,44.3,30.40,NE,39,5.0,5.0,100,0.00,,OVC012,0.00,VWS V14.01,2013-11-24 23:05:00,
2013-11-24 18:06:00,44.3,44.3,30.41,NE,39,5.0,5.0,100,0.00,,OVC012,0.00,VWS V14.01,2013-11-24 23:06:00,
2013-11-24 18:07:00,44.3,44.3,30.41,NE,39,5.0,5.0,100,0.00,,SCT200,0.00,VWS V14.01,2013-11-24 23:07:00,
2013-11-24 18:08:00,44.3,44.3,30.41,NE,39,5.0,5.0,100,0.00,,OVC012,0.00,VWS V14.01,2013-11-24 23:08:00,
2013-11-24 18:09:00,44.3,44.3,30.41,NE,39,5.0,5.0,100,0.00,,OVC012,0.00,VWS V14.01,2013-11-24 23:09:00,
2013-11-24 18:10:00,44.3,44.3,30.41,NE,39,5.0,5.0,100,0.00,,OVC012,0.00,VWS V14.01,2013-11-24 23:10:00,
2013-11-24 18:11:00,44.3,44.3,30.41,NE,39,5.0,5.0,100,0.00,,OVC012,0.00,VWS V14.01,2013-11-24 23:11:00,
2013-11-24 18:12:00,44.3,44.3,30.41,NE,39,5.0,5.0,100,0.00,,SCT200,0.00,VWS V14.01,2013-11-24 23:12:00,
2013-11-24 18:13:00,44.3,44.3,30.41,NE,39,5.0,5.0,100,0.00,,OVC012,0.00,VWS V14.01,2013-11-24 23:13:00,
2013-11-24 18:14:00,44.3,44.3,30.41,NE,39,5.0,5.0,100,0.00,,OVC012,0.00,VWS V14.01,2013-11-24 23:14:00,
2013-11-24 18:15:00,44.3,44.3,30.41,NE,39,5.0,5.0,100,0.00,,OVC012,0.00,VWS V14.01,2013-11-24 23:15:00,
2013-11-24 18:16:00,44.3,44.3,30.41,NE,39,5.0,5.0,100,0.00,,OVC012,0.00,VWS V14.01,2013-11-24 23:16:00,
2013-11-24 18:17:00,44.3,44.3,30.41,NE,39,5.0,5.0,100,0.00,,SCT200,0.00,VWS V14.01,2013-11-24 23:17:00,
2013-11-24 18:18:00,44.3,44.3,30.41,NE,39,5.0,5.0,100,0.00,,OVC012,0.00,VWS V14.01,2013-11-24 23:18:00,
2013-11-24 18:19:00,44.3,44.3,30.41,NE,39,5.0,5.0,100,0.00,,OVC012,0.00,VWS V14.01,2013-11-24 23:19:00,
2013-11-24 18:20:00,44.3,44.3,30.41,NE,39,5.0,5.0,100,0.00,,OVC012,0.00,VWS V14.01,2013-11-24 23:20:00,
2013-11-24 18:21:00,44.3,44.3,30.41,NE,39,5.0,5.0,100,0.00,,OVC012,0.00,VWS V14.01,2013-11-24 23:21:00,
2013-11-24 18:22:00,44.3,44.3,30.41,NE,39,5.0,5.0,100,0.00,,SCT200,0.00,VWS V14.01,2013-11-24 23:22:00,
2013-11-24 18:23:00,44.3,44.3,30.41,NE,39,5.0,5.0,100,0.00,,OVC012,0.00,VWS V14.01,2013-11-24 23:23:00,
2013-11-24 18:24:00,44.3,44.3,30.41,NE,39,5.0,5.0,100,0.00,,OVC012,0.00,VWS V14.01,2013-11-24 23:24:00,
2013-11-24 18:25:00,44.3,44.3,30.41,NE,39,5.0,5.0,100,0.00,,OVC012,0.00,VWS V14.01,2013-11-24 23:25:00,
2013-11-24 18:26:00,44.3,44.3,30.41,NE,39,5.0,5.0,100,0.00,,OVC012,0.00,VWS V14.01,2013-11-24 23:26:00,
2013-11-24 18:27:00,44.3,44.3,30.41,NE,39,5.0,5.0,100,0.00,,SCT200,0.00,VWS V14.01,2013-11-24 23:27:00,
2013-11-24 18:28:00,44.3,44.3,30.41,NE,39,5.0,5.0,100,0.00,,OVC012,0.00,VWS V14.01,2013-11-24 23:28:00,
2013-11-24 18:29:00,44.3,44.3,30.41,NE,39,5.0,5.0,100,0.00,,OVC012,0.00,VWS V14.01,2013-11-24 23:29:00,
2013-11-24 18:30:00,44.3,44.3,30.41,NE,39,5.0,5.0,100,0.00,,OVC012,0.00,VWS V14.01,2013-11-24 23:30:00,
2013-11-24 18:31:00,44.3,44.3,30.41,NE,39,5.0,5.0,100,0.00,,OVC012,0.00,VWS V14.01,2013-11-24 23:31:00,
2013-11-24 18:32:00,44.3,44.3,30.41,NE,39,5.0,5.0,100,0.00,,SCT200,0.00,VWS V14.01,2013-11-24 23:32:00,
2013-11-24 18:33:00,44.3,44.3,30.41,NE,39,5.0,5.0,100,0.00,,OVC012,0.00,VWS V14.01,2013-11-24 23:33:00,
2013-11-24 18:34:00,44.3,44.3,30.41,NE,39,5.0,5.0,100,0.00,,OVC012,0.00,VWS V14.01,2013-11-24 23:34:00,
2013-11-24 18:35:00,44.3,44.3,30.41,NE,39,5.0,5.0,100,0.00,,OVC012,0.00,VWS V14.01,2013-11-24 23:35:00,
2013-11-24 18:36:00,44.3,44.3,30.41,NE,39,5.0,5.0,100,0.00,,OVC012,0.00,VWS V14.01,2013-11-24 23:36:00,
2013-11-24 18:37:00,44.3,44.3,30.41,NE,39,5.0,5.0,100,0.00,,CLR,0.00,VWS V14.01,2013-11-24 23:37:00,
2013-11-24 18:38:00,44.3,44.3,30.41,NE,39,5.0,5.0,100,0.00,,OVC012,0.00,VWS V14.01,2013-11-24 23:38:00,
2013-11-24 18:39:00,44.3,44.3,30.41,NE,39,5.0,5.0,100,0.00,,OVC012,0.00,VWS V14.01,2013-11-24 23:39:00,
2013-11-24 18:40:00,44.3,44.3,30.42,NE,39,5.0,5.0,100,0.00,,OVC012,0.00,VWS V14.01,2013-11-24 23:40:00,
2013-11-24 18:41:00,44.3,44.3,30.42,NE,39,5.0,5.0,100,0.00,,OVC012,0.00,VWS V14.01,2013-11-24 23:41:00,
2013-11-24 18:42:00,44.3,44.3,30.42,NE,39,5.0,5.0,100,0.00,,CLR,0.00,VWS V14.01,2013-11-24 23:42:00,
2013-11-24 18:43:00,44.3,44.3,30.42,NE,39,5.0,5.0,100,0.00,,OVC012,0.00,VWS V14.01,2013-11-24 23:43:00,
2013-11-24 18:44:00,44.3,44.3,30.42,NE,39,5.0,5.0,100,0.00,,OVC012,0.00,VWS V14.01,2013-11-24 23:44:00,
2013-11-24 18:45:00,44.3,44.3,30.42,NE,39,5.0,5.0,100,0.00,,OVC012,0.00,VWS V14.01,2013-11-24 23:45:00,
2013-11-24 18:46:00,44.3,44.3,30.42,NE,39,5.0,5.0,100,0.00,,OVC012,0.00,VWS V14.01,2013-11-24 23:46:00,
2013-11-24 18:47:00,44.3,44.3,30.42,NE,39,5.0,5.0,100,0.00,,CLR,0.00,VWS V14.01,2013-11-24 23:47:00,
2013-11-24 18:48:00,44.3,44.3,30.42,NE,39,5.0,5.0,100,0.00,,OVC012,0.00,VWS V14.01,2013-11-24 23:48:00,
2013-11-24 18:49:00,44.3,44.3,30.42,NE,39,5.0,5.0,100,0.00,,OVC012,0.00,VWS V14.01,2013-11-24 23:49:00,
2013-11-24 18:50:00,44.3,44.3,30.42,NE,39,5.0,5.0,100,0.00,,OVC012,0.00,VWS V14.01,2013-11-24 23:50:00,
2013-11-24 18:51:00,44.3,44.3,30.42,NE,39,5.0,5.0,100,0.00,,OVC012,0.00,VWS V14.01,2013-11-24 23:51:00,
2013-11-24 18:52:00,44.3,44.3,30.42,NE,39,5.0,5.0,100,0.00,,CLR,0.00,VWS V14.01,2013-11-24 23:52:00,
2013-11-24 18:53:00,44.3,44.3,30.42,NE,39,5.0,5.0,100,0.00,,OVC012,0.00,VWS V14.01,2013-11-24 23:53:00,
2013-11-24 18:54:00,44.3,44.3,30.42,NE,39,5.0,5.0,100,0.00,,OVC012,0.00,VWS V14.01,2013-11-24 23:54:00,
2013-11-24 18:55:00,44.3,44.3,30.42,NE,39,5.0,5.0,100,0.00,,OVC012,0.00,VWS V14.01,2013-11-24 23:55:00,
2013-11-24 18:56:00,44.3,44.3,30.42,NE,39,5.0,5.0,100,0.00,,OVC012,0.00,VWS V14.01,2013-11-24 23:56:00,
2013-11-24 18:57:00,44.3,44.3,30.42,NE,39,5.0,5.0,100,0.00,,CLR,0.00,VWS V14.01,2013-11-24 23:57:00,
2013-11-24 18:58:00,44.3,44.3,30.42,NE,39,5.0,5.0,100,0.00,,OVC012,0.00,VWS V14.01,2013-11-24 23:58:00,
2013-11-24 18:59:00,44.3,44.3,30.42,NE,39,5.0,5.0,100,0.00,,OVC012,0.00,VWS V14.01,2013-11-24 23:59:00,
2013-11-24 19:00:00,44.3,44.3,30.42,NE,39,5.0,5.0,100,0.00,,OVC012,0.00,VWS V14.01,2013-11-25 00:00:00,
2013-11-24 19:01:00,44.3,44.3,30.42,NE,39,5.0,5.0,100,0.00,,OVC012,0.00,VWS V14.01,2013-11-25 00:01:00,
2013-11-24 19:02:00,44.3,44.3,30.42,NE,39,5.0,5.0,100,0.00,,CLR,0.00,VWS V14.01,2013-11-25 00:02:00,
2013-11-24 19:03:00,44.3,44.3,30.42,NE,39,5.0,5.0,100,0.00,,OVC012,0.00,VWS V14.01,2013-11-25 00:03:00,
2013-11-24 19:04:00,44.3,44.3,30.42,NE,39,5.0,5.0,100,0.00,,OVC012,0.00,VWS V14.01,2013-11-25 00:04:00,
2013-11-24 19:05:00,44.3,44.3,30.42,NE,39,5.0,5.0,100,0.00,,OVC012,0.00,VWS V14.01,2013-11-25 00:05:00,
2013-11-24 19:06:00,44.3,44.3,30.42,NE,39,5.0,5.0,100,0.00,,OVC012,0.00,VWS V14.01,2013-11-25 00:06:00,
2013-11-24 19:07:00,44.3,44.3,30.42,NE,39,5.0,5.0,100,0.00,,CLR,0.00,VWS V14.01,2013-11-25 00:07:00,
2013-11-24 19:08:00,44.3,44.3,30.42,NE,39,5.0,5.0,100,0.00,,OVC012,0.00,VWS V14.01,2013-11-25 00:08:00,
2013-11-24 19:09:00,44.3,44.3,30.42,NE,39,5.0,5.0,100,0.00,,OVC012,0.00,VWS V14.01,2013-11-25 00:09:00,
2013-11-24 19:10:00,44.3,44.3,30.42,NE,39,5.0,5.0,100,0.00,,OVC012,0.00,VWS V14.01,2013-11-25 00:10:00,
2013-11-24 19:11:00,44.3,44.3,30.43,NE,39,5.0,5.0,100,0.00,,OVC012,0.00,VWS V14.01,2013-11-25 00:11:00,
2013-11-24 19:12:00,44.3,44.3,30.43,NE,39,5.0,5.0,100,0.00,,CLR,0.00,VWS V14.01,2013-11-25 00:12:00,
2013-11-24 19:13:00,44.3,44.3,30.43,NE,39,5.0,5.0,100,0.00,,OVC012,0.00,VWS V14.01,2013-11-25 00:13:00,
2013-11-24 19:14:00,44.3,44.3,30.43,NE,39,5.0,5.0,100,0.00,,OVC012,0.00,VWS V14.01,2013-11-25 00:14:00,
2013-11-24 19:15:00,44.3,44.3,30.43,NE,39,5.0,5.0,100,0.00,,OVC012,0.00,VWS V14.01,2013-11-25 00:15:00,
2013-11-24 19:16:00,44.3,44.3,30.43,NE,39,5.0,5.0,100,0.00,,OVC012,0.00,VWS V14.01,2013-11-25 00:16:00,
2013-11-24 19:17:00,44.3,44.3,30.43,NE,39,5.0,5.0,100,0.00,,CLR,0.00,VWS V14.01,2013-11-25 00:17:00,
2013-11-24 19:18:00,44.3,44.3,30.43,NE,39,5.0,5.0,100,0.00,,OVC012,0.00,VWS V14.01,2013-11-25 00:18:00,
2013-11-24 19:19:00,44.3,44.3,30.43,NE,39,5.0,5.0,100,0.00,,OVC012,0.00,VWS V14.01,2013-11-25 00:19:00,
2013-11-24 19:20:00,44.3,44.3,30.43,NE,39,5.0,5.0,100,0.00,,OVC012,0.00,VWS V14.01,2013-11-25 00:20:00,
2013-11-24 19:21:00,44.3,44.3,30.43,NE,39,5.0,5.0,100,0.00,,OVC012,0.00,VWS V14.01,2013-11-25 00:21:00,
2013-11-24 19:22:00,44.3,44.3,30.44,NE,39,5.0,5.0,100,0.00,,CLR,0.00,VWS V14.01,2013-11-25 00:22:00,
2013-11-24 19:23:00,44.3,44.3,30.44,NE,39,5.0,5.0,100,0.00,,OVC012,0.00,VWS V14.01,2013-11-25 00:23:00,
2013-11-24 19:24:00,41.9,41.9,30.44,NNW,338,6.0,10.0,100,0.00,,OVC012,0.00,VWS V14.01,2013-11-25 00:24:00,
2013-11-24 19:25:00,41.9,41.9,30.44,North,360,5.0,6.0,100,0.00,,OVC012,0.00,VWS V14.01,2013-11-25 00:25:00,
2013-11-24 19:26:00,41.9,41.9,30.44,North,360,4.0,11.0,100,0.00,,OVC012,0.00,VWS V14.01,2013-11-25 00:26:00,
2013-11-24 19:27:00,41.9,41.9,30.44,NNE,17,8.0,8.0,100,0.00,,CLR,0.00,VWS V14.01,2013-11-25 00:27:00,
2013-11-24 19:28:00,41.9,41.9,30.44,NNW,346,3.0,9.0,100,0.00,,OVC012,0.00,VWS V14.01,2013-11-25 00:28:00,
2013-11-24 19:29:00,41.9,41.9,30.44,ENE,62,9.0,9.0,100,0.00,,OVC012,0.00,VWS V14.01,2013-11-25 00:29:00,
2013-11-24 19:30:00,41.9,41.9,30.44,NW,321,6.0,10.0,100,0.00,,OVC012,0.00,VWS V14.01,2013-11-25 00:30:00,
2013-11-24 19:31:00,41.9,41.9,30.44,NNE,26,5.0,7.0,100,0.00,,OVC012,0.00,VWS V14.01,2013-11-25 00:31:00,
2013-11-24 19:32:00,41.9,41.9,30.44,NNE,32,4.0,9.0,100,0.00,,CLR,0.00,VWS V14.01,2013-11-25 00:32:00,
2013-11-24 19:33:00,41.9,41.9,30.44,NNW,348,7.0,9.0,100,0.00,,OVC012,0.00,VWS V14.01,2013-11-25 00:33:00,
2013-11-24 19:34:00,41.9,41.9,30.44,NE,51,12.0,12.0,100,0.00,,OVC012,0.00,VWS V14.01,2013-11-25 00:34:00,
2013-11-24 19:35:00,41.8,41.8,30.44,NNE,16,5.0,12.0,100,0.00,,OVC012,0.00,VWS V14.01,2013-11-25 00:35:00,
2013-11-24 19:36:00,41.8,41.8,30.44,NNE,24,7.0,7.0,100,0.00,,OVC012,0.00,VWS V14.01,2013-11-25 00:36:00,
2013-11-24 19:37:00,41.8,41.8,30.44,NE,52,3.0,3.0,100,0.00,,CLR,0.00,VWS V14.01,2013-11-25 00:37:00,
2013-11-24 19:38:00,41.8,41.8,30.44,North,360,4.0,4.0,100,0.00,,OVC012,0.00,VWS V14.01,2013-11-25 00:38:00,
2013-11-24 19:39:00,41.8,41.8,30.44,NNE,19,5.0,9.0,100,0.00,,OVC012,0.00,VWS V14.01,2013-11-25 00:39:00,
2013-11-24 19:40:00,41.8,41.8,30.44,NE,47,3.0,10.0,100,0.00,,OVC012,0.00,VWS V14.01,2013-11-25 00:40:00,
2013-11-24 19:41:00,41.8,41.8,30.44,NE,51,6.0,7.0,100,0.00,,OVC012,0.00,VWS V14.01,2013-11-25 00:41:00,
2013-11-24 19:42:00,41.8,41.8,30.44,NE,38,6.0,6.0,100,0.00,,CLR,0.00,VWS V14.01,2013-11-25 00:42:00,
2013-11-24 19:43:00,41.8,41.8,30.44,NNE,17,7.0,7.0,100,0.00,,OVC012,0.00,VWS V14.01,2013-11-25 00:43:00,
2013-11-24 19:44:00,41.8,41.8,30.44,NNE,15,6.0,9.0,100,0.00,,OVC012,0.00,VWS V14.01,2013-11-25 00:44:00,
2013-11-24 19:45:00,41.8,41.8,30.44,NE,55,2.0,6.0,100,0.00,,OVC012,0.00,VWS V14.01,2013-11-25 00:45:00,
2013-11-24 19:46:00,41.8,41.8,30.44,NNE,30,3.0,5.0,100,0.00,,OVC012,0.00,VWS V14.01,2013-11-25 00:46:00,
2013-11-24 19:47:00,41.8,41.8,30.44,North,5,6.0,6.0,100,0.00,,CLR,0.00,VWS V14.01,2013-11-25 00:47:00,
2013-11-24 19:48:00,41.8,41.8,30.44,NE,49,5.0,6.0,100,0.00,,OVC012,0.00,VWS V14.01,2013-11-25 00:48:00,
2013-11-24 19:49:00,41.8,41.8,30.44,NE,49,6.0,6.0,100,0.00,,OVC012,0.00,VWS V14.01,2013-11-25 00:49:00,
2013-11-24 19:50:00,41.8,41.8,30.45,NE,48,3.0,6.0,100,0.00,,OVC012,0.00,VWS V14.01,2013-11-25 00:50:00,
2013-11-24 19:51:00,41.8,41.8,30.45,NE,36,5.0,8.0,100,0.00,,OVC012,0.00,VWS V14.01,2013-11-25 00:51:00,
2013-11-24 19:52:00,41.8,41.8,30.45,NNE,27,6.0,6.0,100,0.00,,CLR,0.00,VWS V14.01,2013-11-25 00:52:00,
2013-11-24 19:53:00,41.8,41.8,30.45,NE,44,1.0,6.0,100,0.00,,OVC012,0.00,VWS V14.01,2013-11-25 00:53:00,
2013-11-24 19:54:00,41.6,41.6,30.45,NW,316,7.0,7.0,100,0.00,,OVC012,0.00,VWS V14.01,2013-11-25 00:54:00,
2013-11-24 19:55:00,41.6,41.6,30.45,NE,40,9.0,9.0,100,0.00,,OVC012,0.00,VWS V14.01,2013-11-25 00:55:00,
2013-11-24 19:56:00,41.6,41.6,30.45,North,355,3.0,9.0,100,0.00,,OVC012,0.00,VWS V14.01,2013-11-25 00:56:00,
2013-11-24 19:57:00,41.6,41.6,30.45,North,355,6.0,6.0,100,0.00,,CLR,0.00,VWS V14.01,2013-11-25 00:57:00,
2013-11-24 19:58:00,41.6,41.6,30.45,NNE,33,2.0,6.0,100,0.00,,OVC012,0.00,VWS V14.01,2013-11-25 00:58:00,
2013-11-24 19:59:00,41.6,41.6,30.45,NNE,22,4.0,5.0,100,0.00,,OVC012,0.00,VWS V14.01,2013-11-25 00:59:00,
2013-11-24 20:00:00,41.6,41.6,30.45,NNW,337,9.0,9.0,100,0.00,,OVC012,0.00,VWS V14.01,2013-11-25 01:00:00,
2013-11-24 20:01:00,41.6,41.6,30.45,NNE,20,5.0,9.0,100,0.00,,OVC012,0.00,VWS V14.01,2013-11-25 01:01:00,
2013-11-24 20:02:00,41.5,41.5,30.46,North,360,4.0,7.0,100,0.00,,CLR,0.00,VWS V14.01,2013-11-25 01:02:00,
2013-11-24 20:03:00,41.5,41.5,30.46,NNE,29,3.0,7.0,100,0.00,,OVC012,0.00,VWS V14.01,2013-11-25 01:03:00,
2013-11-24 20:04:00,41.5,41.5,30.46,NNE,25,2.0,6.0,100,0.00,,OVC012,0.00,VWS V14.01,2013-11-25 01:04:00,
2013-11-24 20:05:00,41.5,41.5,30.46,NE,34,3.0,4.0,100,0.00,,OVC012,0.00,VWS V14.01,2013-11-25 01:05:00,
2013-11-24 20:06:00,41.5,41.5,30.46,ENE,70,3.0,5.0,100,0.00,,OVC012,0.00,VWS V14.01,2013-11-25 01:06:00,
2013-11-24 20:07:00,41.5,41.5,30.46,NE,34,2.0,5.0,100,0.00,,CLR,0.00,VWS V14.01,2013-11-25 01:07:00,
2013-11-24 20:08:00,41.5,41.5,30.46,NNE,13,4.0,7.0,100,0.00,,OVC012,0.00,VWS V14.01,2013-11-25 01:08:00,
2013-11-24 20:09:00,41.5,41.5,30.46,NNW,337,5.0,7.0,100,0.00,,OVC012,0.00,VWS V14.01,2013-11-25 01:09:00,
2013-11-24 20:10:00,41.5,41.5,30.46,NNE,29,5.0,7.0,100,0.00,,OVC012,0.00,VWS V14.01,2013-11-25 01:10:00,
2013-11-24 20:11:00,41.5,41.5,30.46,North,350,5.0,8.0,100,0.00,,OVC012,0.00,VWS V14.01,2013-11-25 01:11:00,
2013-11-24 20:12:00,41.6,41.6,30.47,NE,36,3.0,5.0,100,0.00,,CLR,0.00,VWS V14.01,2013-11-25 01:12:00,
2013-11-24 20:13:00,41.6,41.6,30.47,NNE,17,2.0,5.0,100,0.00,,OVC012,0.00,VWS V14.01,2013-11-25 01:13:00,
2013-11-24 20:14:00,41.6,41.6,30.47,NE,40,6.0,6.0,100,0.00,,OVC012,0.00,VWS V14.01,2013-11-25 01:14:00,
2013-11-24 20:15:00,41.6,41.6,30.47,North,5,4.0,6.0,100,0.00,,OVC012,0.00,VWS V14.01,2013-11-25 01:15:00,
2013-11-24 20:16:00,41.6,41.6,30.47,NNW,331,5.0,5.0,100,0.00,,OVC012,0.00,VWS V14.01,2013-11-25 01:16:00,
2013-11-24 20:17:00,41.6,41.6,30.47,North,5,6.0,6.0,100,0.00,,CLR,0.00,VWS V14.01,2013-11-25 01:17:00,
2013-11-24 20:18:00,41.6,41.6,30.47,NE,44,3.0,6.0,100,0.00,,OVC012,0.00,VWS V14.01,2013-11-25 01:18:00,
2013-11-24 20:19:00,41.6,41.6,30.47,North,5,5.0,6.0,100,0.00,,OVC012,0.00,VWS V14.01,2013-11-25 01:19:00,
2013-11-24 20:20:00,41.6,41.6,30.47,NNW,328,6.0,6.0,100,0.00,,OVC012,0.00,VWS V14.01,2013-11-25 01:20:00,
2013-11-24 20:21:00,41.6,41.6,30.46,North,355,4.0,6.0,100,0.00,,OVC012,0.00,VWS V14.01,2013-11-25 01:21:00,
2013-11-24 20:22:00,41.6,41.6,30.46,ENE,70,2.0,3.0,100,0.00,,CLR,0.00,VWS V14.01,2013-11-25 01:22:00,
2013-11-24 20:23:00,41.5,41.5,30.46,NNW,344,5.0,11.0,100,0.00,,OVC012,0.00,VWS V14.01,2013-11-25 01:23:00,
2013-11-24 20:24:00,41.5,41.5,30.46,NE,49,6.0,10.0,100,0.00,,OVC012,0.00,VWS V14.01,2013-11-25 01:24:00,
2013-11-24 20:25:00,41.5,41.5,30.47,NE,56,2.0,6.0,100,0.00,,OVC012,0.00,VWS V14.01,2013-11-25 01:25:00,
2013-11-24 20:26:00,41.5,41.5,30.47,ENE,67,3.0,3.0,100,0.00,,OVC012,0.00,VWS V14.01,2013-11-25 01:26:00,
2013-11-24 20:27:00,41.5,41.5,30.47,ENE,61,4.0,10.0,100,0.00,,CLR,0.00,VWS V14.01,2013-11-25 01:27:00,
2013-11-24 20:28:00,41.5,41.5,30.47,NNE,16,5.0,10.0,100,0.00,,OVC012,0.00,VWS V14.01,2013-11-25 01:28:00,
2013-11-24 20:29:00,41.5,41.5,30.47,NNE,22,2.0,6.0,100,0.00,,OVC012,0.00,VWS V14.01,2013-11-25 01:29:00,
2013-11-24 20:30:00,41.5,41.5,30.46,NE,44,4.0,10.0,100,0.00,,OVC012,0.00,VWS V14.01,2013-11-25 01:30:00,
2013-11-24 20:31:00,41.5,41.5,30.46,NE,46,1.0,8.0,100,0.00,,OVC012,0.00,VWS V14.01,2013-11-25 01:31:00,
2013-11-24 20:32:00,41.5,41.5,30.46,NNE,16,3.0,4.0,100,0.00,,CLR,0.00,VWS V14.01,2013-11-25 01:32:00,
2013-11-24 20:33:00,41.5,41.5,30.46,NE,51,4.0,4.0,100,0.00,,OVC012,0.00,VWS V14.01,2013-11-25 01:33:00,
2013-11-24 20:34:00,41.5,41.5,30.46,NNE,15,4.0,13.0,100,0.00,,OVC012,0.00,VWS V14.01,2013-11-25 01:34:00,
2013-11-24 20:35:00,41.5,41.5,30.46,North,5,2.0,4.0,100,0.00,,OVC012,0.00,VWS V14.01,2013-11-25 01:35:00,
2013-11-24 20:36:00,41.5,41.5,30.46,ENE,66,3.0,8.0,100,0.00,,OVC012,0.00,VWS V14.01,2013-11-25 01:36:00,
2013-11-24 20:37:00,41.5,41.5,30.45,North,355,4.0,4.0,100,0.00,,CLR,0.00,VWS V14.01,2013-11-25 01:37:00,
2013-11-24 20:38:00,41.5,41.5,30.45,NNE,32,3.0,4.0,100,0.00,,OVC012,0.00,VWS V14.01,2013-11-25 01:38:00,
2013-11-24 20:39:00,41.5,41.5,30.45,NE,54,2.0,9.0,100,0.00,,OVC012,0.00,VWS V14.01,2013-11-25 01:39:00,
2013-11-24 20:40:00,41.5,41.5,30.45,NE,42,7.0,10.0,100,0.00,,OVC012,0.00,VWS V14.01,2013-11-25 01:40:00,
2013-11-24 20:41:00,41.5,41.5,30.45,NNE,31,5.0,7.0,100,0.00,,OVC012,0.00,VWS V14.01,2013-11-25 01:41:00,
2013-11-24 20:42:00,41.5,41.5,30.45,NNE,31,5.0,5.0,100,0.00,,CLR,0.00,VWS V14.01,2013-11-25 01:42:00,
2013-11-24 20:43:00,41.5,41.5,30.45,NNE,31,5.0,5.0,100,0.00,,OVC012,0.00,VWS V14.01,2013-11-25 01:43:00,
2013-11-24 20:44:00,41.5,41.5,30.45,NNE,31,5.0,5.0,100,0.00,,OVC012,0.00,VWS V14.01,2013-11-25 01:44:00,
2013-11-24 20:45:00,41.5,41.5,30.45,ENE,59,3.0,5.0,100,0.00,,OVC012,0.00,VWS V14.01,2013-11-25 01:45:00,
2013-11-24 20:46:00,41.5,41.5,30.45,North,355,4.0,4.0,100,0.00,,OVC012,0.00,VWS V14.01,2013-11-25 01:46:00,
2013-11-24 20:47:00,41.5,41.5,30.45,NE,43,3.0,4.0,100,0.00,,CLR,0.00,VWS V14.01,2013-11-25 01:47:00,
2013-11-24 20:48:00,41.5,41.5,30.45,ENE,78,3.0,4.0,100,0.00,,OVC012,0.00,VWS V14.01,2013-11-25 01:48:00,
2013-11-24 20:49:00,41.5,41.5,30.45,NNW,327,5.0,10.0,100,0.00,,OVC012,0.00,VWS V14.01,2013-11-25 01:49:00,
2013-11-24 20:50:00,41.5,41.5,30.46,NNE,17,7.0,7.0,100,0.00,,OVC012,0.00,VWS V14.01,2013-11-25 01:50:00,
2013-11-24 20:51:00,41.5,41.5,30.46,NNW,332,10.0,10.0,100,0.00,,OVC012,0.00,VWS V14.01,2013-11-25 01:51:00,
2013-11-24 20:52:00,41.5,41.5,30.46,NNE,14,5.0,12.0,100,0.00,,CLR,0.00,VWS V14.01,2013-11-25 01:52:00,
2013-11-24 20:53:00,41.5,41.5,30.45,NNE,18,4.0,10.0,100,0.00,,OVC012,0.00,VWS V14.01,2013-11-25 01:53:00,
2013-11-24 20:54:00,41.5,41.5,30.45,ENE,69,1.0,5.0,100,0.00,,OVC012,0.00,VWS V14.01,2013-11-25 01:54:00,
2013-11-24 20:55:00,41.5,41.5,30.45,NE,40,2.0,10.0,100,0.00,,OVC012,0.00,VWS V14.01,2013-11-25 01:55:00,
2013-11-24 20:56:00,41.5,41.5,30.45,North,355,3.0,9.0,100,0.00,,OVC012,0.00,VWS V14.01,2013-11-25 01:56:00,
2013-11-24 20:57:00,41.5,41.5,30.45,ENE,67,7.0,7.0,100,0.00,,CLR,0.00,VWS V14.01,2013-11-25 01:57:00,
2013-11-24 20:58:00,41.5,41.5,30.45,East,82,3.0,11.0,100,0.00,,OVC012,0.00,VWS V14.01,2013-11-25 01:58:00,
2013-11-24 20:59:00,41.5,41.5,30.45,NE,54,2.0,9.0,100,0.00,,OVC012,0.00,VWS V14.01,2013-11-25 01:59:00,
2013-11-24 21:00:00,41.5,41.5,30.45,ENE,59,4.0,6.0,100,0.00,,OVC012,0.00,VWS V14.01,2013-11-25 02:00:00,
2013-11-24 21:01:00,41.5,41.5,30.45,NNE,32,7.0,13.0,100,0.00,,OVC012,0.00,VWS V14.01,2013-11-25 02:01:00,
2013-11-24 21:02:00,41.5,41.5,30.45,North,5,5.0,5.0,100,0.00,,CLR,0.00,VWS V14.01,2013-11-25 02:02:00,
2013-11-24 21:03:00,41.5,41.5,30.45,NNE,17,9.0,10.0,100,0.00,,OVC012,0.00,VWS V14.01,2013-11-25 02:03:00,
2013-11-24 21:04:00,41.6,41.6,30.45,North,9,5.0,13.0,100,0.00,,OVC012,0.00,VWS V14.01,2013-11-25 02:04:00,
2013-11-24 21:05:00,41.6,41.6,30.45,NE,52,3.0,6.0,100,0.00,,OVC012,0.00,VWS V14.01,2013-11-25 02:05:00,
2013-11-24 21:06:00,41.6,41.6,30.45,NW,313,8.0,8.0,100,0.00,,OVC012,0.00,VWS V14.01,2013-11-25 02:06:00,
2013-11-24 21:07:00,41.5,41.5,30.45,NE,43,6.0,10.0,100,0.00,,CLR,0.00,VWS V14.01,2013-11-25 02:07:00,
2013-11-24 21:08:00,41.5,41.5,30.45,ENE,60,3.0,11.0,100,0.00,,OVC012,0.00,VWS V14.01,2013-11-25 02:08:00,
2013-11-24 21:09:00,41.5,41.5,30.45,NNE,28,4.0,9.0,100,0.00,,OVC012,0.00,VWS V14.01,2013-11-25 02:09:00,
2013-11-24 21:10:00,41.5,41.5,30.45,ENE,61,3.0,9.0,100,0.00,,OVC012,0.00,VWS V14.01,2013-11-25 02:10:00,
2013-11-24 21:11:00,41.5,41.5,30.45,NE,46,6.0,6.0,100,0.00,,OVC012,0.00,VWS V14.01,2013-11-25 02:11:00,
2013-11-24 21:12:00,41.5,41.5,30.45,NE,34,9.0,10.0,100,0.00,,CLR,0.00,VWS V14.01,2013-11-25 02:12:00,
2013-11-24 21:13:00,41.5,41.5,30.45,NE,55,11.0,11.0,100,0.00,,OVC012,0.00,VWS V14.01,2013-11-25 02:13:00,
2013-11-24 21:14:00,41.5,41.5,30.45,North,5,4.0,13.0,100,0.00,,OVC012,0.00,VWS V14.01,2013-11-25 02:14:00,
2013-11-24 21:15:00,41.5,41.5,30.45,NNE,32,5.0,11.0,100,0.00,,OVC012,0.00,VWS V14.01,2013-11-25 02:15:00,
2013-11-24 21:16:00,41.5,41.5,30.45,NE,45,10.0,10.0,100,0.00,,OVC012,0.00,VWS V14.01,2013-11-25 02:16:00,
2013-11-24 21:17:00,41.5,41.5,30.45,NNE,31,3.0,10.0,100,0.00,,CLR,0.00,VWS V14.01,2013-11-25 02:17:00,
2013-11-24 21:18:00,41.6,41.6,30.45,ENE,65,9.0,10.0,100,0.00,,OVC012,0.00,VWS V14.01,2013-11-25 02:18:00,
2013-11-24 21:19:00,41.6,41.6,30.45,NE,42,4.0,9.0,100,0.00,,OVC012,0.00,VWS V14.01,2013-11-25 02:19:00,
2013-11-24 21:20:00,41.5,41.5,30.46,NE,51,4.0,11.0,100,0.00,,OVC012,0.00,VWS V14.01,2013-11-25 02:20:00,
2013-11-24 21:21:00,41.6,41.6,30.46,North,355,4.0,7.0,100,0.00,,OVC012,0.00,VWS V14.01,2013-11-25 02:21:00,
2013-11-24 21:22:00,41.6,41.6,30.46,North,9,1.0,4.0,100,0.00,,CLR,0.00,VWS V14.01,2013-11-25 02:22:00,
2013-11-24 21:23:00,41.6,41.6,30.46,NNW,346,4.0,7.0,100,0.00,,OVC012,0.00,VWS V14.01,2013-11-25 02:23:00,
2013-11-24 21:24:00,41.6,41.6,30.46,NE,44,6.0,9.0,100,0.00,,OVC012,0.00,VWS V14.01,2013-11-25 02:24:00,
2013-11-24 21:25:00,41.6,41.6,30.46,ENE,69,5.0,6.0,100,0.00,,OVC012,0.00,VWS V14.01,2013-11-25 02:25:00,
2013-11-24 21:26:00,41.5,41.5,30.46,North,355,4.0,9.0,100,0.00,,OVC012,0.00,VWS V14.01,2013-11-25 02:26:00,
2013-11-24 21:27:00,41.5,41.5,30.46,NE,42,3.0,10.0,100,0.00,,CLR,0.00,VWS V14.01,2013-11-25 02:27:00,
2013-11-24 21:28:00,41.5,41.5,30.46,NNW,334,6.0,6.0,100,0.00,,OVC012,0.00,VWS V14.01,2013-11-25 02:28:00,
2013-11-24 21:29:00,41.5,41.5,30.46,NNW,341,5.0,6.0,100,0.00,,OVC012,0.00,VWS V14.01,2013-11-25 02:29:00,
2013-11-24 21:30:00,41.5,41.5,30.46,NNW,330,1.0,5.0,100,0.00,,OVC012,0.00,VWS V14.01,2013-11-25 02:30:00,
2013-11-24 21:31:00,41.5,41.5,30.46,NNE,26,4.0,4.0,100,0.00,,OVC012,0.00,VWS V14.01,2013-11-25 02:31:00,
2013-11-24 21:32:00,41.3,41.3,30.46,NE,55,9.0,14.0,100,0.00,,CLR,0.00,VWS V14.01,2013-11-25 02:32:00,
2013-11-24 21:33:00,41.3,41.3,30.46,North,355,6.0,14.0,100,0.00,,OVC012,0.00,VWS V14.01,2013-11-25 02:33:00,
2013-11-24 21:34:00,41.3,41.3,30.46,NW,325,10.0,10.0,100,0.00,,OVC012,0.00,VWS V14.01,2013-11-25 02:34:00,
2013-11-24 21:35:00,41.3,41.3,30.46,NE,34,2.0,13.0,100,0.00,,OVC012,0.00,VWS V14.01,2013-11-25 02:35:00,
2013-11-24 21:36:00,41.3,41.3,30.46,NE,44,1.0,2.0,100,0.00,,OVC012,0.00,VWS V14.01,2013-11-25 02:36:00,
2013-11-24 21:37:00,41.3,41.3,30.46,NE,35,2.0,7.0,100,0.00,,CLR,0.00,VWS V14.01,2013-11-25 02:37:00,
2013-11-24 21:38:00,41.3,41.3,30.46,NNE,19,5.0,7.0,100,0.00,,OVC012,0.00,VWS V14.01,2013-11-25 02:38:00,
2013-11-24 21:39:00,41.2,41.2,30.46,NE,40,4.0,11.0,100,0.00,,OVC012,0.00,VWS V14.01,2013-11-25 02:39:00,
2013-11-24 21:40:00,41.2,41.2,30.46,NNE,26,3.0,4.0,100,0.00,,OVC012,0.00,VWS V14.01,2013-11-25 02:40:00,
2013-11-24 21:41:00,41.2,41.2,30.46,NNW,341,6.0,6.0,100,0.00,,OVC012,0.00,VWS V14.01,2013-11-25 02:41:00,
2013-11-24 21:42:00,41.2,41.2,30.46,NE,51,6.0,13.0,100,0.00,,CLR,0.00,VWS V14.01,2013-11-25 02:42:00,
2013-11-24 21:43:00,41.2,41.2,30.46,NE,54,2.0,13.0,100,0.00,,OVC012,0.00,VWS V14.01,2013-11-25 02:43:00,
2013-11-24 21:44:00,41.2,41.2,30.46,NE,51,9.0,9.0,100,0.00,,OVC012,0.00,VWS V14.01,2013-11-25 02:44:00,
2013-11-24 21:45:00,41.2,41.2,30.46,NNE,32,4.0,9.0,100,0.00,,OVC012,0.00,VWS V14.01,2013-11-25 02:45:00,
2013-11-24 21:46:00,41.2,41.2,30.46,ENE,69,5.0,7.0,100,0.00,,OVC012,0.00,VWS V14.01,2013-11-25 02:46:00,
2013-11-24 21:47:00,41.2,41.2,30.47,NE,41,6.0,6.0,100,0.00,,CLR,0.00,VWS V14.01,2013-11-25 02:47:00,
2013-11-24 21:48:00,41.2,41.2,30.47,NE,45,3.0,6.0,100,0.00,,OVC012,0.00,VWS V14.01,2013-11-25 02:48:00,
2013-11-24 21:49:00,41.2,41.2,30.47,NNW,346,9.0,9.0,100,0.00,,OVC012,0.00,VWS V14.01,2013-11-25 02:49:00,
2013-11-24 21:50:00,41.2,41.2,30.47,NE,37,3.0,9.0,100,0.00,,OVC012,0.00,VWS V14.01,2013-11-25 02:50:00,
2013-11-24 21:51:00,41.2,41.2,30.47,ENE,60,5.0,7.0,100,0.00,,OVC012,0.00,VWS V14.01,2013-11-25 02:51:00,
2013-11-24 21:52:00,41.2,41.2,30.47,NE,34,5.0,10.0,100,0.00,,CLR,0.00,VWS V14.01,2013-11-25 02:52:00,
2013-11-24 21:53:00,41.2,41.2,30.47,NE,48,4.0,10.0,100,0.00,,OVC012,0.00,VWS V14.01,2013-11-25 02:53:00,
2013-11-24 21:54:00,41.2,41.2,30.47,NNE,23,10.0,10.0,100,0.00,,OVC012,0.00,VWS V14.01,2013-11-25 02:54:00,
2013-11-24 21:55:00,41.2,41.2,30.47,NNW,340,9.0,10.0,100,0.00,,OVC012,0.00,VWS V14.01,2013-11-25 02:55:00,
2013-11-24 21:56:00,41.2,41.2,30.47,North,5,2.0,9.0,100,0.00,,OVC012,0.00,VWS V14.01,2013-11-25 02:56:00,
2013-11-24 21:57:00,41.2,41.2,30.47,NNE,27,4.0,10.0,100,0.00,,CLR,0.00,VWS V14.01,2013-11-25 02:57:00,
2013-11-24 21:58:00,41.2,41.2,30.47,ENE,65,2.0,7.0,100,0.00,,OVC012,0.00,VWS V14.01,2013-11-25 02:58:00,
2013-11-24 21:59:00,41.2,41.2,30.47,NW,323,4.0,4.0,100,0.00,,OVC012,0.00,VWS V14.01,2013-11-25 02:59:00,
2013-11-24 22:00:00,41.2,41.2,30.47,NW,324,4.0,4.0,100,0.00,,OVC012,0.00,VWS V14.01,2013-11-25 03:00:00,
2013-11-24 22:01:00,41.2,41.2,30.47,NW,324,5.0,10.0,100,0.00,,OVC012,0.00,VWS V14.01,2013-11-25 03:01:00,
2013-11-24 22:02:00,41.2,41.2,30.47,NE,45,5.0,10.0,100,0.00,,CLR,0.00,VWS V14.01,2013-11-25 03:02:00,
2013-11-24 22:03:00,41.2,41.2,30.47,NNW,347,5.0,9.0,100,0.00,,OVC012,0.00,VWS V14.01,2013-11-25 03:03:00,
2013-11-24 22:04:00,41.2,41.2,30.47,NNE,29,10.0,10.0,100,0.00,,OVC012,0.00,VWS V14.01,2013-11-25 03:04:00,
2013-11-24 22:05:00,41.2,41.2,30.47,NE,38,2.0,10.0,100,0.00,,OVC012,0.00,VWS V14.01,2013-11-25 03:05:00,
2013-11-24 22:06:00,41.2,41.2,30.47,NNE,17,6.0,6.0,100,0.00,,OVC012,0.00,VWS V14.01,2013-11-25 03:06:00,
2013-11-24 22:07:00,41.1,41.1,30.47,NNE,32,5.0,9.0,100,0.00,,CLR,0.00,VWS V14.01,2013-11-25 03:07:00,
2013-11-24 22:08:00,41.1,41.1,30.47,NNW,336,4.0,9.0,100,0.00,,OVC012,0.00,VWS V14.01,2013-11-25 03:08:00,
2013-11-24 22:09:00,41.1,41.1,30.47,North,360,4.0,4.0,100,0.00,,OVC012,0.00,VWS V14.01,2013-11-25 03:09:00,
2013-11-24 22:10:00,41.1,41.1,30.48,NE,49,12.0,12.0,100,0.00,,OVC012,0.00,VWS V14.01,2013-11-25 03:10:00,
2013-11-24 22:11:00,41.1,41.1,30.48,NNW,348,5.0,5.0,100,0.00,,CLR,0.00,VWS V14.01,2013-11-25 03:11:00,
2013-11-24 22:12:00,41.1,41.1,30.48,NE,34,5.0,6.0,100,0.00,,OVC012,0.00,VWS V14.01,2013-11-25 03:12:00,
2013-11-24 22:13:00,41.1,41.1,30.48,North,350,7.0,7.0,100,0.00,,OVC012,0.00,VWS V14.01,2013-11-25 03:13:00,
2013-11-24 22:14:00,41.1,41.1,30.48,North,355,5.0,12.0,100,0.00,,OVC012,0.00,VWS V14.01,2013-11-25 03:14:00,
2013-11-24 22:15:00,41.1,41.1,30.48,NE,47,5.0,12.0,100,0.00,,OVC012,0.00,VWS V14.01,2013-11-25 03:15:00,
2013-11-24 22:16:00,41.1,41.1,30.48,NNE,14,2.0,11.0,100,0.00,,CLR,0.00,VWS V14.01,2013-11-25 03:16:00,
2013-11-24 22:17:00,41.1,41.1,30.48,NNE,14,2.0,11.0,100,0.00,,OVC012,0.00,VWS V14.01,2013-11-25 03:17:00,
2013-11-24 22:18:00,41.1,41.1,30.48,NE,45,6.0,6.0,100,0.00,,OVC012,0.00,VWS V14.01,2013-11-25 03:18:00,
2013-11-24 22:19:00,41.1,41.1,30.48,NE,39,5.0,6.0,100,0.00,,OVC012,0.00,VWS V14.01,2013-11-25 03:19:00,
2013-11-24 22:20:00,41.1,41.1,30.47,NNW,331,7.0,7.0,100,0.00,,OVC012,0.00,VWS V14.01,2013-11-25 03:20:00,
2013-11-24 22:21:00,41.1,41.1,30.47,North,5,6.0,11.0,100,0.00,,CLR,0.00,VWS V14.01,2013-11-25 03:21:00,
2013-11-24 22:22:00,41.1,41.1,30.47,North,5,6.0,11.0,100,0.00,,OVC012,0.00,VWS V14.01,2013-11-25 03:22:00,
2013-11-24 22:23:00,41.1,41.1,30.47,NE,39,4.0,6.0,100,0.00,,OVC012,0.00,VWS V14.01,2013-11-25 03:23:00,
2013-11-24 22:24:00,41.1,41.1,30.47,NE,55,3.0,6.0,100,0.00,,OVC012,0.00,VWS V14.01,2013-11-25 03:24:00,
2013-11-24 22:25:00,40.9,40.9,30.47,NNE,16,2.0,4.0,100,0.00,,OVC012,0.00,VWS V14.01,2013-11-25 03:25:00,
2013-11-24 22:26:00,40.9,40.9,30.47,NNE,19,5.0,5.0,100,0.00,,CLR,0.00,VWS V14.01,2013-11-25 03:26:00,
2013-11-24 22:27:00,40.9,40.9,30.47,NNE,19,5.0,5.0,100,0.00,,OVC012,0.00,VWS V14.01,2013-11-25 03:27:00,
2013-11-24 22:28:00,40.9,40.9,30.47,NNE,13,6.0,6.0,100,0.00,,OVC012,0.00,VWS V14.01,2013-11-25 03:28:00,
2013-11-24 22:29:00,40.8,40.8,30.48,NE,47,4.0,9.0,100,0.00,,OVC012,0.00,VWS V14.01,2013-11-25 03:29:00,
2013-11-24 22:30:00,40.8,40.8,30.47,NNE,32,3.0,10.0,100,0.00,,OVC012,0.00,VWS V14.01,2013-11-25 03:30:00,
2013-11-24 22:31:00,40.8,40.8,30.47,NNE,19,4.0,6.0,100,0.00,,CLR,0.00,VWS V14.01,2013-11-25 03:31:00,
2013-11-24 22:32:00,40.8,40.8,30.47,NNE,19,4.0,6.0,100,0.00,,OVC012,0.00,VWS V14.01,2013-11-25 03:32:00,
2013-11-24 22:33:00,40.8,40.8,30.48,NNE,30,3.0,8.0,100,0.00,,OVC012,0.00,VWS V14.01,2013-11-25 03:33:00,
2013-11-24 22:34:00,40.8,40.8,30.48,NNE,13,3.0,9.0,100,0.00,,OVC012,0.00,VWS V14.01,2013-11-25 03:34:00,
2013-11-24 22:35:00,40.9,40.9,30.48,North,9,3.0,5.0,100,0.00,,OVC012,0.00,VWS V14.01,2013-11-25 03:35:00,
2013-11-24 22:36:00,40.8,40.8,30.48,NNE,32,5.0,5.0,100,0.00,,CLR,0.00,VWS V14.01,2013-11-25 03:36:00,
2013-11-24 22:37:00,40.8,40.8,30.48,NNE,32,5.0,5.0,100,0.00,,OVC012,0.00,VWS V14.01,2013-11-25 03:37:00,
2013-11-24 22:38:00,40.8,40.8,30.48,NE,38,6.0,6.0,100,0.00,,OVC012,0.00,VWS V14.01,2013-11-25 03:38:00,
2013-11-24 22:39:00,40.8,40.8,30.48,NNE,15,2.0,10.0,100,0.00,,OVC012,0.00,VWS V14.01,2013-11-25 03:39:00,
2013-11-24 22:40:00,40.8,40.8,30.48,East,88,3.0,3.0,100,0.00,,OVC012,0.00,VWS V14.01,2013-11-25 03:40:00,
2013-11-24 22:41:00,40.8,40.8,30.48,North,360,9.0,9.0,100,0.00,,CLR,0.00,VWS V14.01,2013-11-25 03:41:00,
2013-11-24 22:42:00,40.8,40.8,30.48,North,5,4.0,6.0,100,0.00,,OVC012,0.00,VWS V14.01,2013-11-25 03:42:00,
2013-11-24 22:43:00,40.8,40.8,30.48,NNE,29,3.0,9.0,100,0.00,,OVC012,0.00,VWS V14.01,2013-11-25 03:43:00,
2013-11-24 22:44:00,40.8,40.8,30.48,ENE,60,4.0,6.0,100,0.00,,OVC012,0.00,VWS V14.01,2013-11-25 03:44:00,
2013-11-24 22:45:00,40.8,40.8,30.48,NE,49,4.0,5.0,100,0.00,,OVC012,0.00,VWS V14.01,2013-11-25 03:45:00,
2013-11-24 22:46:00,40.6,40.6,30.48,ENE,57,3.0,9.0,100,0.00,,CLR,0.00,VWS V14.01,2013-11-25 03:46:00,
2013-11-24 22:47:00,40.6,40.6,30.48,ENE,57,3.0,9.0,100,0.00,,OVC012,0.00,VWS V14.01,2013-11-25 03:47:00,
2013-11-24 22:48:00,40.6,40.6,30.48,NE,43,2.0,9.0,100,0.00,,OVC012,0.00,VWS V14.01,2013-11-25 03:48:00,
2013-11-24 22:49:00,40.6,40.6,30.48,NE,53,6.0,9.0,100,0.00,,OVC012,0.00,VWS V14.01,2013-11-25 03:49:00,
2013-11-24 22:50:00,40.6,40.6,30.48,NE,46,5.0,6.0,100,0.00,,OVC012,0.00,VWS V14.01,2013-11-25 03:50:00,
2013-11-24 22:51:00,40.6,40.6,30.48,NE,53,6.0,10.0,100,0.00,,CLR,0.00,VWS V14.01,2013-11-25 03:51:00,
2013-11-24 22:52:00,40.6,40.6,30.48,NE,53,6.0,10.0,100,0.00,,OVC012,0.00,VWS V14.01,2013-11-25 03:52:00,
2013-11-24 22:53:00,40.6,40.6,30.48,NE,54,12.0,12.0,100,0.00,,OVC012,0.00,VWS V14.01,2013-11-25 03:53:00,
2013-11-24 22:54:00,40.6,40.6,30.48,North,11,5.0,12.0,100,0.00,,OVC012,0.00,VWS V14.01,2013-11-25 03:54:00,
2013-11-24 22:55:00,40.6,40.6,30.48,NNE,31,6.0,8.0,100,0.00,,OVC012,0.00,VWS V14.01,2013-11-25 03:55:00,
2013-11-24 22:56:00,40.6,40.6,30.48,NE,42,10.0,10.0,100,0.00,,CLR,0.00,VWS V14.01,2013-11-25 03:56:00,
2013-11-24 22:57:00,40.6,40.6,30.48,NE,42,10.0,10.0,100,0.00,,OVC012,0.00,VWS V14.01,2013-11-25 03:57:00,
2013-11-24 22:58:00,40.6,40.6,30.48,NE,34,10.0,10.0,100,0.00,,OVC012,0.00,VWS V14.01,2013-11-25 03:58:00,
2013-11-24 22:59:00,40.6,40.6,30.48,North,360,6.0,10.0,100,0.00,,OVC012,0.00,VWS V14.01,2013-11-25 03:59:00,
2013-11-24 23:00:00,40.6,40.6,30.48,NNW,345,2.0,7.0,100,0.00,,OVC012,0.00,VWS V14.01,2013-11-25 04:00:00,
2013-11-24 23:01:00,40.6,40.6,30.48,NE,46,4.0,9.0,100,0.00,,CLR,0.00,VWS V14.01,2013-11-25 04:01:00,
2013-11-24 23:02:00,40.6,40.6,30.48,NE,46,4.0,9.0,100,0.00,,OVC012,0.00,VWS V14.01,2013-11-25 04:02:00,
2013-11-24 23:03:00,40.6,40.6,30.48,North,355,6.0,6.0,100,0.00,,OVC012,0.00,VWS V14.01,2013-11-25 04:03:00,
2013-11-24 23:04:00,40.5,40.5,30.48,NE,41,9.0,10.0,100,0.00,,OVC012,0.00,VWS V14.01,2013-11-25 04:04:00,
2013-11-24 23:05:00,40.5,40.5,30.48,North,355,6.0,13.0,100,0.00,,OVC012,0.00,VWS V14.01,2013-11-25 04:05:00,
2013-11-24 23:06:00,40.5,40.5,30.48,NNE,28,9.0,9.0,100,0.00,,CLR,0.00,VWS V14.01,2013-11-25 04:06:00,
2013-11-24 23:07:00,40.5,40.5,30.48,NNE,28,9.0,9.0,100,0.00,,OVC012,0.00,VWS V14.01,2013-11-25 04:07:00,
2013-11-24 23:08:00,40.5,40.5,30.48,NE,53,4.0,9.0,100,0.00,,OVC012,0.00,VWS V14.01,2013-11-25 04:08:00,
2013-11-24 23:09:00,40.5,40.5,30.48,NNW,331,12.0,12.0,100,0.00,,OVC012,0.00,VWS V14.01,2013-11-25 04:09:00,
2013-11-24 23:10:00,40.5,40.5,30.48,NNE,20,6.0,12.0,100,0.00,,OVC012,0.00,VWS V14.01,2013-11-25 04:10:00,
2013-11-24 23:11:00,40.5,40.5,30.48,NE,55,4.0,6.0,100,0.00,,CLR,0.00,VWS V14.01,2013-11-25 04:11:00,
2013-11-24 23:12:00,40.5,40.5,30.48,ENE,57,6.0,7.0,100,0.00,,OVC012,0.00,VWS V14.01,2013-11-25 04:12:00,
2013-11-24 23:13:00,40.5,40.5,30.48,ENE,61,3.0,6.0,100,0.00,,OVC012,0.00,VWS V14.01,2013-11-25 04:13:00,
2013-11-24 23:14:00,40.5,40.5,30.48,NNE,23,4.0,4.0,100,0.00,,OVC012,0.00,VWS V14.01,2013-11-25 04:14:00,
2013-11-24 23:15:00,40.3,40.3,30.47,NNW,342,11.0,11.0,100,0.00,,OVC012,0.00,VWS V14.01,2013-11-25 04:15:00,
2013-11-24 23:16:00,40.3,40.3,30.47,ENE,65,4.0,15.0,100,0.00,,CLR,0.00,VWS V14.01,2013-11-25 04:16:00,
2013-11-24 23:17:00,40.3,40.3,30.47,ENE,65,4.0,15.0,100,0.00,,OVC012,0.00,VWS V14.01,2013-11-25 04:17:00,
2013-11-24 23:18:00,40.3,40.3,30.47,ENE,59,7.0,7.0,100,0.00,,OVC012,0.00,VWS V14.01,2013-11-25 04:18:00,
2013-11-24 23:19:00,40.3,40.3,30.47,NE,53,3.0,7.0,100,0.00,,OVC012,0.00,VWS V14.01,2013-11-25 04:19:00,
2013-11-24 23:20:00,40.3,40.3,30.47,NNE,21,4.0,4.0,100,0.00,,OVC012,0.00,VWS V14.01,2013-11-25 04:20:00,
2013-11-24 23:21:00,40.3,40.3,30.47,NNW,342,7.0,11.0,100,0.00,,CLR,0.00,VWS V14.01,2013-11-25 04:21:00,
2013-11-24 23:22:00,40.3,40.3,30.47,NNW,342,7.0,11.0,100,0.00,,OVC012,0.00,VWS V14.01,2013-11-25 04:22:00,
2013-11-24 23:23:00,40.3,40.3,30.47,North,355,5.0,7.0,100,0.00,,OVC012,0.00,VWS V14.01,2013-11-25 04:23:00,
2013-11-24 23:24:00,40.3,40.3,30.47,NE,46,7.0,7.0,100,0.00,,OVC012,0.00,VWS V14.01,2013-11-25 04:24:00,
2013-11-24 23:25:00,40.3,40.3,30.47,NE,44,3.0,7.0,100,0.00,,OVC012,0.00,VWS V14.01,2013-11-25 04:25:00,
2013-11-24 23:26:00,40.2,40.2,30.47,NNW,337,6.0,10.0,100,0.00,,CLR,0.00,VWS V14.01,2013-11-25 04:26:00,
2013-11-24 23:27:00,40.2,40.2,30.47,NNW,337,6.0,10.0,100,0.00,,OVC012,0.00,VWS V14.01,2013-11-25 04:27:00,
2013-11-24 23:28:00,40.2,40.2,30.47,ENE,63,7.0,13.0,100,0.00,,OVC012,0.00,VWS V14.01,2013-11-25 04:28:00,
2013-11-24 23:29:00,40.2,40.2,30.47,North,10,3.0,7.0,100,0.00,,OVC012,0.00,VWS V14.01,2013-11-25 04:29:00,
2013-11-24 23:30:00,40.2,40.2,30.47,NE,50,6.0,6.0,100,0.00,,OVC012,0.00,VWS V14.01,2013-11-25 04:30:00,
2013-11-24 23:31:00,40.2,40.2,30.47,NE,54,4.0,5.0,100,0.00,,CLR,0.00,VWS V14.01,2013-11-25 04:31:00,
2013-11-24 23:32:00,40.2,40.2,30.47,NE,54,4.0,5.0,100,0.00,,OVC012,0.00,VWS V14.01,2013-11-25 04:32:00,
2013-11-24 23:33:00,40.1,40.1,30.47,North,5,4.0,9.0,100,0.00,,OVC012,0.00,VWS V14.01,2013-11-25 04:33:00,
2013-11-24 23:34:00,40.1,40.1,30.47,NE,46,10.0,10.0,100,0.00,,OVC012,0.00,VWS V14.01,2013-11-25 04:34:00,
2013-11-24 23:35:00,40.1,40.1,30.47,NNW,330,7.0,10.0,100,0.00,,OVC012,0.00,VWS V14.01,2013-11-25 04:35:00,
2013-11-24 23:36:00,40.1,40.1,30.47,NNE,17,10.0,10.0,100,0.00,,CLR,0.00,VWS V14.01,2013-11-25 04:36:00,
2013-11-24 23:37:00,40.1,40.1,30.47,NNE,17,10.0,10.0,100,0.00,,OVC012,0.00,VWS V14.01,2013-11-25 04:37:00,
2013-11-24 23:38:00,40.1,40.1,30.47,ENE,59,2.0,10.0,100,0.00,,OVC012,0.00,VWS V14.01,2013-11-25 04:38:00,
2013-11-24 23:39:00,40.1,40.1,30.47,NE,53,7.0,7.0,100,0.00,,OVC012,0.00,VWS V14.01,2013-11-25 04:39:00,
2013-11-24 23:40:00,40.1,40.1,30.47,ENE,57,6.0,9.0,100,0.00,,OVC012,0.00,VWS V14.01,2013-11-25 04:40:00,
2013-11-24 23:41:00,40.1,40.1,30.47,NNE,12,6.0,13.0,100,0.00,,CLR,0.00,VWS V14.01,2013-11-25 04:41:00,
2013-11-24 23:42:00,40.1,40.1,30.47,NNE,12,6.0,13.0,100,0.00,,OVC012,0.00,VWS V14.01,2013-11-25 04:42:00,
2013-11-24 23:43:00,40.1,40.1,30.47,NNW,344,6.0,10.0,100,0.00,,OVC012,0.00,VWS V14.01,2013-11-25 04:43:00,
2013-11-24 23:44:00,40.1,40.1,30.47,NNE,27,4.0,6.0,100,0.00,,OVC012,0.00,VWS V14.01,2013-11-25 04:44:00,
2013-11-24 23:45:00,40.1,40.1,30.47,ENE,65,10.0,10.0,100,0.00,,OVC012,0.00,VWS V14.01,2013-11-25 04:45:00,
2013-11-24 23:46:00,40.1,40.1,30.47,NE,34,8.0,8.0,100,0.00,,CLR,0.00,VWS V14.01,2013-11-25 04:46:00,
2013-11-24 23:47:00,40.1,40.1,30.47,NE,34,8.0,8.0,100,0.00,,OVC012,0.00,VWS V14.01,2013-11-25 04:47:00,
2013-11-24 23:48:00,40.1,40.1,30.47,NE,51,9.0,10.0,100,0.00,,OVC012,0.00,VWS V14.01,2013-11-25 04:48:00,
2013-11-24 23:49:00,40.1,40.1,30.47,NNE,19,5.0,9.0,100,0.00,,OVC012,0.00,VWS V14.01,2013-11-25 04:49:00,
2013-11-24 23:50:00,40.1,40.1,30.47,North,350,5.0,7.0,100,0.00,,OVC012,0.00,VWS V14.01,2013-11-25 04:50:00,
2013-11-24 23:51:00,40.1,40.1,30.47,ENE,69,3.0,14.0,100,0.00,,CLR,0.00,VWS V14.01,2013-11-25 04:51:00,
2013-11-24 23:52:00,40.1,40.1,30.47,ENE,69,3.0,14.0,100,0.00,,OVC012,0.00,VWS V14.01,2013-11-25 04:52:00,
2013-11-24 23:53:00,40.1,40.1,30.47,NE,40,5.0,5.0,100,0.00,,OVC012,0.00,VWS V14.01,2013-11-25 04:53:00,
2013-11-24 23:54:00,40.1,40.1,30.47,NNE,26,4.0,7.0,100,0.00,,OVC012,0.00,VWS V14.01,2013-11-25 04:54:00,
2013-11-24 23:55:00,39.9,39.9,30.47,NE,38,3.0,4.0,100,0.00,,OVC012,0.00,VWS V14.01,2013-11-25 04:55:00,
2013-11-24 23:56:00,39.9,39.9,30.47,NE,47,4.0,7.0,100,0.00,,CLR,0.00,VWS V14.01,2013-11-25 04:56:00,
2013-11-24 23:57:00,39.9,39.9,30.47,NE,47,4.0,7.0,100,0.00,,OVC012,0.00,VWS V14.01,2013-11-25 04:57:00,
2013-11-24 23:58:00,39.9,39.9,30.48,NNW,333,7.0,17.0,100,0.00,,OVC012,0.00,VWS V14.01,2013-11-25 04:58:00,
2013-11-24 23:59:00,39.9,39.9,30.47,NW,324,11.0,11.0,100,0.00,,OVC012,0.00,VWS V14.01,2013-11-25 04:59:00,